Wetterdaten: Samstag, 09.01.2021
Datum Zeit Temp. I. Temp. A. Feuchte I. Feuchte A. Luftdruck Regen Wind Richtung Richtung Sonnenschein Solar Taupunkt Windchill Windböen
09.01.2021 00:00 23,9 °C -0,2 °C 46 % 91 % 1017,3 hPa 0,0 l/m² 1,6 km/h (1 Bft) W-SW 244 ° 0 min 0 W/m² -1,5 °C -0,2 °C 3,2 km/h (1 Bft)
09.01.2021 00:02 23,9 °C -0,2 °C 46 % 91 % 1017,5 hPa 0,0 l/m² 3,7 km/h (1 Bft) W-SW 257 ° 0 min 0 W/m² -1,5 °C -0,2 °C 4,8 km/h (1 Bft)
09.01.2021 00:03 23,9 °C -0,2 °C 46 % 91 % 1017,5 hPa 0,0 l/m² 4,3 km/h (1 Bft) W 259 ° 0 min 0 W/m² -1,5 °C -0,2 °C 6,4 km/h (2 Bft)
09.01.2021 00:04 23,9 °C -0,2 °C 46 % 91 % 1017,4 hPa 0,0 l/m² 3,5 km/h (1 Bft) W 263 ° 0 min 0 W/m² -1,5 °C -0,2 °C 4,8 km/h (1 Bft)
09.01.2021 00:05 23,9 °C -0,2 °C 46 % 91 % 1017,4 hPa 0,0 l/m² 3,3 km/h (1 Bft) W 263 ° 0 min 0 W/m² -1,5 °C -0,2 °C 4,8 km/h (1 Bft)
09.01.2021 00:06 23,9 °C -0,2 °C 46 % 91 % 1017,4 hPa 0,0 l/m² 3,9 km/h (1 Bft) W 270 ° 0 min 0 W/m² -1,5 °C -0,2 °C 4,8 km/h (1 Bft)
09.01.2021 00:08 23,9 °C -0,2 °C 46 % 91 % 1017,3 hPa 0,0 l/m² 2,3 km/h (1 Bft) W 276 ° 0 min 0 W/m² -1,5 °C -0,2 °C 4,8 km/h (1 Bft)
09.01.2021 00:09 23,9 °C -0,2 °C 46 % 91 % 1017,4 hPa 0,0 l/m² 3,3 km/h (1 Bft) W-NW 286 ° 0 min 0 W/m² -1,5 °C -0,2 °C 4,8 km/h (1 Bft)
09.01.2021 00:11 23,9 °C -0,2 °C 46 % 91 % 1017,4 hPa 0,0 l/m² 2,5 km/h (1 Bft) W-NW 286 ° 0 min 0 W/m² -1,5 °C -0,2 °C 4,8 km/h (1 Bft)
09.01.2021 00:12 23,9 °C -0,2 °C 46 % 91 % 1017,4 hPa 0,0 l/m² 4,8 km/h (1 Bft) W 281 ° 0 min 0 W/m² -1,5 °C -0,2 °C 11,3 km/h (2 Bft)
09.01.2021 00:14 23,9 °C -0,2 °C 46 % 91 % 1017,3 hPa 0,0 l/m² 5,2 km/h (1 Bft) W 278 ° 0 min 0 W/m² -1,5 °C -0,2 °C 9,7 km/h (2 Bft)
09.01.2021 00:15 23,9 °C -0,2 °C 46 % 91 % 1017,3 hPa 0,0 l/m² 4,5 km/h (1 Bft) W 281 ° 0 min 0 W/m² -1,5 °C -0,2 °C 6,4 km/h (2 Bft)
09.01.2021 00:16 23,9 °C -0,2 °C 46 % 91 % 1017,3 hPa 0,0 l/m² 4,9 km/h (1 Bft) W 261 ° 0 min 0 W/m² -1,5 °C -0,2 °C 6,4 km/h (2 Bft)
09.01.2021 00:18 23,9 °C -0,2 °C 47 % 91 % 1017,3 hPa 0,0 l/m² 8,7 km/h (2 Bft) W-NW 285 ° 0 min 0 W/m² -1,5 °C -2,5 °C 12,9 km/h (3 Bft)
09.01.2021 00:20 23,8 °C -0,1 °C 46 % 91 % 1017,3 hPa 0,0 l/m² 7,9 km/h (2 Bft) W 276 ° 0 min 0 W/m² -1,4 °C -1,7 °C 14,5 km/h (3 Bft)
09.01.2021 00:22 23,8 °C -0,1 °C 47 % 91 % 1017,3 hPa 0,0 l/m² 9,4 km/h (2 Bft) W 271 ° 0 min 0 W/m² -1,4 °C -3,0 °C 12,9 km/h (3 Bft)
09.01.2021 00:24 23,8 °C -0,1 °C 47 % 91 % 1017,3 hPa 0,0 l/m² 10,3 km/h (2 Bft) W-NW 290 ° 0 min 0 W/m² -1,4 °C -3,8 °C 12,9 km/h (3 Bft)
09.01.2021 00:26 23,8 °C 0,1 °C 47 % 91 % 1017,4 hPa 0,0 l/m² 11,9 km/h (2 Bft) W 273 ° 0 min 0 W/m² -1,2 °C -4,8 °C 14,5 km/h (3 Bft)
09.01.2021 00:28 23,8 °C 0,1 °C 47 % 90 % 1017,4 hPa 0,0 l/m² 10,8 km/h (2 Bft) W 269 ° 0 min 0 W/m² -1,3 °C -4,0 °C 12,9 km/h (3 Bft)
09.01.2021 00:30 23,8 °C 0,1 °C 47 % 90 % 1017,4 hPa 0,0 l/m² 10,2 km/h (2 Bft) W 270 ° 0 min 0 W/m² -1,3 °C -3,5 °C 16,1 km/h (3 Bft)
09.01.2021 00:32 23,8 °C 0,1 °C 47 % 90 % 1017,4 hPa 0,0 l/m² 8,9 km/h (2 Bft) W 277 ° 0 min 0 W/m² -1,3 °C -2,4 °C 12,9 km/h (3 Bft)
09.01.2021 00:33 23,8 °C 0,1 °C 47 % 90 % 1017,4 hPa 0,0 l/m² 8,8 km/h (2 Bft) W 281 ° 0 min 0 W/m² -1,3 °C -2,3 °C 11,3 km/h (2 Bft)
09.01.2021 00:35 23,8 °C 0,2 °C 47 % 90 % 1017,4 hPa 0,0 l/m² 9,5 km/h (2 Bft) W-NW 282 ° 0 min 0 W/m² -1,2 °C -2,8 °C 11,3 km/h (2 Bft)
09.01.2021 00:37 23,8 °C 0,1 °C 47 % 90 % 1017,4 hPa 0,0 l/m² 9,9 km/h (2 Bft) W 279 ° 0 min 0 W/m² -1,3 °C -3,3 °C 11,3 km/h (2 Bft)
09.01.2021 00:39 23,8 °C 0,1 °C 47 % 89 % 1017,3 hPa 0,0 l/m² 9,5 km/h (2 Bft) W 277 ° 0 min 0 W/m² -1,5 °C -2,9 °C 11,3 km/h (2 Bft)
09.01.2021 00:41 23,8 °C 0,1 °C 47 % 89 % 1017,4 hPa 0,0 l/m² 9,2 km/h (2 Bft) W 277 ° 0 min 0 W/m² -1,5 °C -2,7 °C 11,3 km/h (2 Bft)
09.01.2021 00:43 23,8 °C 0,1 °C 47 % 89 % 1017,3 hPa 0,0 l/m² 9,6 km/h (2 Bft) W 279 ° 0 min 0 W/m² -1,5 °C -3,0 °C 11,3 km/h (2 Bft)
09.01.2021 00:46 23,8 °C 0,1 °C 47 % 89 % 1017,4 hPa 0,0 l/m² 8,9 km/h (2 Bft) W 269 ° 0 min 0 W/m² -1,5 °C -2,4 °C 11,3 km/h (2 Bft)
09.01.2021 00:48 23,7 °C 0,1 °C 47 % 89 % 1017,4 hPa 0,0 l/m² 8,0 km/h (2 Bft) W 277 ° 0 min 0 W/m² -1,5 °C -1,5 °C 11,3 km/h (2 Bft)
09.01.2021 00:50 23,7 °C 0,1 °C 47 % 89 % 1017,3 hPa 0,0 l/m² 8,1 km/h (2 Bft) W 275 ° 0 min 0 W/m² -1,5 °C -1,6 °C 9,7 km/h (2 Bft)
09.01.2021 00:52 23,7 °C 0,1 °C 47 % 89 % 1017,3 hPa 0,0 l/m² 7,5 km/h (2 Bft) W 275 ° 0 min 0 W/m² -1,5 °C -1,0 °C 9,7 km/h (2 Bft)
09.01.2021 00:53 23,7 °C 0,1 °C 47 % 89 % 1017,3 hPa 0,0 l/m² 6,4 km/h (2 Bft) W 276 ° 0 min 0 W/m² -1,5 °C 0,1 °C 6,4 km/h (2 Bft)
09.01.2021 00:55 23,7 °C 0,1 °C 47 % 89 % 1017,4 hPa 0,0 l/m² 5,1 km/h (1 Bft) W 271 ° 0 min 0 W/m² -1,5 °C 0,1 °C 6,4 km/h (2 Bft)
09.01.2021 00:57 23,7 °C 0,0 °C 47 % 89 % 1017,4 hPa 0,0 l/m² 4,6 km/h (1 Bft) W 272 ° 0 min 0 W/m² -1,6 °C 0,0 °C 6,4 km/h (2 Bft)
09.01.2021 00:59 23,7 °C 0,0 °C 47 % 89 % 1017,3 hPa 0,0 l/m² 4,1 km/h (1 Bft) W 259 ° 0 min 0 W/m² -1,6 °C 0,0 °C 6,4 km/h (2 Bft)
09.01.2021 01:02 23,7 °C -0,1 °C 47 % 89 % 1017,3 hPa 0,0 l/m² 5,8 km/h (2 Bft) W 267 ° 0 min 0 W/m² -1,7 °C -0,1 °C 9,7 km/h (2 Bft)
09.01.2021 01:03 23,7 °C -0,1 °C 47 % 89 % 1017,3 hPa 0,0 l/m² 4,6 km/h (1 Bft) W 267 ° 0 min 0 W/m² -1,7 °C -0,1 °C 6,4 km/h (2 Bft)
09.01.2021 01:04 23,7 °C -0,1 °C 47 % 89 % 1017,3 hPa 0,0 l/m² 4,1 km/h (1 Bft) W 261 ° 0 min 0 W/m² -1,7 °C -0,1 °C 6,4 km/h (2 Bft)
09.01.2021 01:05 23,7 °C -0,1 °C 47 % 89 % 1017,3 hPa 0,0 l/m² 5,4 km/h (2 Bft) W 265 ° 0 min 0 W/m² -1,7 °C -0,1 °C 6,4 km/h (2 Bft)
09.01.2021 01:07 23,7 °C -0,1 °C 47 % 89 % 1017,3 hPa 0,0 l/m² 4,6 km/h (1 Bft) W 261 ° 0 min 0 W/m² -1,7 °C -0,1 °C 6,4 km/h (2 Bft)
09.01.2021 01:09 23,7 °C -0,1 °C 47 % 89 % 1017,4 hPa 0,0 l/m² 5,1 km/h (1 Bft) W 259 ° 0 min 0 W/m² -1,7 °C -0,1 °C 6,4 km/h (2 Bft)
09.01.2021 01:12 23,7 °C -0,1 °C 47 % 89 % 1017,3 hPa 0,0 l/m² 5,7 km/h (2 Bft) W-SW 254 ° 0 min 0 W/m² -1,7 °C -0,1 °C 9,7 km/h (2 Bft)
09.01.2021 01:13 23,7 °C -0,2 °C 47 % 88 % 1017,3 hPa 0,0 l/m² 5,4 km/h (2 Bft) W-SW 254 ° 0 min 0 W/m² -1,9 °C -0,2 °C 6,4 km/h (2 Bft)
09.01.2021 01:14 23,7 °C -0,1 °C 47 % 88 % 1017,3 hPa 0,0 l/m² 5,3 km/h (1 Bft) W-SW 255 ° 0 min 0 W/m² -1,8 °C -0,1 °C 6,4 km/h (2 Bft)
09.01.2021 01:15 23,7 °C -0,2 °C 47 % 88 % 1017,3 hPa 0,0 l/m² 4,6 km/h (1 Bft) W-SW 255 ° 0 min 0 W/m² -1,9 °C -0,2 °C 4,8 km/h (1 Bft)
09.01.2021 01:17 23,7 °C -0,2 °C 47 % 88 % 1017,3 hPa 0,0 l/m² 4,1 km/h (1 Bft) W-SW 255 ° 0 min 0 W/m² -1,9 °C -0,2 °C 4,8 km/h (1 Bft)
09.01.2021 01:19 23,7 °C -0,2 °C 47 % 88 % 1017,4 hPa 0,0 l/m² 5,3 km/h (1 Bft) W 262 ° 0 min 0 W/m² -1,9 °C -0,2 °C 6,4 km/h (2 Bft)
09.01.2021 01:21 23,7 °C -0,2 °C 47 % 88 % 1017,4 hPa 0,0 l/m² 4,8 km/h (1 Bft) W 262 ° 0 min 0 W/m² -1,9 °C -0,2 °C 6,4 km/h (2 Bft)
09.01.2021 01:24 23,7 °C -0,2 °C 47 % 88 % 1017,4 hPa 0,0 l/m² 5,1 km/h (1 Bft) W-SW 248 ° 0 min 0 W/m² -1,9 °C -0,2 °C 6,4 km/h (2 Bft)
09.01.2021 01:25 23,7 °C -0,2 °C 47 % 88 % 1017,4 hPa 0,0 l/m² 5,1 km/h (1 Bft) W-SW 252 ° 0 min 0 W/m² -1,9 °C -0,2 °C 6,4 km/h (2 Bft)
09.01.2021 01:27 23,7 °C -0,3 °C 47 % 88 % 1017,4 hPa 0,0 l/m² 5,5 km/h (2 Bft) W-SW 244 ° 0 min 0 W/m² -2,0 °C -0,3 °C 6,4 km/h (2 Bft)
09.01.2021 01:29 23,7 °C -0,3 °C 47 % 88 % 1017,4 hPa 0,0 l/m² 5,5 km/h (2 Bft) W-SW 246 ° 0 min 0 W/m² -2,0 °C -0,3 °C 6,4 km/h (2 Bft)
09.01.2021 01:32 23,7 °C -0,3 °C 47 % 88 % 1017,5 hPa 0,0 l/m² 5,8 km/h (2 Bft) W-SW 258 ° 0 min 0 W/m² -2,0 °C -0,3 °C 9,7 km/h (2 Bft)
09.01.2021 01:33 23,7 °C -0,3 °C 47 % 88 % 1017,5 hPa 0,0 l/m² 6,5 km/h (2 Bft) W-SW 252 ° 0 min 0 W/m² -2,0 °C -0,4 °C 8,0 km/h (2 Bft)
09.01.2021 01:34 23,7 °C -0,3 °C 47 % 88 % 1017,4 hPa 0,0 l/m² 7,5 km/h (2 Bft) W-SW 252 ° 0 min 0 W/m² -2,0 °C -1,5 °C 11,3 km/h (2 Bft)
09.01.2021 01:35 23,7 °C -0,3 °C 47 % 88 % 1017,4 hPa 0,0 l/m² 7,1 km/h (2 Bft) W-SW 244 ° 0 min 0 W/m² -2,0 °C -1,0 °C 8,0 km/h (2 Bft)
09.01.2021 01:37 23,7 °C -0,4 °C 47 % 88 % 1017,5 hPa 0,0 l/m² 6,1 km/h (2 Bft) W-SW 252 ° 0 min 0 W/m² -2,1 °C -0,4 °C 8,0 km/h (2 Bft)
09.01.2021 01:39 23,7 °C -0,4 °C 47 % 89 % 1017,5 hPa 0,0 l/m² 6,3 km/h (2 Bft) W-SW 243 ° 0 min 0 W/m² -2,0 °C -0,4 °C 8,0 km/h (2 Bft)
09.01.2021 01:42 23,7 °C -0,4 °C 47 % 88 % 1017,6 hPa 0,0 l/m² 6,3 km/h (2 Bft) W-SW 238 ° 0 min 0 W/m² -2,1 °C -0,4 °C 8,0 km/h (2 Bft)
09.01.2021 01:43 23,7 °C -0,4 °C 47 % 89 % 1017,6 hPa 0,0 l/m² 5,3 km/h (1 Bft) W-SW 244 ° 0 min 0 W/m² -2,0 °C -0,4 °C 6,4 km/h (2 Bft)
09.01.2021 01:44 23,7 °C -0,4 °C 47 % 89 % 1017,6 hPa 0,0 l/m² 6,6 km/h (2 Bft) W-SW 244 ° 0 min 0 W/m² -2,0 °C -0,6 °C 11,3 km/h (2 Bft)
09.01.2021 01:45 23,7 °C -0,4 °C 47 % 89 % 1017,6 hPa 0,0 l/m² 7,0 km/h (2 Bft) W-SW 244 ° 0 min 0 W/m² -2,0 °C -1,0 °C 8,0 km/h (2 Bft)
09.01.2021 01:47 23,7 °C -0,4 °C 47 % 89 % 1017,6 hPa 0,0 l/m² 6,3 km/h (2 Bft) W-SW 242 ° 0 min 0 W/m² -2,0 °C -0,4 °C 8,0 km/h (2 Bft)
09.01.2021 01:49 23,7 °C -0,4 °C 47 % 89 % 1017,6 hPa 0,0 l/m² 6,6 km/h (2 Bft) W-SW 242 ° 0 min 0 W/m² -2,0 °C -0,6 °C 8,0 km/h (2 Bft)
09.01.2021 01:52 23,7 °C -0,4 °C 47 % 89 % 1017,6 hPa 0,0 l/m² 6,2 km/h (2 Bft) W-SW 242 ° 0 min 0 W/m² -2,0 °C -0,4 °C 8,0 km/h (2 Bft)
09.01.2021 01:53 23,7 °C -0,4 °C 47 % 89 % 1017,6 hPa 0,0 l/m² 5,8 km/h (2 Bft) W-SW 244 ° 0 min 0 W/m² -2,0 °C -0,4 °C 6,4 km/h (2 Bft)
09.01.2021 01:54 23,7 °C -0,4 °C 47 % 89 % 1017,6 hPa 0,0 l/m² 5,6 km/h (2 Bft) W-SW 251 ° 0 min 0 W/m² -2,0 °C -0,4 °C 6,4 km/h (2 Bft)
09.01.2021 01:55 23,7 °C -0,4 °C 47 % 89 % 1017,6 hPa 0,0 l/m² 6,2 km/h (2 Bft) W-SW 251 ° 0 min 0 W/m² -2,0 °C -0,4 °C 8,0 km/h (2 Bft)
09.01.2021 01:57 23,7 °C -0,4 °C 47 % 89 % 1017,7 hPa 0,0 l/m² 5,8 km/h (2 Bft) W-SW 248 ° 0 min 0 W/m² -2,0 °C -0,4 °C 8,0 km/h (2 Bft)
09.01.2021 01:59 23,7 °C -0,4 °C 47 % 89 % 1017,7 hPa 0,0 l/m² 5,2 km/h (1 Bft) W-SW 246 ° 0 min 0 W/m² -2,0 °C -0,4 °C 6,4 km/h (2 Bft)
09.01.2021 02:02 23,7 °C -0,3 °C 47 % 89 % 1017,6 hPa 0,0 l/m² 5,8 km/h (2 Bft) W-SW 242 ° 0 min 0 W/m² -1,9 °C -0,3 °C 8,0 km/h (2 Bft)
09.01.2021 02:03 23,7 °C -0,3 °C 47 % 89 % 1017,7 hPa 0,0 l/m² 5,4 km/h (2 Bft) W-SW 245 ° 0 min 0 W/m² -1,9 °C -0,3 °C 8,0 km/h (2 Bft)
09.01.2021 02:04 23,7 °C -0,3 °C 47 % 89 % 1017,7 hPa 0,0 l/m² 6,2 km/h (2 Bft) W-SW 246 ° 0 min 0 W/m² -1,9 °C -0,3 °C 8,0 km/h (2 Bft)
09.01.2021 02:05 23,7 °C -0,3 °C 47 % 89 % 1017,7 hPa 0,0 l/m² 6,8 km/h (2 Bft) W-SW 240 ° 0 min 0 W/m² -1,9 °C -0,7 °C 11,3 km/h (2 Bft)
09.01.2021 02:07 23,7 °C -0,3 °C 47 % 89 % 1017,7 hPa 0,0 l/m² 6,0 km/h (2 Bft) W-SW 246 ° 0 min 0 W/m² -1,9 °C -0,3 °C 8,0 km/h (2 Bft)
09.01.2021 02:09 23,7 °C -0,3 °C 47 % 89 % 1017,7 hPa 0,0 l/m² 5,9 km/h (2 Bft) W-SW 248 ° 0 min 0 W/m² -1,9 °C -0,3 °C 8,0 km/h (2 Bft)
09.01.2021 02:11 23,7 °C -0,3 °C 47 % 89 % 1017,8 hPa 0,0 l/m² 5,9 km/h (2 Bft) W-SW 252 ° 0 min 0 W/m² -1,9 °C -0,3 °C 8,0 km/h (2 Bft)
09.01.2021 02:14 23,7 °C -0,3 °C 47 % 89 % 1017,8 hPa 0,0 l/m² 6,0 km/h (2 Bft) W-SW 248 ° 0 min 0 W/m² -1,9 °C -0,3 °C 8,0 km/h (2 Bft)
09.01.2021 02:16 23,7 °C -0,2 °C 47 % 89 % 1017,7 hPa 0,0 l/m² 7,4 km/h (2 Bft) W-SW 250 ° 0 min 0 W/m² -1,8 °C -1,2 °C 11,3 km/h (2 Bft)
09.01.2021 02:18 23,7 °C -0,2 °C 47 % 89 % 1017,8 hPa 0,0 l/m² 7,3 km/h (2 Bft) W-SW 250 ° 0 min 0 W/m² -1,8 °C -1,1 °C 8,0 km/h (2 Bft)
09.01.2021 02:20 23,7 °C -0,2 °C 47 % 89 % 1017,8 hPa 0,0 l/m² 7,0 km/h (2 Bft) W-SW 246 ° 0 min 0 W/m² -1,8 °C -0,8 °C 11,3 km/h (2 Bft)
09.01.2021 02:23 23,7 °C -0,2 °C 47 % 89 % 1017,9 hPa 0,0 l/m² 7,7 km/h (2 Bft) W-SW 248 ° 0 min 0 W/m² -1,8 °C -1,6 °C 11,3 km/h (2 Bft)
09.01.2021 02:24 23,7 °C -0,2 °C 47 % 89 % 1017,8 hPa 0,0 l/m² 6,3 km/h (2 Bft) W-SW 255 ° 0 min 0 W/m² -1,8 °C -0,2 °C 8,0 km/h (2 Bft)
09.01.2021 02:25 23,7 °C -0,2 °C 47 % 89 % 1017,8 hPa 0,0 l/m² 8,2 km/h (2 Bft) W-SW 257 ° 0 min 0 W/m² -1,8 °C -2,1 °C 11,3 km/h (2 Bft)
09.01.2021 02:26 23,7 °C -0,2 °C 47 % 89 % 1017,8 hPa 0,0 l/m² 6,7 km/h (2 Bft) W-SW 257 ° 0 min 0 W/m² -1,8 °C -0,5 °C 9,7 km/h (2 Bft)
09.01.2021 02:28 23,7 °C -0,2 °C 47 % 89 % 1017,9 hPa 0,0 l/m² 7,0 km/h (2 Bft) W-SW 248 ° 0 min 0 W/m² -1,8 °C -0,8 °C 11,3 km/h (2 Bft)
09.01.2021 02:30 23,7 °C -0,2 °C 47 % 89 % 1017,8 hPa 0,0 l/m² 6,8 km/h (2 Bft) W-SW 247 ° 0 min 0 W/m² -1,8 °C -0,6 °C 8,0 km/h (2 Bft)
09.01.2021 02:33 23,7 °C -0,1 °C 47 % 89 % 1017,8 hPa 0,0 l/m² 6,5 km/h (2 Bft) W-SW 248 ° 0 min 0 W/m² -1,7 °C -0,2 °C 11,3 km/h (2 Bft)
09.01.2021 02:34 23,7 °C -0,2 °C 47 % 89 % 1017,9 hPa 0,0 l/m² 5,0 km/h (1 Bft) W-SW 248 ° 0 min 0 W/m² -1,8 °C -0,2 °C 6,4 km/h (2 Bft)
09.01.2021 02:35 23,7 °C -0,2 °C 47 % 89 % 1017,9 hPa 0,0 l/m² 5,6 km/h (2 Bft) W-SW 248 ° 0 min 0 W/m² -1,8 °C -0,2 °C 6,4 km/h (2 Bft)
09.01.2021 02:36 23,7 °C -0,2 °C 47 % 89 % 1017,9 hPa 0,0 l/m² 4,9 km/h (1 Bft) W-SW 248 ° 0 min 0 W/m² -1,8 °C -0,2 °C 6,4 km/h (2 Bft)
09.01.2021 02:38 23,7 °C -0,2 °C 47 % 89 % 1017,9 hPa 0,0 l/m² 5,6 km/h (2 Bft) W-SW 254 ° 0 min 0 W/m² -1,8 °C -0,2 °C 6,4 km/h (2 Bft)
09.01.2021 02:40 23,7 °C -0,2 °C 47 % 89 % 1017,8 hPa 0,0 l/m² 5,1 km/h (1 Bft) W-SW 244 ° 0 min 0 W/m² -1,8 °C -0,2 °C 8,0 km/h (2 Bft)
09.01.2021 02:43 23,7 °C -0,2 °C 47 % 89 % 1017,9 hPa 0,0 l/m² 5,2 km/h (1 Bft) W-SW 245 ° 0 min 0 W/m² -1,8 °C -0,2 °C 6,4 km/h (2 Bft)
09.01.2021 02:44 23,7 °C -0,2 °C 47 % 89 % 1017,9 hPa 0,0 l/m² 5,6 km/h (2 Bft) W-SW 244 ° 0 min 0 W/m² -1,8 °C -0,2 °C 6,4 km/h (2 Bft)
09.01.2021 02:45 23,7 °C -0,2 °C 47 % 89 % 1017,9 hPa 0,0 l/m² 5,3 km/h (1 Bft) W-SW 244 ° 0 min 0 W/m² -1,8 °C -0,2 °C 6,4 km/h (2 Bft)
09.01.2021 02:46 23,7 °C -0,2 °C 47 % 89 % 1017,8 hPa 0,0 l/m² 4,9 km/h (1 Bft) W-SW 238 ° 0 min 0 W/m² -1,8 °C -0,2 °C 6,4 km/h (2 Bft)
09.01.2021 02:48 23,7 °C -0,2 °C 47 % 89 % 1017,9 hPa 0,0 l/m² 4,5 km/h (1 Bft) W-SW 241 ° 0 min 0 W/m² -1,8 °C -0,2 °C 6,4 km/h (2 Bft)
09.01.2021 02:50 23,7 °C -0,2 °C 47 % 89 % 1017,9 hPa 0,0 l/m² 5,4 km/h (2 Bft) W-SW 242 ° 0 min 0 W/m² -1,8 °C -0,2 °C 6,4 km/h (2 Bft)
09.01.2021 02:53 23,7 °C -0,2 °C 47 % 89 % 1017,8 hPa 0,0 l/m² 4,6 km/h (1 Bft) W-SW 243 ° 0 min 0 W/m² -1,8 °C -0,2 °C 6,4 km/h (2 Bft)
09.01.2021 02:55 23,7 °C -0,2 °C 47 % 89 % 1017,8 hPa 0,0 l/m² 4,7 km/h (1 Bft) W-SW 248 ° 0 min 0 W/m² -1,8 °C -0,2 °C 6,4 km/h (2 Bft)
09.01.2021 02:57 23,7 °C -0,2 °C 47 % 90 % 1017,9 hPa 0,0 l/m² 4,5 km/h (1 Bft) W-SW 244 ° 0 min 0 W/m² -1,6 °C -0,2 °C 6,4 km/h (2 Bft)
09.01.2021 02:59 23,7 °C -0,2 °C 47 % 90 % 1017,9 hPa 0,0 l/m² 4,5 km/h (1 Bft) W-SW 243 ° 0 min 0 W/m² -1,6 °C -0,2 °C 6,4 km/h (2 Bft)
09.01.2021 03:00 23,7 °C -0,2 °C 47 % 90 % 1017,9 hPa 0,0 l/m² 4,8 km/h (1 Bft) W-SW 247 ° 0 min 0 W/m² -1,6 °C -0,2 °C 6,4 km/h (2 Bft)
09.01.2021 03:01 23,6 °C -0,2 °C 47 % 90 % 1017,8 hPa 0,0 l/m² 4,8 km/h (1 Bft) W-SW 247 ° 0 min 0 W/m² -1,6 °C -0,2 °C 6,4 km/h (2 Bft)
09.01.2021 03:06 23,6 °C -0,3 °C 47 % 90 % 1017,9 hPa 0,0 l/m² 4,4 km/h (1 Bft) W-SW 242 ° 0 min 0 W/m² -1,7 °C -0,3 °C 6,4 km/h (2 Bft)
09.01.2021 03:08 23,6 °C -0,3 °C 47 % 90 % 1017,9 hPa 0,0 l/m² 5,3 km/h (1 Bft) SW 230 ° 0 min 0 W/m² -1,7 °C -0,3 °C 6,4 km/h (2 Bft)
09.01.2021 03:09 23,6 °C -0,3 °C 47 % 90 % 1017,9 hPa 0,0 l/m² 5,6 km/h (2 Bft) SW 230 ° 0 min 0 W/m² -1,7 °C -0,3 °C 6,4 km/h (2 Bft)
09.01.2021 03:11 23,6 °C -0,3 °C 47 % 90 % 1017,8 hPa 0,0 l/m² 4,7 km/h (1 Bft) SW 232 ° 0 min 0 W/m² -1,7 °C -0,3 °C 6,4 km/h (2 Bft)
09.01.2021 03:12 23,6 °C -0,3 °C 47 % 90 % 1017,9 hPa 0,0 l/m² 4,4 km/h (1 Bft) SW 232 ° 0 min 0 W/m² -1,7 °C -0,3 °C 6,4 km/h (2 Bft)
09.01.2021 03:14 23,6 °C -0,3 °C 47 % 90 % 1018,0 hPa 0,0 l/m² 4,6 km/h (1 Bft) SW 232 ° 0 min 0 W/m² -1,7 °C -0,3 °C 6,4 km/h (2 Bft)
09.01.2021 03:15 23,6 °C -0,3 °C 47 % 90 % 1018,0 hPa 0,0 l/m² 4,8 km/h (1 Bft) SW 225 ° 0 min 0 W/m² -1,7 °C -0,3 °C 8,0 km/h (2 Bft)
09.01.2021 03:16 23,6 °C -0,3 °C 47 % 90 % 1017,9 hPa 0,0 l/m² 6,4 km/h (2 Bft) SW 225 ° 0 min 0 W/m² -1,7 °C -0,3 °C 8,0 km/h (2 Bft)
09.01.2021 03:21 23,6 °C -0,3 °C 47 % 90 % 1017,9 hPa 0,0 l/m² 6,3 km/h (2 Bft) SW 228 ° 0 min 0 W/m² -1,7 °C -0,3 °C 6,4 km/h (2 Bft)
09.01.2021 03:23 23,6 °C -0,3 °C 47 % 90 % 1017,9 hPa 0,0 l/m² 5,4 km/h (2 Bft) SW 227 ° 0 min 0 W/m² -1,7 °C -0,3 °C 8,0 km/h (2 Bft)
09.01.2021 03:24 23,6 °C -0,3 °C 47 % 90 % 1017,9 hPa 0,0 l/m² 6,4 km/h (2 Bft) S-SW 213 ° 0 min 0 W/m² -1,7 °C -0,3 °C 8,0 km/h (2 Bft)
09.01.2021 03:26 23,6 °C -0,3 °C 47 % 91 % 1018,0 hPa 0,0 l/m² 6,0 km/h (2 Bft) SW 236 ° 0 min 0 W/m² -1,6 °C -0,3 °C 8,0 km/h (2 Bft)
09.01.2021 03:28 23,6 °C -0,3 °C 47 % 91 % 1017,9 hPa 0,0 l/m² 5,6 km/h (2 Bft) SW 234 ° 0 min 0 W/m² -1,6 °C -0,3 °C 8,0 km/h (2 Bft)
09.01.2021 03:29 23,6 °C -0,3 °C 47 % 91 % 1018,0 hPa 0,0 l/m² 6,7 km/h (2 Bft) SW 226 ° 0 min 0 W/m² -1,6 °C -0,6 °C 8,0 km/h (2 Bft)
09.01.2021 03:30 23,6 °C -0,3 °C 47 % 91 % 1017,9 hPa 0,0 l/m² 5,2 km/h (1 Bft) SW 226 ° 0 min 0 W/m² -1,6 °C -0,3 °C 8,0 km/h (2 Bft)
09.01.2021 03:32 23,6 °C -0,3 °C 46 % 91 % 1018,0 hPa 0,0 l/m² 5,5 km/h (2 Bft) SW 229 ° 0 min 0 W/m² -1,6 °C -0,3 °C 8,0 km/h (2 Bft)
09.01.2021 03:33 23,6 °C -0,3 °C 46 % 91 % 1018,0 hPa 0,0 l/m² 3,9 km/h (1 Bft) SW 229 ° 0 min 0 W/m² -1,6 °C -0,3 °C 6,4 km/h (2 Bft)
09.01.2021 03:35 23,6 °C -0,3 °C 47 % 91 % 1018,0 hPa 0,0 l/m² 4,9 km/h (1 Bft) SW 229 ° 0 min 0 W/m² -1,6 °C -0,3 °C 8,0 km/h (2 Bft)
09.01.2021 03:36 23,6 °C -0,3 °C 47 % 91 % 1018,0 hPa 0,0 l/m² 5,0 km/h (1 Bft) SW 233 ° 0 min 0 W/m² -1,6 °C -0,3 °C 6,4 km/h (2 Bft)
09.01.2021 03:38 23,6 °C -0,3 °C 47 % 91 % 1018,0 hPa 0,0 l/m² 7,2 km/h (2 Bft) SW 236 ° 0 min 0 W/m² -1,6 °C -1,1 °C 9,7 km/h (2 Bft)
09.01.2021 03:39 23,6 °C -0,3 °C 47 % 91 % 1018,0 hPa 0,0 l/m² 6,9 km/h (2 Bft) SW 236 ° 0 min 0 W/m² -1,6 °C -0,8 °C 8,0 km/h (2 Bft)
09.01.2021 03:40 23,6 °C -0,3 °C 47 % 91 % 1018,0 hPa 0,0 l/m² 5,0 km/h (1 Bft) SW 232 ° 0 min 0 W/m² -1,6 °C -0,3 °C 8,0 km/h (2 Bft)
09.01.2021 03:42 23,6 °C -0,3 °C 46 % 91 % 1018,1 hPa 0,0 l/m² 4,9 km/h (1 Bft) SW 225 ° 0 min 0 W/m² -1,6 °C -0,3 °C 8,0 km/h (2 Bft)
09.01.2021 03:43 23,6 °C -0,3 °C 47 % 91 % 1018,1 hPa 0,0 l/m² 4,9 km/h (1 Bft) W-SW 244 ° 0 min 0 W/m² -1,6 °C -0,3 °C 6,4 km/h (2 Bft)
09.01.2021 03:45 23,6 °C -0,3 °C 47 % 91 % 1018,1 hPa 0,0 l/m² 5,3 km/h (1 Bft) SW 235 ° 0 min 0 W/m² -1,6 °C -0,3 °C 8,0 km/h (2 Bft)
09.01.2021 03:46 23,6 °C -0,3 °C 47 % 91 % 1018,0 hPa 0,0 l/m² 5,5 km/h (2 Bft) W-SW 250 ° 0 min 0 W/m² -1,6 °C -0,3 °C 8,0 km/h (2 Bft)
09.01.2021 03:47 23,6 °C -0,3 °C 46 % 91 % 1018,1 hPa 0,0 l/m² 6,1 km/h (2 Bft) W-SW 243 ° 0 min 0 W/m² -1,6 °C -0,3 °C 8,0 km/h (2 Bft)
09.01.2021 03:48 23,6 °C -0,3 °C 47 % 91 % 1018,0 hPa 0,0 l/m² 5,8 km/h (2 Bft) W-SW 245 ° 0 min 0 W/m² -1,6 °C -0,3 °C 8,0 km/h (2 Bft)
09.01.2021 03:50 23,6 °C -0,3 °C 47 % 91 % 1018,0 hPa 0,0 l/m² 5,7 km/h (2 Bft) W-SW 242 ° 0 min 0 W/m² -1,6 °C -0,3 °C 8,0 km/h (2 Bft)
09.01.2021 03:51 23,6 °C -0,3 °C 47 % 91 % 1018,0 hPa 0,0 l/m² 4,4 km/h (1 Bft) W-SW 253 ° 0 min 0 W/m² -1,6 °C -0,3 °C 6,4 km/h (2 Bft)
09.01.2021 03:53 23,6 °C -0,3 °C 47 % 91 % 1018,0 hPa 0,0 l/m² 5,1 km/h (1 Bft) W-SW 249 ° 0 min 0 W/m² -1,6 °C -0,3 °C 6,4 km/h (2 Bft)
09.01.2021 03:54 23,6 °C -0,3 °C 47 % 91 % 1018,0 hPa 0,0 l/m² 4,4 km/h (1 Bft) W-SW 243 ° 0 min 0 W/m² -1,6 °C -0,3 °C 6,4 km/h (2 Bft)
09.01.2021 03:56 23,6 °C -0,3 °C 46 % 91 % 1018,1 hPa 0,0 l/m² 5,0 km/h (1 Bft) W-SW 247 ° 0 min 0 W/m² -1,6 °C -0,3 °C 9,7 km/h (2 Bft)
09.01.2021 03:58 23,6 °C -0,3 °C 47 % 91 % 1018,1 hPa 0,0 l/m² 4,7 km/h (1 Bft) W-SW 248 ° 0 min 0 W/m² -1,6 °C -0,3 °C 6,4 km/h (2 Bft)
09.01.2021 03:59 23,6 °C -0,3 °C 46 % 91 % 1018,1 hPa 0,0 l/m² 4,8 km/h (1 Bft) W-SW 248 ° 0 min 0 W/m² -1,6 °C -0,3 °C 6,4 km/h (2 Bft)
09.01.2021 04:01 23,6 °C -0,3 °C 47 % 91 % 1018,1 hPa 0,0 l/m² 4,8 km/h (1 Bft) W-SW 243 ° 0 min 0 W/m² -1,6 °C -0,3 °C 6,4 km/h (2 Bft)
09.01.2021 04:02 23,6 °C -0,3 °C 47 % 91 % 1018,2 hPa 0,0 l/m² 4,3 km/h (1 Bft) W-SW 244 ° 0 min 0 W/m² -1,6 °C -0,3 °C 4,8 km/h (1 Bft)
09.01.2021 04:03 23,6 °C -0,3 °C 47 % 91 % 1018,2 hPa 0,0 l/m² 3,8 km/h (1 Bft) W-SW 244 ° 0 min 0 W/m² -1,6 °C -0,3 °C 4,8 km/h (1 Bft)
09.01.2021 04:04 23,6 °C -0,3 °C 46 % 91 % 1018,1 hPa 0,0 l/m² 3,6 km/h (1 Bft) W-SW 244 ° 0 min 0 W/m² -1,6 °C -0,3 °C 4,8 km/h (1 Bft)
09.01.2021 04:05 23,6 °C -0,3 °C 47 % 91 % 1018,2 hPa 0,0 l/m² 4,1 km/h (1 Bft) W-SW 246 ° 0 min 0 W/m² -1,6 °C -0,3 °C 4,8 km/h (1 Bft)
09.01.2021 04:07 23,6 °C -0,3 °C 47 % 91 % 1018,1 hPa 0,0 l/m² 3,7 km/h (1 Bft) W-SW 246 ° 0 min 0 W/m² -1,6 °C -0,3 °C 4,8 km/h (1 Bft)
09.01.2021 04:08 23,6 °C -0,3 °C 47 % 91 % 1018,2 hPa 0,0 l/m² 3,6 km/h (1 Bft) W-SW 246 ° 0 min 0 W/m² -1,6 °C -0,3 °C 4,8 km/h (1 Bft)
09.01.2021 04:10 23,6 °C -0,3 °C 47 % 91 % 1018,3 hPa 0,0 l/m² 3,8 km/h (1 Bft) W-SW 246 ° 0 min 0 W/m² -1,6 °C -0,3 °C 4,8 km/h (1 Bft)
09.01.2021 04:11 23,6 °C -0,3 °C 46 % 92 % 1018,3 hPa 0,0 l/m² 3,8 km/h (1 Bft) W-SW 246 ° 0 min 0 W/m² -1,4 °C -0,3 °C 4,8 km/h (1 Bft)
09.01.2021 04:13 23,6 °C -0,3 °C 46 % 92 % 1018,3 hPa 0,0 l/m² 3,1 km/h (1 Bft) W-SW 246 ° 0 min 0 W/m² -1,4 °C -0,3 °C 4,8 km/h (1 Bft)
09.01.2021 04:14 23,6 °C -0,3 °C 46 % 92 % 1018,3 hPa 0,0 l/m² 4,0 km/h (1 Bft) W-SW 246 ° 0 min 0 W/m² -1,4 °C -0,3 °C 4,8 km/h (1 Bft)
09.01.2021 04:15 23,6 °C -0,3 °C 47 % 92 % 1018,4 hPa 0,0 l/m² 4,9 km/h (1 Bft) W-SW 247 ° 0 min 0 W/m² -1,4 °C -0,3 °C 6,4 km/h (2 Bft)
09.01.2021 04:17 23,6 °C -0,3 °C 46 % 92 % 1018,3 hPa 0,0 l/m² 5,2 km/h (1 Bft) W-SW 243 ° 0 min 0 W/m² -1,4 °C -0,3 °C 6,4 km/h (2 Bft)
09.01.2021 04:19 23,6 °C -0,3 °C 46 % 92 % 1018,3 hPa 0,0 l/m² 5,4 km/h (2 Bft) W-SW 249 ° 0 min 0 W/m² -1,4 °C -0,3 °C 8,0 km/h (2 Bft)
09.01.2021 04:21 23,6 °C -0,3 °C 46 % 92 % 1018,3 hPa 0,0 l/m² 4,7 km/h (1 Bft) W-SW 248 ° 0 min 0 W/m² -1,4 °C -0,3 °C 6,4 km/h (2 Bft)
09.01.2021 04:22 23,6 °C -0,3 °C 46 % 92 % 1018,3 hPa 0,0 l/m² 4,9 km/h (1 Bft) W-SW 247 ° 0 min 0 W/m² -1,4 °C -0,3 °C 8,0 km/h (2 Bft)
09.01.2021 04:23 23,6 °C -0,3 °C 46 % 92 % 1018,4 hPa 0,0 l/m² 3,0 km/h (1 Bft) W-SW 248 ° 0 min 0 W/m² -1,4 °C -0,3 °C 4,8 km/h (1 Bft)
09.01.2021 04:24 23,6 °C -0,3 °C 46 % 92 % 1018,4 hPa 0,0 l/m² 4,7 km/h (1 Bft) W-SW 248 ° 0 min 0 W/m² -1,4 °C -0,3 °C 6,4 km/h (2 Bft)
09.01.2021 04:25 23,6 °C -0,3 °C 46 % 92 % 1018,3 hPa 0,0 l/m² 5,0 km/h (1 Bft) W-SW 251 ° 0 min 0 W/m² -1,4 °C -0,3 °C 8,0 km/h (2 Bft)
09.01.2021 04:26 23,6 °C -0,3 °C 46 % 92 % 1018,3 hPa 0,0 l/m² 5,7 km/h (2 Bft) W-SW 246 ° 0 min 0 W/m² -1,4 °C -0,3 °C 8,0 km/h (2 Bft)
09.01.2021 04:28 23,6 °C -0,3 °C 46 % 92 % 1018,3 hPa 0,0 l/m² 5,3 km/h (1 Bft) W-SW 249 ° 0 min 0 W/m² -1,4 °C -0,3 °C 8,0 km/h (2 Bft)
09.01.2021 04:29 23,6 °C -0,3 °C 46 % 92 % 1018,3 hPa 0,0 l/m² 5,2 km/h (1 Bft) W-SW 249 ° 0 min 0 W/m² -1,4 °C -0,3 °C 6,4 km/h (2 Bft)
09.01.2021 04:30 23,6 °C -0,3 °C 46 % 92 % 1018,3 hPa 0,0 l/m² 4,4 km/h (1 Bft) W-SW 250 ° 0 min 0 W/m² -1,4 °C -0,3 °C 6,4 km/h (2 Bft)
09.01.2021 04:32 23,6 °C -0,3 °C 46 % 92 % 1018,3 hPa 0,0 l/m² 4,7 km/h (1 Bft) W-SW 250 ° 0 min 0 W/m² -1,4 °C -0,3 °C 6,4 km/h (2 Bft)
09.01.2021 04:33 23,6 °C -0,3 °C 46 % 92 % 1018,3 hPa 0,0 l/m² 4,6 km/h (1 Bft) W-SW 250 ° 0 min 0 W/m² -1,4 °C -0,3 °C 6,4 km/h (2 Bft)
09.01.2021 04:35 23,6 °C -0,3 °C 46 % 92 % 1018,3 hPa 0,0 l/m² 4,6 km/h (1 Bft) W-SW 252 ° 0 min 0 W/m² -1,4 °C -0,3 °C 6,4 km/h (2 Bft)
09.01.2021 04:36 23,6 °C -0,3 °C 46 % 92 % 1018,3 hPa 0,0 l/m² 4,8 km/h (1 Bft) W-SW 244 ° 0 min 0 W/m² -1,4 °C -0,3 °C 6,4 km/h (2 Bft)
09.01.2021 04:38 23,6 °C -0,3 °C 46 % 92 % 1018,3 hPa 0,0 l/m² 4,7 km/h (1 Bft) W-SW 245 ° 0 min 0 W/m² -1,4 °C -0,3 °C 8,0 km/h (2 Bft)
09.01.2021 04:39 23,6 °C -0,3 °C 46 % 92 % 1018,3 hPa 0,0 l/m² 5,6 km/h (2 Bft) W-SW 245 ° 0 min 0 W/m² -1,4 °C -0,3 °C 6,4 km/h (2 Bft)
09.01.2021 04:40 23,6 °C -0,3 °C 46 % 92 % 1018,4 hPa 0,0 l/m² 5,6 km/h (2 Bft) W-SW 247 ° 0 min 0 W/m² -1,4 °C -0,3 °C 6,4 km/h (2 Bft)
09.01.2021 04:42 23,6 °C -0,3 °C 46 % 92 % 1018,4 hPa 0,0 l/m² 6,1 km/h (2 Bft) W-SW 246 ° 0 min 0 W/m² -1,4 °C -0,3 °C 8,0 km/h (2 Bft)
09.01.2021 04:43 23,6 °C -0,3 °C 46 % 92 % 1018,3 hPa 0,0 l/m² 4,9 km/h (1 Bft) W-SW 238 ° 0 min 0 W/m² -1,4 °C -0,3 °C 6,4 km/h (2 Bft)
09.01.2021 04:45 23,6 °C -0,3 °C 46 % 92 % 1018,3 hPa 0,0 l/m² 5,0 km/h (1 Bft) W-SW 246 ° 0 min 0 W/m² -1,4 °C -0,3 °C 8,0 km/h (2 Bft)
09.01.2021 04:46 23,6 °C -0,3 °C 46 % 92 % 1018,4 hPa 0,0 l/m² 5,2 km/h (1 Bft) W-SW 246 ° 0 min 0 W/m² -1,4 °C -0,3 °C 6,4 km/h (2 Bft)
09.01.2021 04:48 23,6 °C -0,3 °C 46 % 92 % 1018,4 hPa 0,0 l/m² 5,5 km/h (2 Bft) W-SW 252 ° 0 min 0 W/m² -1,4 °C -0,3 °C 8,0 km/h (2 Bft)
09.01.2021 04:49 23,6 °C -0,3 °C 46 % 92 % 1018,3 hPa 0,0 l/m² 6,0 km/h (2 Bft) W-SW 247 ° 0 min 0 W/m² -1,4 °C -0,3 °C 8,0 km/h (2 Bft)
09.01.2021 04:50 23,6 °C -0,3 °C 46 % 92 % 1018,3 hPa 0,0 l/m² 5,4 km/h (2 Bft) W-SW 243 ° 0 min 0 W/m² -1,4 °C -0,3 °C 6,4 km/h (2 Bft)
09.01.2021 04:52 23,6 °C -0,3 °C 46 % 92 % 1018,3 hPa 0,0 l/m² 6,4 km/h (2 Bft) W-SW 254 ° 0 min 0 W/m² -1,4 °C -0,3 °C 8,0 km/h (2 Bft)
09.01.2021 04:53 23,6 °C -0,3 °C 46 % 92 % 1018,3 hPa 0,0 l/m² 5,2 km/h (1 Bft) W-SW 245 ° 0 min 0 W/m² -1,4 °C -0,3 °C 6,4 km/h (2 Bft)
09.01.2021 04:55 23,6 °C -0,3 °C 46 % 92 % 1018,4 hPa 0,0 l/m² 5,7 km/h (2 Bft) W-SW 248 ° 0 min 0 W/m² -1,4 °C -0,3 °C 8,0 km/h (2 Bft)
09.01.2021 04:56 23,6 °C -0,3 °C 46 % 92 % 1018,4 hPa 0,0 l/m² 5,0 km/h (1 Bft) W-SW 248 ° 0 min 0 W/m² -1,4 °C -0,3 °C 6,4 km/h (2 Bft)
09.01.2021 04:58 23,6 °C -0,3 °C 46 % 92 % 1018,4 hPa 0,0 l/m² 4,8 km/h (1 Bft) W-SW 248 ° 0 min 0 W/m² -1,4 °C -0,3 °C 6,4 km/h (2 Bft)
09.01.2021 05:00 23,6 °C -0,3 °C 46 % 92 % 1018,4 hPa 0,0 l/m² 4,9 km/h (1 Bft) W-SW 248 ° 0 min 0 W/m² -1,4 °C -0,3 °C 6,4 km/h (2 Bft)
09.01.2021 05:01 23,6 °C -0,3 °C 46 % 92 % 1018,3 hPa 0,0 l/m² 4,9 km/h (1 Bft) W-SW 248 ° 0 min 0 W/m² -1,4 °C -0,3 °C 6,4 km/h (2 Bft)
09.01.2021 05:03 23,6 °C -0,3 °C 46 % 92 % 1018,3 hPa 0,0 l/m² 4,9 km/h (1 Bft) W-SW 246 ° 0 min 0 W/m² -1,4 °C -0,3 °C 6,4 km/h (2 Bft)
09.01.2021 05:04 23,6 °C -0,3 °C 46 % 92 % 1018,3 hPa 0,0 l/m² 4,6 km/h (1 Bft) W-SW 238 ° 0 min 0 W/m² -1,4 °C -0,3 °C 6,4 km/h (2 Bft)
09.01.2021 05:05 23,6 °C -0,3 °C 46 % 92 % 1018,3 hPa 0,0 l/m² 5,5 km/h (2 Bft) W-SW 241 ° 0 min 0 W/m² -1,4 °C -0,3 °C 6,4 km/h (2 Bft)
09.01.2021 05:07 23,6 °C -0,3 °C 46 % 92 % 1018,4 hPa 0,0 l/m² 4,9 km/h (1 Bft) W-SW 244 ° 0 min 0 W/m² -1,4 °C -0,3 °C 6,4 km/h (2 Bft)
09.01.2021 05:09 23,6 °C -0,3 °C 46 % 92 % 1018,3 hPa 0,0 l/m² 4,5 km/h (1 Bft) SW 236 ° 0 min 0 W/m² -1,4 °C -0,3 °C 6,4 km/h (2 Bft)
09.01.2021 05:10 23,6 °C -0,3 °C 46 % 92 % 1018,4 hPa 0,0 l/m² 4,9 km/h (1 Bft) W-SW 240 ° 0 min 0 W/m² -1,4 °C -0,3 °C 6,4 km/h (2 Bft)
09.01.2021 05:12 23,6 °C -0,3 °C 46 % 92 % 1018,4 hPa 0,0 l/m² 4,9 km/h (1 Bft) W-SW 246 ° 0 min 0 W/m² -1,4 °C -0,3 °C 8,0 km/h (2 Bft)
09.01.2021 05:13 23,6 °C -0,3 °C 46 % 92 % 1018,4 hPa 0,0 l/m² 4,4 km/h (1 Bft) W-SW 247 ° 0 min 0 W/m² -1,4 °C -0,3 °C 6,4 km/h (2 Bft)
09.01.2021 05:14 23,6 °C -0,3 °C 46 % 92 % 1018,4 hPa 0,0 l/m² 5,4 km/h (2 Bft) W-SW 248 ° 0 min 0 W/m² -1,4 °C -0,3 °C 6,4 km/h (2 Bft)
09.01.2021 05:16 23,6 °C -0,3 °C 46 % 92 % 1018,4 hPa 0,0 l/m² 5,0 km/h (1 Bft) W-SW 242 ° 0 min 0 W/m² -1,4 °C -0,3 °C 6,4 km/h (2 Bft)
09.01.2021 05:18 23,6 °C -0,3 °C 46 % 92 % 1018,4 hPa 0,0 l/m² 6,0 km/h (2 Bft) W-SW 249 ° 0 min 0 W/m² -1,4 °C -0,3 °C 8,0 km/h (2 Bft)
09.01.2021 05:20 23,6 °C -0,3 °C 46 % 92 % 1018,4 hPa 0,0 l/m² 5,2 km/h (1 Bft) W-SW 250 ° 0 min 0 W/m² -1,4 °C -0,3 °C 8,0 km/h (2 Bft)
09.01.2021 05:21 23,6 °C -0,3 °C 46 % 92 % 1018,4 hPa 0,0 l/m² 5,0 km/h (1 Bft) W-SW 250 ° 0 min 0 W/m² -1,4 °C -0,3 °C 6,4 km/h (2 Bft)
09.01.2021 05:23 23,6 °C -0,3 °C 46 % 92 % 1018,5 hPa 0,0 l/m² 5,5 km/h (2 Bft) W-SW 246 ° 0 min 0 W/m² -1,4 °C -0,3 °C 8,0 km/h (2 Bft)
09.01.2021 05:24 23,6 °C -0,3 °C 46 % 92 % 1018,5 hPa 0,0 l/m² 4,6 km/h (1 Bft) W-SW 248 ° 0 min 0 W/m² -1,4 °C -0,3 °C 4,8 km/h (1 Bft)
09.01.2021 05:26 23,6 °C -0,3 °C 46 % 92 % 1018,4 hPa 0,0 l/m² 4,8 km/h (1 Bft) W-SW 254 ° 0 min 0 W/m² -1,4 °C -0,3 °C 6,4 km/h (2 Bft)
09.01.2021 05:27 23,6 °C -0,3 °C 46 % 92 % 1018,4 hPa 0,0 l/m² 5,0 km/h (1 Bft) W-SW 254 ° 0 min 0 W/m² -1,4 °C -0,3 °C 6,4 km/h (2 Bft)
09.01.2021 05:28 23,6 °C -0,3 °C 46 % 92 % 1018,4 hPa 0,0 l/m² 5,5 km/h (2 Bft) W-SW 256 ° 0 min 0 W/m² -1,4 °C -0,3 °C 6,4 km/h (2 Bft)
09.01.2021 05:30 23,6 °C -0,3 °C 46 % 92 % 1018,5 hPa 0,0 l/m² 5,2 km/h (1 Bft) W-SW 248 ° 0 min 0 W/m² -1,4 °C -0,3 °C 8,0 km/h (2 Bft)
09.01.2021 05:31 23,6 °C -0,3 °C 46 % 92 % 1018,4 hPa 0,0 l/m² 4,8 km/h (1 Bft) W-SW 250 ° 0 min 0 W/m² -1,4 °C -0,3 °C 6,4 km/h (2 Bft)
09.01.2021 05:33 23,6 °C -0,3 °C 46 % 92 % 1018,5 hPa 0,0 l/m² 5,0 km/h (1 Bft) W-SW 252 ° 0 min 0 W/m² -1,4 °C -0,3 °C 6,4 km/h (2 Bft)
09.01.2021 05:34 23,6 °C -0,3 °C 46 % 92 % 1018,5 hPa 0,0 l/m² 5,2 km/h (1 Bft) W-SW 256 ° 0 min 0 W/m² -1,4 °C -0,3 °C 6,4 km/h (2 Bft)
09.01.2021 05:36 23,6 °C -0,3 °C 46 % 92 % 1018,5 hPa 0,0 l/m² 4,8 km/h (1 Bft) W 260 ° 0 min 0 W/m² -1,4 °C -0,3 °C 6,4 km/h (2 Bft)
09.01.2021 05:37 23,6 °C -0,3 °C 46 % 92 % 1018,5 hPa 0,0 l/m² 4,2 km/h (1 Bft) W-SW 252 ° 0 min 0 W/m² -1,4 °C -0,3 °C 4,8 km/h (1 Bft)
09.01.2021 05:39 23,6 °C -0,3 °C 46 % 92 % 1018,5 hPa 0,0 l/m² 5,1 km/h (1 Bft) W-SW 250 ° 0 min 0 W/m² -1,4 °C -0,3 °C 6,4 km/h (2 Bft)
09.01.2021 05:40 23,6 °C -0,3 °C 46 % 92 % 1018,5 hPa 0,0 l/m² 5,1 km/h (1 Bft) W-SW 250 ° 0 min 0 W/m² -1,4 °C -0,3 °C 6,4 km/h (2 Bft)
09.01.2021 05:42 23,6 °C -0,3 °C 46 % 92 % 1018,5 hPa 0,0 l/m² 4,4 km/h (1 Bft) W-SW 240 ° 0 min 0 W/m² -1,4 °C -0,3 °C 6,4 km/h (2 Bft)
09.01.2021 05:43 23,6 °C -0,3 °C 46 % 92 % 1018,5 hPa 0,0 l/m² 4,6 km/h (1 Bft) W-SW 242 ° 0 min 0 W/m² -1,4 °C -0,3 °C 6,4 km/h (2 Bft)
09.01.2021 05:45 23,6 °C -0,3 °C 46 % 93 % 1018,6 hPa 0,0 l/m² 4,7 km/h (1 Bft) W-SW 254 ° 0 min 0 W/m² -1,3 °C -0,3 °C 6,4 km/h (2 Bft)
09.01.2021 05:46 23,6 °C -0,3 °C 46 % 92 % 1018,5 hPa 0,0 l/m² 5,0 km/h (1 Bft) W-SW 246 ° 0 min 0 W/m² -1,4 °C -0,3 °C 6,4 km/h (2 Bft)
09.01.2021 05:48 23,6 °C -0,3 °C 46 % 93 % 1018,5 hPa 0,0 l/m² 5,3 km/h (1 Bft) W-SW 250 ° 0 min 0 W/m² -1,3 °C -0,3 °C 8,0 km/h (2 Bft)
09.01.2021 05:49 23,6 °C -0,3 °C 46 % 93 % 1018,5 hPa 0,0 l/m² 4,9 km/h (1 Bft) W-SW 254 ° 0 min 0 W/m² -1,3 °C -0,3 °C 6,4 km/h (2 Bft)
09.01.2021 05:50 23,6 °C -0,3 °C 46 % 93 % 1018,5 hPa 0,0 l/m² 4,5 km/h (1 Bft) W-SW 248 ° 0 min 0 W/m² -1,3 °C -0,3 °C 6,4 km/h (2 Bft)
09.01.2021 05:52 23,6 °C -0,3 °C 46 % 93 % 1018,6 hPa 0,0 l/m² 4,7 km/h (1 Bft) W-SW 253 ° 0 min 0 W/m² -1,3 °C -0,3 °C 6,4 km/h (2 Bft)
09.01.2021 05:53 23,6 °C -0,3 °C 46 % 93 % 1018,6 hPa 0,0 l/m² 4,5 km/h (1 Bft) W-SW 253 ° 0 min 0 W/m² -1,3 °C -0,3 °C 6,4 km/h (2 Bft)
09.01.2021 05:55 23,6 °C -0,3 °C 46 % 93 % 1018,6 hPa 0,0 l/m² 4,4 km/h (1 Bft) W-SW 246 ° 0 min 0 W/m² -1,3 °C -0,3 °C 6,4 km/h (2 Bft)
09.01.2021 05:56 23,6 °C -0,3 °C 46 % 93 % 1018,5 hPa 0,0 l/m² 5,1 km/h (1 Bft) W-SW 246 ° 0 min 0 W/m² -1,3 °C -0,3 °C 6,4 km/h (2 Bft)
09.01.2021 05:58 23,6 °C -0,3 °C 46 % 93 % 1018,6 hPa 0,0 l/m² 5,2 km/h (1 Bft) W-SW 257 ° 0 min 0 W/m² -1,3 °C -0,3 °C 8,0 km/h (2 Bft)
09.01.2021 06:00 23,6 °C -0,3 °C 46 % 93 % 1018,6 hPa 0,0 l/m² 5,8 km/h (2 Bft) W-SW 256 ° 0 min 0 W/m² -1,3 °C -0,3 °C 8,0 km/h (2 Bft)
09.01.2021 06:01 23,6 °C -0,3 °C 46 % 93 % 1018,6 hPa 0,0 l/m² 4,8 km/h (1 Bft) W-SW 252 ° 0 min 0 W/m² -1,3 °C -0,3 °C 6,4 km/h (2 Bft)
09.01.2021 06:03 23,6 °C -0,3 °C 46 % 93 % 1018,6 hPa 0,0 l/m² 4,5 km/h (1 Bft) W-SW 256 ° 0 min 0 W/m² -1,3 °C -0,3 °C 6,4 km/h (2 Bft)
09.01.2021 06:04 23,6 °C -0,3 °C 46 % 93 % 1018,6 hPa 0,0 l/m² 5,4 km/h (2 Bft) W-SW 254 ° 0 min 0 W/m² -1,3 °C -0,3 °C 6,4 km/h (2 Bft)
09.01.2021 06:06 23,6 °C -0,3 °C 46 % 93 % 1018,7 hPa 0,0 l/m² 4,9 km/h (1 Bft) W-SW 256 ° 0 min 0 W/m² -1,3 °C -0,3 °C 8,0 km/h (2 Bft)
09.01.2021 06:08 23,5 °C -0,3 °C 46 % 93 % 1018,7 hPa 0,0 l/m² 4,8 km/h (1 Bft) W 259 ° 0 min 0 W/m² -1,3 °C -0,3 °C 6,4 km/h (2 Bft)
09.01.2021 06:10 23,5 °C -0,3 °C 46 % 93 % 1018,6 hPa 0,0 l/m² 5,1 km/h (1 Bft) W-SW 248 ° 0 min 0 W/m² -1,3 °C -0,3 °C 6,4 km/h (2 Bft)
09.01.2021 06:11 23,6 °C -0,3 °C 46 % 93 % 1018,6 hPa 0,0 l/m² 5,2 km/h (1 Bft) W 265 ° 0 min 0 W/m² -1,3 °C -0,3 °C 9,7 km/h (2 Bft)
09.01.2021 06:13 23,5 °C -0,3 °C 46 % 93 % 1018,7 hPa 0,0 l/m² 5,7 km/h (2 Bft) W 267 ° 0 min 0 W/m² -1,3 °C -0,3 °C 8,0 km/h (2 Bft)
09.01.2021 06:14 23,5 °C -0,3 °C 46 % 93 % 1018,7 hPa 0,0 l/m² 6,8 km/h (2 Bft) W 267 ° 0 min 0 W/m² -1,3 °C -0,7 °C 9,7 km/h (2 Bft)
09.01.2021 06:16 23,5 °C -0,3 °C 46 % 93 % 1018,7 hPa 0,0 l/m² 5,1 km/h (1 Bft) W 270 ° 0 min 0 W/m² -1,3 °C -0,3 °C 6,4 km/h (2 Bft)
09.01.2021 06:18 23,5 °C -0,3 °C 46 % 93 % 1018,7 hPa 0,0 l/m² 7,2 km/h (2 Bft) W 274 ° 0 min 0 W/m² -1,3 °C -1,1 °C 11,3 km/h (2 Bft)
09.01.2021 06:19 23,5 °C -0,3 °C 46 % 93 % 1018,8 hPa 0,0 l/m² 8,2 km/h (2 Bft) W 275 ° 0 min 0 W/m² -1,3 °C -2,2 °C 12,9 km/h (3 Bft)
09.01.2021 06:21 23,5 °C -0,3 °C 46 % 93 % 1018,8 hPa 0,0 l/m² 10,8 km/h (2 Bft) W 271 ° 0 min 0 W/m² -1,3 °C -4,4 °C 16,1 km/h (3 Bft)
09.01.2021 06:22 23,5 °C -0,3 °C 46 % 93 % 1018,8 hPa 0,0 l/m² 8,9 km/h (2 Bft) W 276 ° 0 min 0 W/m² -1,3 °C -2,8 °C 12,9 km/h (3 Bft)
09.01.2021 06:23 23,5 °C -0,3 °C 46 % 93 % 1018,8 hPa 0,0 l/m² 13,0 km/h (3 Bft) W 279 ° 0 min 0 W/m² -1,3 °C -6,1 °C 16,1 km/h (3 Bft)
09.01.2021 06:25 23,5 °C -0,3 °C 46 % 93 % 1018,9 hPa 0,0 l/m² 11,0 km/h (2 Bft) W 271 ° 0 min 0 W/m² -1,3 °C -4,6 °C 12,9 km/h (3 Bft)
09.01.2021 06:27 23,5 °C -0,3 °C 46 % 93 % 1018,9 hPa 0,0 l/m² 13,8 km/h (3 Bft) W-NW 292 ° 0 min 0 W/m² -1,3 °C -6,6 °C 17,7 km/h (3 Bft)
09.01.2021 06:28 23,5 °C -0,3 °C 46 % 93 % 1018,8 hPa 0,0 l/m² 11,9 km/h (2 Bft) W-NW 291 ° 0 min 0 W/m² -1,3 °C -5,3 °C 16,1 km/h (3 Bft)
09.01.2021 06:30 23,5 °C -0,2 °C 46 % 93 % 1018,9 hPa 0,0 l/m² 12,2 km/h (2 Bft) W-NW 284 ° 0 min 0 W/m² -1,2 °C -5,4 °C 14,5 km/h (3 Bft)
09.01.2021 06:31 23,5 °C -0,2 °C 46 % 93 % 1018,9 hPa 0,0 l/m² 12,1 km/h (2 Bft) W 279 ° 0 min 0 W/m² -1,2 °C -5,3 °C 16,1 km/h (3 Bft)
09.01.2021 06:33 23,5 °C -0,2 °C 46 % 93 % 1018,9 hPa 0,0 l/m² 12,6 km/h (3 Bft) W 271 ° 0 min 0 W/m² -1,2 °C -5,7 °C 16,1 km/h (3 Bft)
09.01.2021 06:34 23,5 °C -0,2 °C 46 % 93 % 1018,9 hPa 0,0 l/m² 15,1 km/h (3 Bft) W 273 ° 0 min 0 W/m² -1,2 °C -7,3 °C 17,7 km/h (3 Bft)
09.01.2021 06:36 23,4 °C -0,2 °C 46 % 93 % 1018,9 hPa 0,0 l/m² 13,8 km/h (3 Bft) W 277 ° 0 min 0 W/m² -1,2 °C -6,5 °C 17,7 km/h (3 Bft)
09.01.2021 06:38 23,5 °C -0,2 °C 46 % 93 % 1019,0 hPa 0,0 l/m² 13,0 km/h (3 Bft) W 280 ° 0 min 0 W/m² -1,2 °C -5,9 °C 16,1 km/h (3 Bft)
09.01.2021 06:40 23,5 °C -0,2 °C 46 % 93 % 1019,0 hPa 0,0 l/m² 11,7 km/h (2 Bft) W 278 ° 0 min 0 W/m² -1,2 °C -5,0 °C 14,5 km/h (3 Bft)
09.01.2021 06:41 23,5 °C -0,2 °C 46 % 93 % 1019,0 hPa 0,0 l/m² 11,3 km/h (2 Bft) W 279 ° 0 min 0 W/m² -1,2 °C -4,7 °C 12,9 km/h (3 Bft)
09.01.2021 06:43 23,5 °C -0,2 °C 46 % 93 % 1019,0 hPa 0,0 l/m² 12,0 km/h (2 Bft) W-NW 283 ° 0 min 0 W/m² -1,2 °C -5,2 °C 14,5 km/h (3 Bft)
09.01.2021 06:44 23,5 °C -0,2 °C 46 % 93 % 1019,0 hPa 0,0 l/m² 11,2 km/h (2 Bft) W 280 ° 0 min 0 W/m² -1,2 °C -4,6 °C 12,9 km/h (3 Bft)
09.01.2021 06:46 23,5 °C -0,2 °C 46 % 93 % 1019,0 hPa 0,0 l/m² 11,6 km/h (2 Bft) W 277 ° 0 min 0 W/m² -1,2 °C -4,9 °C 16,1 km/h (3 Bft)
09.01.2021 06:48 23,4 °C -0,2 °C 46 % 93 % 1019,1 hPa 0,0 l/m² 13,3 km/h (3 Bft) W-NW 283 ° 0 min 0 W/m² -1,2 °C -6,1 °C 16,1 km/h (3 Bft)
09.01.2021 06:50 23,4 °C -0,2 °C 46 % 93 % 1019,1 hPa 0,0 l/m² 15,3 km/h (3 Bft) W-NW 284 ° 0 min 0 W/m² -1,2 °C -7,4 °C 19,3 km/h (3 Bft)
09.01.2021 06:51 23,4 °C -0,2 °C 46 % 93 % 1019,0 hPa 0,0 l/m² 16,2 km/h (3 Bft) W 267 ° 0 min 0 W/m² -1,2 °C -7,9 °C 19,3 km/h (3 Bft)
09.01.2021 06:53 23,4 °C -0,2 °C 46 % 93 % 1019,1 hPa 0,0 l/m² 8,7 km/h (2 Bft) W 277 ° 0 min 0 W/m² -1,2 °C -2,5 °C 16,1 km/h (3 Bft)
09.01.2021 06:54 23,4 °C -0,2 °C 46 % 93 % 1019,1 hPa 0,0 l/m² 10,3 km/h (2 Bft) W 281 ° 0 min 0 W/m² -1,2 °C -3,9 °C 14,5 km/h (3 Bft)
09.01.2021 06:55 23,5 °C -0,2 °C 46 % 93 % 1019,1 hPa 0,0 l/m² 10,9 km/h (2 Bft) W-NW 285 ° 0 min 0 W/m² -1,2 °C -4,4 °C 14,5 km/h (3 Bft)
09.01.2021 06:57 23,4 °C -0,2 °C 46 % 93 % 1019,1 hPa 0,0 l/m² 10,1 km/h (2 Bft) W-NW 294 ° 0 min 0 W/m² -1,2 °C -3,8 °C 16,1 km/h (3 Bft)
09.01.2021 06:59 23,4 °C -0,2 °C 46 % 93 % 1019,2 hPa 0,0 l/m² 7,9 km/h (2 Bft) W 276 ° 0 min 0 W/m² -1,2 °C -1,8 °C 14,5 km/h (3 Bft)
09.01.2021 07:01 23,4 °C -0,2 °C 46 % 93 % 1019,2 hPa 0,0 l/m² 9,4 km/h (2 Bft) W-NW 290 ° 0 min 0 W/m² -1,2 °C -3,2 °C 14,5 km/h (3 Bft)
09.01.2021 07:02 23,4 °C -0,2 °C 46 % 93 % 1019,1 hPa 0,0 l/m² 8,7 km/h (2 Bft) W-NW 282 ° 0 min 0 W/m² -1,2 °C -2,5 °C 12,9 km/h (3 Bft)
09.01.2021 07:03 23,4 °C -0,2 °C 46 % 93 % 1019,1 hPa 0,0 l/m² 4,5 km/h (1 Bft) W 280 ° 0 min 0 W/m² -1,2 °C -0,2 °C 6,4 km/h (2 Bft)
09.01.2021 07:05 23,4 °C -0,2 °C 46 % 93 % 1019,1 hPa 0,0 l/m² 8,5 km/h (2 Bft) W-NW 300 ° 0 min 0 W/m² -1,2 °C -2,3 °C 16,1 km/h (3 Bft)
09.01.2021 07:07 23,4 °C -0,2 °C 46 % 93 % 1019,2 hPa 0,0 l/m² 7,2 km/h (2 Bft) W 279 ° 0 min 0 W/m² -1,2 °C -1,0 °C 14,5 km/h (3 Bft)
09.01.2021 07:08 23,4 °C -0,2 °C 46 % 93 % 1019,2 hPa 0,0 l/m² 5,3 km/h (1 Bft) W-NW 289 ° 0 min 0 W/m² -1,2 °C -0,2 °C 9,7 km/h (2 Bft)
09.01.2021 07:10 23,4 °C -0,2 °C 46 % 93 % 1019,2 hPa 0,0 l/m² 7,6 km/h (2 Bft) W 273 ° 0 min 0 W/m² -1,2 °C -1,5 °C 12,9 km/h (3 Bft)
09.01.2021 07:11 23,4 °C -0,2 °C 46 % 93 % 1019,2 hPa 0,0 l/m² 11,0 km/h (2 Bft) W-NW 288 ° 0 min 0 W/m² -1,2 °C -4,5 °C 19,3 km/h (3 Bft)
09.01.2021 07:13 23,4 °C -0,2 °C 46 % 93 % 1019,2 hPa 0,0 l/m² 12,4 km/h (2 Bft) W-NW 297 ° 0 min 0 W/m² -1,2 °C -5,5 °C 17,7 km/h (3 Bft)
09.01.2021 07:14 23,4 °C -0,2 °C 46 % 93 % 1019,2 hPa 0,0 l/m² 11,6 km/h (2 Bft) W 270 ° 0 min 0 W/m² -1,2 °C -4,9 °C 16,1 km/h (3 Bft)
09.01.2021 07:16 23,4 °C -0,2 °C 46 % 93 % 1019,3 hPa 0,0 l/m² 7,3 km/h (2 Bft) W-NW 286 ° 0 min 0 W/m² -1,2 °C -1,1 °C 12,9 km/h (3 Bft)
09.01.2021 07:18 23,4 °C -0,2 °C 46 % 93 % 1019,3 hPa 0,0 l/m² 9,6 km/h (2 Bft) W 274 ° 0 min 0 W/m² -1,2 °C -3,3 °C 14,5 km/h (3 Bft)
09.01.2021 07:20 23,4 °C -0,2 °C 46 % 93 % 1019,3 hPa 0,0 l/m² 5,7 km/h (2 Bft) W-NW 300 ° 0 min 0 W/m² -1,2 °C -0,2 °C 12,9 km/h (3 Bft)
09.01.2021 07:21 23,4 °C -0,2 °C 46 % 93 % 1019,3 hPa 0,0 l/m² 5,1 km/h (1 Bft) W-NW 291 ° 0 min 0 W/m² -1,2 °C -0,2 °C 9,7 km/h (2 Bft)
09.01.2021 07:23 23,4 °C -0,2 °C 46 % 93 % 1019,3 hPa 0,0 l/m² 6,3 km/h (2 Bft) W 270 ° 0 min 0 W/m² -1,2 °C -0,2 °C 9,7 km/h (2 Bft)
09.01.2021 07:24 23,4 °C -0,2 °C 46 % 93 % 1019,4 hPa 0,0 l/m² 8,9 km/h (2 Bft) W 281 ° 0 min 0 W/m² -1,2 °C -2,7 °C 12,9 km/h (3 Bft)
09.01.2021 07:26 23,4 °C -0,2 °C 46 % 93 % 1019,4 hPa 0,0 l/m² 7,4 km/h (2 Bft) W 273 ° 0 min 0 W/m² -1,2 °C -1,2 °C 11,3 km/h (2 Bft)
09.01.2021 07:28 23,4 °C -0,2 °C 46 % 93 % 1019,5 hPa 0,0 l/m² 5,8 km/h (2 Bft) W-NW 299 ° 0 min 0 W/m² -1,2 °C -0,2 °C 12,9 km/h (3 Bft)
09.01.2021 07:29 23,4 °C -0,2 °C 46 % 93 % 1019,4 hPa 0,0 l/m² 5,8 km/h (2 Bft) W 275 ° 0 min 0 W/m² -1,2 °C -0,2 °C 11,3 km/h (2 Bft)
09.01.2021 07:31 23,4 °C -0,2 °C 46 % 93 % 1019,4 hPa 0,0 l/m² 6,9 km/h (2 Bft) W 274 ° 0 min 0 W/m² -1,2 °C -0,7 °C 16,1 km/h (3 Bft)
09.01.2021 07:32 23,4 °C -0,2 °C 46 % 93 % 1019,4 hPa 0,0 l/m² 8,7 km/h (2 Bft) W-NW 292 ° 0 min 0 W/m² -1,2 °C -2,5 °C 12,9 km/h (3 Bft)
09.01.2021 07:33 23,4 °C -0,2 °C 46 % 93 % 1019,4 hPa 0,0 l/m² 5,6 km/h (2 Bft) W-NW 293 ° 0 min 0 W/m² -1,2 °C -0,2 °C 8,0 km/h (2 Bft)
09.01.2021 07:35 23,4 °C -0,2 °C 46 % 93 % 1019,4 hPa 0,0 l/m² 6,6 km/h (2 Bft) W-NW 294 ° 0 min 0 W/m² -1,2 °C -0,4 °C 14,5 km/h (3 Bft)
09.01.2021 07:37 23,4 °C -0,2 °C 46 % 93 % 1019,4 hPa 0,0 l/m² 7,3 km/h (2 Bft) W 269 ° 0 min 0 W/m² -1,2 °C -1,1 °C 14,5 km/h (3 Bft)
09.01.2021 07:39 23,4 °C -0,2 °C 46 % 93 % 1019,5 hPa 0,0 l/m² 9,3 km/h (2 Bft) W-NW 297 ° 0 min 0 W/m² -1,2 °C -3,1 °C 14,5 km/h (3 Bft)
09.01.2021 07:40 23,4 °C -0,2 °C 46 % 93 % 1019,5 hPa 0,0 l/m² 8,6 km/h (2 Bft) W-NW 286 ° 0 min 0 W/m² -1,2 °C -2,4 °C 14,5 km/h (3 Bft)
09.01.2021 07:42 23,4 °C -0,2 °C 46 % 93 % 1019,5 hPa 0,0 l/m² 8,4 km/h (2 Bft) W-NW 297 ° 0 min 0 W/m² -1,2 °C -2,2 °C 14,5 km/h (3 Bft)
09.01.2021 07:43 23,4 °C -0,2 °C 46 % 93 % 1019,4 hPa 0,0 l/m² 11,7 km/h (2 Bft) N-NW 339 ° 0 min 0 W/m² -1,2 °C -5,0 °C 16,1 km/h (3 Bft)
09.01.2021 07:45 23,4 °C -0,2 °C 46 % 93 % 1019,5 hPa 0,0 l/m² 6,1 km/h (2 Bft) W 269 ° 0 min 0 W/m² -1,2 °C -0,2 °C 14,5 km/h (3 Bft)
09.01.2021 07:47 23,4 °C -0,2 °C 46 % 93 % 1019,5 hPa 0,0 l/m² 7,4 km/h (2 Bft) W 279 ° 0 min 0 W/m² -1,2 °C -1,2 °C 12,9 km/h (3 Bft)
09.01.2021 07:48 23,4 °C -0,2 °C 46 % 93 % 1019,5 hPa 0,0 l/m² 7,8 km/h (2 Bft) N-NW 327 ° 0 min 0 W/m² -1,2 °C -1,7 °C 12,9 km/h (3 Bft)
09.01.2021 07:50 23,4 °C -0,2 °C 46 % 93 % 1019,6 hPa 0,0 l/m² 6,5 km/h (2 Bft) W 269 ° 0 min 0 W/m² -1,2 °C -0,3 °C 12,9 km/h (3 Bft)
09.01.2021 07:51 23,4 °C -0,2 °C 46 % 93 % 1019,6 hPa 0,0 l/m² 6,1 km/h (2 Bft) W-NW 284 ° 0 min 0 W/m² -1,2 °C -0,2 °C 9,7 km/h (2 Bft)
09.01.2021 07:52 23,4 °C -0,2 °C 46 % 93 % 1019,6 hPa 0,0 l/m² 5,1 km/h (1 Bft) W-NW 294 ° 0 min 0 W/m² -1,2 °C -0,2 °C 8,0 km/h (2 Bft)
09.01.2021 07:54 23,4 °C -0,2 °C 46 % 93 % 1019,6 hPa 0,0 l/m² 7,7 km/h (2 Bft) W-NW 291 ° 0 min 0 W/m² -1,2 °C -1,6 °C 17,7 km/h (3 Bft)
09.01.2021 07:56 23,4 °C -0,2 °C 46 % 93 % 1019,6 hPa 0,0 l/m² 9,8 km/h (2 Bft) N-NW 330 ° 0 min 0 W/m² -1,2 °C -3,5 °C 16,1 km/h (3 Bft)
09.01.2021 07:58 23,4 °C -0,2 °C 46 % 93 % 1019,6 hPa 0,0 l/m² 8,3 km/h (2 Bft) NW 313 ° 0 min 0 W/m² -1,2 °C -2,1 °C 12,9 km/h (3 Bft)
09.01.2021 08:00 23,4 °C -0,2 °C 46 % 93 % 1019,7 hPa 0,0 l/m² 8,3 km/h (2 Bft) W-NW 286 ° 0 min 0 W/m² -1,2 °C -2,1 °C 16,1 km/h (3 Bft)
09.01.2021 08:01 23,4 °C -0,2 °C 46 % 93 % 1019,7 hPa 0,0 l/m² 7,8 km/h (2 Bft) W-NW 284 ° 0 min 0 W/m² -1,2 °C -1,7 °C 16,1 km/h (3 Bft)
09.01.2021 08:02 23,4 °C -0,2 °C 46 % 93 % 1019,7 hPa 0,0 l/m² 6,1 km/h (2 Bft) W-NW 288 ° 0 min 0 W/m² -1,2 °C -0,2 °C 9,7 km/h (2 Bft)
09.01.2021 08:05 23,4 °C -0,2 °C 46 % 93 % 1019,6 hPa 0,0 l/m² 7,8 km/h (2 Bft) W 272 ° 0 min 0 W/m² -1,2 °C -1,7 °C 19,3 km/h (3 Bft)
09.01.2021 08:07 23,4 °C -0,2 °C 46 % 93 % 1019,7 hPa 0,0 l/m² 7,0 km/h (2 Bft) W-NW 290 ° 0 min 0 W/m² -1,2 °C -0,8 °C 12,9 km/h (3 Bft)
09.01.2021 08:09 23,4 °C -0,2 °C 46 % 93 % 1019,6 hPa 0,0 l/m² 4,5 km/h (1 Bft) NW 311 ° 0 min 0 W/m² -1,2 °C -0,2 °C 11,3 km/h (2 Bft)
09.01.2021 08:10 23,4 °C -0,2 °C 46 % 93 % 1019,7 hPa 0,0 l/m² 5,4 km/h (2 Bft) NW 308 ° 0 min 0 W/m² -1,2 °C -0,2 °C 9,7 km/h (2 Bft)
09.01.2021 08:12 23,4 °C -0,2 °C 46 % 93 % 1019,7 hPa 0,0 l/m² 7,5 km/h (2 Bft) W 279 ° 0 min 0 W/m² -1,2 °C -1,4 °C 16,1 km/h (3 Bft)
09.01.2021 08:13 23,4 °C -0,2 °C 46 % 93 % 1019,7 hPa 0,0 l/m² 7,8 km/h (2 Bft) W-NW 291 ° 0 min 0 W/m² -1,2 °C -1,7 °C 17,7 km/h (3 Bft)
09.01.2021 08:15 23,4 °C -0,2 °C 46 % 93 % 1019,7 hPa 0,0 l/m² 5,1 km/h (1 Bft) N-NW 336 ° 0 min 0 W/m² -1,2 °C -0,2 °C 9,7 km/h (2 Bft)
09.01.2021 08:16 23,4 °C -0,2 °C 46 % 93 % 1019,7 hPa 0,0 l/m² 3,6 km/h (1 Bft) NW 304 ° 0 min 0 W/m² -1,2 °C -0,2 °C 8,0 km/h (2 Bft)
09.01.2021 08:17 23,4 °C -0,2 °C 46 % 93 % 1019,7 hPa 0,0 l/m² 4,6 km/h (1 Bft) W-NW 298 ° 0 min 0 W/m² -1,2 °C -0,2 °C 6,4 km/h (2 Bft)
09.01.2021 08:19 23,4 °C -0,2 °C 46 % 93 % 1019,7 hPa 0,0 l/m² 5,6 km/h (2 Bft) NW 313 ° 0 min 0 W/m² -1,2 °C -0,2 °C 11,3 km/h (2 Bft)
09.01.2021 08:20 23,4 °C -0,2 °C 46 % 93 % 1019,8 hPa 0,0 l/m² 5,9 km/h (2 Bft) W-NW 303 ° 0 min 0 W/m² -1,2 °C -0,2 °C 11,3 km/h (2 Bft)
09.01.2021 08:22 23,4 °C -0,2 °C 46 % 93 % 1019,8 hPa 0,0 l/m² 6,2 km/h (2 Bft) W 281 ° 0 min 0 W/m² -1,2 °C -0,2 °C 14,5 km/h (3 Bft)
09.01.2021 08:23 23,4 °C -0,2 °C 46 % 93 % 1019,8 hPa 0,0 l/m² 6,6 km/h (2 Bft) W-NW 302 ° 0 min 0 W/m² -1,2 °C -0,4 °C 12,9 km/h (3 Bft)
09.01.2021 08:25 23,4 °C -0,2 °C 46 % 93 % 1019,7 hPa 0,0 l/m² 5,1 km/h (1 Bft) W 263 ° 0 min 0 W/m² -1,2 °C -0,2 °C 9,7 km/h (2 Bft)
09.01.2021 08:27 23,4 °C -0,2 °C 46 % 93 % 1019,7 hPa 0,0 l/m² 8,5 km/h (2 Bft) NW 311 ° 0 min 0 W/m² -1,2 °C -2,3 °C 16,1 km/h (3 Bft)
09.01.2021 08:29 23,4 °C -0,2 °C 46 % 93 % 1019,7 hPa 0,0 l/m² 6,5 km/h (2 Bft) NW 316 ° 0 min 0 W/m² -1,2 °C -0,3 °C 12,9 km/h (3 Bft)
09.01.2021 08:30 23,4 °C -0,2 °C 46 % 93 % 1019,8 hPa 0,0 l/m² 6,4 km/h (2 Bft) W-NW 296 ° 0 min 0 W/m² -1,2 °C -0,2 °C 9,7 km/h (2 Bft)
09.01.2021 08:32 23,4 °C -0,2 °C 46 % 93 % 1019,8 hPa 0,0 l/m² 6,6 km/h (2 Bft) W-NW 289 ° 0 min 0 W/m² -1,2 °C -0,4 °C 14,5 km/h (3 Bft)
09.01.2021 08:33 23,4 °C -0,2 °C 46 % 93 % 1019,8 hPa 0,0 l/m² 5,5 km/h (2 Bft) W-NW 291 ° 0 min 5 W/m² -1,2 °C -0,2 °C 9,7 km/h (2 Bft)
09.01.2021 08:35 23,4 °C -0,2 °C 46 % 93 % 1019,8 hPa 0,0 l/m² 7,7 km/h (2 Bft) W-NW 299 ° 0 min 5 W/m² -1,2 °C -1,6 °C 12,9 km/h (3 Bft)
09.01.2021 08:37 23,4 °C -0,2 °C 42 % 93 % 1019,7 hPa 0,0 l/m² 6,0 km/h (2 Bft) NW 315 ° 0 min 5 W/m² -1,2 °C -0,2 °C 14,5 km/h (3 Bft)
09.01.2021 08:38 23,4 °C -0,2 °C 42 % 93 % 1019,8 hPa 0,0 l/m² 5,5 km/h (2 Bft) W-NW 286 ° 0 min 5 W/m² -1,2 °C -0,2 °C 12,9 km/h (3 Bft)
09.01.2021 08:40 23,3 °C -0,2 °C 42 % 93 % 1019,8 hPa 0,0 l/m² 5,4 km/h (2 Bft) N-NW 332 ° 0 min 5 W/m² -1,2 °C -0,2 °C 12,9 km/h (3 Bft)
09.01.2021 08:42 23,3 °C -0,2 °C 42 % 93 % 1019,7 hPa 0,0 l/m² 5,2 km/h (1 Bft) NW 307 ° 0 min 7 W/m² -1,2 °C -0,2 °C 11,3 km/h (2 Bft)
09.01.2021 08:43 23,3 °C -0,2 °C 42 % 93 % 1019,7 hPa 0,0 l/m² 5,9 km/h (2 Bft) NW 316 ° 0 min 7 W/m² -1,2 °C -0,2 °C 14,5 km/h (3 Bft)
09.01.2021 08:45 23,3 °C -0,2 °C 43 % 93 % 1019,7 hPa 0,0 l/m² 6,5 km/h (2 Bft) W 263 ° 0 min 7 W/m² -1,2 °C -0,3 °C 12,9 km/h (3 Bft)
09.01.2021 08:46 23,3 °C -0,2 °C 43 % 93 % 1019,7 hPa 0,0 l/m² 5,4 km/h (2 Bft) W-NW 292 ° 0 min 7 W/m² -1,2 °C -0,2 °C 9,7 km/h (2 Bft)
09.01.2021 08:48 23,3 °C -0,2 °C 43 % 93 % 1019,7 hPa 0,0 l/m² 5,5 km/h (2 Bft) W 276 ° 0 min 9 W/m² -1,2 °C -0,2 °C 16,1 km/h (3 Bft)
09.01.2021 08:50 23,3 °C -0,3 °C 43 % 93 % 1019,8 hPa 0,0 l/m² 7,9 km/h (2 Bft) W 273 ° 0 min 9 W/m² -1,3 °C -1,9 °C 14,5 km/h (3 Bft)
09.01.2021 08:51 23,3 °C -0,3 °C 43 % 93 % 1019,8 hPa 0,0 l/m² 7,6 km/h (2 Bft) W-NW 294 ° 0 min 9 W/m² -1,3 °C -1,6 °C 12,9 km/h (3 Bft)
09.01.2021 08:52 23,3 °C -0,2 °C 43 % 93 % 1019,8 hPa 0,0 l/m² 6,1 km/h (2 Bft) W-NW 291 ° 0 min 9 W/m² -1,2 °C -0,2 °C 14,5 km/h (3 Bft)
09.01.2021 08:54 23,3 °C -0,3 °C 43 % 93 % 1019,8 hPa 0,0 l/m² 7,1 km/h (2 Bft) NW 319 ° 0 min 11 W/m² -1,3 °C -1,0 °C 14,5 km/h (3 Bft)
09.01.2021 08:56 23,3 °C -0,2 °C 43 % 93 % 1019,8 hPa 0,0 l/m² 8,4 km/h (2 Bft) W-NW 302 ° 0 min 11 W/m² -1,2 °C -2,2 °C 16,1 km/h (3 Bft)
09.01.2021 08:58 23,3 °C -0,2 °C 43 % 93 % 1019,8 hPa 0,0 l/m² 6,7 km/h (2 Bft) NW 319 ° 0 min 12 W/m² -1,2 °C -0,5 °C 12,9 km/h (3 Bft)
09.01.2021 09:00 23,3 °C -0,2 °C 43 % 93 % 1019,9 hPa 0,0 l/m² 8,4 km/h (2 Bft) W-NW 295 ° 0 min 12 W/m² -1,2 °C -2,2 °C 19,3 km/h (3 Bft)
09.01.2021 09:01 23,3 °C -0,2 °C 44 % 93 % 1019,9 hPa 0,0 l/m² 7,5 km/h (2 Bft) W-NW 300 ° 0 min 14 W/m² -1,2 °C -1,4 °C 14,5 km/h (3 Bft)
09.01.2021 09:03 23,3 °C -0,2 °C 44 % 93 % 1019,9 hPa 0,0 l/m² 4,8 km/h (1 Bft) W-NW 296 ° 0 min 14 W/m² -1,2 °C -0,2 °C 9,7 km/h (2 Bft)
09.01.2021 09:04 23,3 °C -0,2 °C 44 % 93 % 1019,9 hPa 0,0 l/m² 6,8 km/h (2 Bft) W 279 ° 0 min 14 W/m² -1,2 °C -0,6 °C 12,9 km/h (3 Bft)
09.01.2021 09:06 23,3 °C -0,2 °C 44 % 93 % 1019,9 hPa 0,0 l/m² 6,4 km/h (2 Bft) NW 309 ° 0 min 14 W/m² -1,2 °C -0,2 °C 12,9 km/h (3 Bft)
09.01.2021 09:08 23,3 °C -0,2 °C 44 % 93 % 1019,9 hPa 0,0 l/m² 9,2 km/h (2 Bft) N-NW 331 ° 0 min 14 W/m² -1,2 °C -3,0 °C 17,7 km/h (3 Bft)
09.01.2021 09:10 23,4 °C -0,2 °C 44 % 93 % 1020,0 hPa 0,0 l/m² 5,3 km/h (1 Bft) NW 312 ° 0 min 14 W/m² -1,2 °C -0,2 °C 8,0 km/h (2 Bft)
09.01.2021 09:12 23,4 °C -0,2 °C 44 % 93 % 1020,1 hPa 0,0 l/m² 6,2 km/h (2 Bft) W 277 ° 0 min 16 W/m² -1,2 °C -0,2 °C 11,3 km/h (2 Bft)
09.01.2021 09:13 23,4 °C -0,1 °C 44 % 93 % 1020,1 hPa 0,0 l/m² 8,0 km/h (2 Bft) W-NW 301 ° 0 min 16 W/m² -1,1 °C -1,8 °C 20,9 km/h (4 Bft)
09.01.2021 09:15 23,3 °C -0,1 °C 44 % 93 % 1020,1 hPa 0,0 l/m² 7,4 km/h (2 Bft) W-NW 303 ° 0 min 18 W/m² -1,1 °C -1,1 °C 16,1 km/h (3 Bft)
09.01.2021 09:17 23,4 °C -0,1 °C 44 % 93 % 1020,1 hPa 0,0 l/m² 7,8 km/h (2 Bft) W-NW 289 ° 0 min 18 W/m² -1,1 °C -1,6 °C 19,3 km/h (3 Bft)
09.01.2021 09:18 23,4 °C -0,1 °C 44 % 93 % 1020,1 hPa 0,0 l/m² 7,2 km/h (2 Bft) W-NW 286 ° 0 min 19 W/m² -1,1 °C -0,9 °C 14,5 km/h (3 Bft)
09.01.2021 09:20 23,4 °C -0,1 °C 44 % 93 % 1020,2 hPa 0,0 l/m² 8,3 km/h (2 Bft) W 278 ° 0 min 19 W/m² -1,1 °C -2,0 °C 14,5 km/h (3 Bft)
09.01.2021 09:21 23,4 °C -0,1 °C 44 % 93 % 1020,2 hPa 0,0 l/m² 7,2 km/h (2 Bft) W-NW 294 ° 0 min 19 W/m² -1,1 °C -0,9 °C 12,9 km/h (3 Bft)
09.01.2021 09:22 23,4 °C -0,1 °C 44 % 93 % 1020,2 hPa 0,0 l/m² 3,9 km/h (1 Bft) NW 306 ° 0 min 18 W/m² -1,1 °C -0,1 °C 4,8 km/h (1 Bft)
09.01.2021 09:24 23,4 °C -0,1 °C 44 % 93 % 1020,3 hPa 0,0 l/m² 7,6 km/h (2 Bft) W-NW 296 ° 0 min 18 W/m² -1,1 °C -1,4 °C 12,9 km/h (3 Bft)
09.01.2021 09:26 23,4 °C 0,0 °C 44 % 93 % 1020,3 hPa 0,0 l/m² 6,2 km/h (2 Bft) NW 307 ° 0 min 19 W/m² -1,0 °C 0,0 °C 14,5 km/h (3 Bft)
09.01.2021 09:28 23,4 °C 0,0 °C 44 % 93 % 1020,3 hPa 0,0 l/m² 8,1 km/h (2 Bft) W-NW 296 ° 0 min 19 W/m² -1,0 °C -1,7 °C 19,3 km/h (3 Bft)
09.01.2021 09:29 23,4 °C 0,0 °C 44 % 93 % 1020,3 hPa 0,0 l/m² 7,6 km/h (2 Bft) NW 309 ° 0 min 19 W/m² -1,0 °C -1,2 °C 14,5 km/h (3 Bft)
09.01.2021 09:30 23,4 °C 0,1 °C 44 % 93 % 1020,3 hPa 0,0 l/m² 9,9 km/h (2 Bft) W-NW 301 ° 0 min 19 W/m² -0,9 °C -3,3 °C 16,1 km/h (3 Bft)
09.01.2021 09:33 23,4 °C 0,1 °C 44 % 93 % 1020,3 hPa 0,0 l/m² 7,9 km/h (2 Bft) NW 313 ° 0 min 19 W/m² -0,9 °C -1,4 °C 14,5 km/h (3 Bft)
09.01.2021 09:35 23,4 °C 0,1 °C 44 % 93 % 1020,3 hPa 0,0 l/m² 8,4 km/h (2 Bft) W-NW 290 ° 0 min 21 W/m² -0,9 °C -1,9 °C 14,5 km/h (3 Bft)
09.01.2021 09:37 23,4 °C 0,1 °C 45 % 93 % 1020,4 hPa 0,0 l/m² 7,6 km/h (2 Bft) N-NW 344 ° 0 min 21 W/m² -0,9 °C -1,1 °C 17,7 km/h (3 Bft)
09.01.2021 09:39 23,4 °C 0,1 °C 45 % 93 % 1020,4 hPa 0,0 l/m² 10,3 km/h (2 Bft) NW 317 ° 0 min 21 W/m² -0,9 °C -3,6 °C 19,3 km/h (3 Bft)
09.01.2021 09:41 23,4 °C 0,1 °C 45 % 93 % 1020,4 hPa 0,0 l/m² 6,2 km/h (2 Bft) N-NW 331 ° 0 min 19 W/m² -0,9 °C 0,1 °C 14,5 km/h (3 Bft)
09.01.2021 09:42 23,4 °C 0,2 °C 45 % 93 % 1020,4 hPa 0,0 l/m² 8,4 km/h (2 Bft) NW 306 ° 0 min 19 W/m² -0,8 °C -1,8 °C 16,1 km/h (3 Bft)
09.01.2021 09:43 23,4 °C 0,1 °C 45 % 93 % 1020,4 hPa 0,0 l/m² 8,7 km/h (2 Bft) W-NW 293 ° 0 min 18 W/m² -0,9 °C -2,2 °C 16,1 km/h (3 Bft)
09.01.2021 09:44 23,5 °C 0,2 °C 45 % 93 % 1020,4 hPa 0,0 l/m² 7,3 km/h (2 Bft) W-NW 297 ° 0 min 18 W/m² -0,8 °C -0,7 °C 14,5 km/h (3 Bft)
09.01.2021 09:46 23,5 °C 0,2 °C 45 % 93 % 1020,4 hPa 0,0 l/m² 9,3 km/h (2 Bft) NW 323 ° 0 min 18 W/m² -0,8 °C -2,6 °C 17,7 km/h (3 Bft)
09.01.2021 09:48 23,5 °C 0,2 °C 45 % 93 % 1020,5 hPa 0,0 l/m² 9,5 km/h (2 Bft) NW 312 ° 0 min 16 W/m² -0,8 °C -2,8 °C 17,7 km/h (3 Bft)
09.01.2021 09:50 23,5 °C 0,2 °C 45 % 93 % 1020,5 hPa 0,0 l/m² 12,1 km/h (2 Bft) NW 307 ° 0 min 16 W/m² -0,8 °C -4,8 °C 17,7 km/h (3 Bft)
09.01.2021 09:51 23,5 °C 0,2 °C 45 % 93 % 1020,5 hPa 0,0 l/m² 8,9 km/h (2 Bft) NW 321 ° 0 min 16 W/m² -0,8 °C -2,3 °C 17,7 km/h (3 Bft)
09.01.2021 09:52 23,5 °C 0,2 °C 45 % 92 % 1020,5 hPa 0,0 l/m² 8,9 km/h (2 Bft) W-NW 297 ° 0 min 16 W/m² -0,9 °C -2,3 °C 14,5 km/h (3 Bft)
09.01.2021 09:53 23,4 °C 0,2 °C 45 % 92 % 1020,6 hPa 0,0 l/m² 5,8 km/h (2 Bft) W-NW 296 ° 0 min 16 W/m² -0,9 °C 0,2 °C 12,9 km/h (3 Bft)
09.01.2021 09:54 23,4 °C 0,2 °C 45 % 92 % 1020,5 hPa 0,0 l/m² 10,7 km/h (2 Bft) NW 306 ° 0 min 16 W/m² -0,9 °C -3,8 °C 17,7 km/h (3 Bft)
09.01.2021 09:56 23,5 °C 0,2 °C 45 % 92 % 1020,5 hPa 0,0 l/m² 7,8 km/h (2 Bft) W-NW 296 ° 0 min 18 W/m² -0,9 °C -1,2 °C 19,3 km/h (3 Bft)
09.01.2021 09:58 23,4 °C 0,3 °C 44 % 93 % 1020,5 hPa 0,0 l/m² 10,0 km/h (2 Bft) W 273 ° 0 min 19 W/m² -0,7 °C -3,1 °C 19,3 km/h (3 Bft)
09.01.2021 10:00 23,4 °C 0,3 °C 44 % 93 % 1020,6 hPa 0,0 l/m² 11,9 km/h (2 Bft) W-NW 292 ° 0 min 21 W/m² -0,7 °C -4,6 °C 20,9 km/h (4 Bft)
09.01.2021 10:01 23,4 °C 0,3 °C 44 % 93 % 1020,6 hPa 0,0 l/m² 9,9 km/h (2 Bft) W 273 ° 0 min 21 W/m² -0,7 °C -3,0 °C 20,9 km/h (4 Bft)
09.01.2021 10:02 23,4 °C 0,3 °C 44 % 93 % 1020,6 hPa 0,0 l/m² 10,0 km/h (2 Bft) W-NW 294 ° 0 min 21 W/m² -0,7 °C -3,1 °C 20,9 km/h (4 Bft)
09.01.2021 10:03 23,4 °C 0,3 °C 43 % 93 % 1020,6 hPa 0,0 l/m² 9,4 km/h (2 Bft) N-NW 329 ° 0 min 21 W/m² -0,7 °C -2,6 °C 17,7 km/h (3 Bft)
09.01.2021 10:04 23,4 °C 0,3 °C 43 % 93 % 1020,6 hPa 0,0 l/m² 11,1 km/h (2 Bft) W-NW 294 ° 0 min 21 W/m² -0,7 °C -4,0 °C 20,9 km/h (4 Bft)
09.01.2021 10:06 23,4 °C 0,3 °C 43 % 92 % 1020,6 hPa 0,0 l/m² 12,0 km/h (2 Bft) W-NW 287 ° 0 min 23 W/m² -0,8 °C -4,7 °C 17,7 km/h (3 Bft)
09.01.2021 10:08 23,4 °C 0,3 °C 43 % 92 % 1020,6 hPa 0,0 l/m² 9,8 km/h (2 Bft) NW 317 ° 0 min 23 W/m² -0,8 °C -3,0 °C 19,3 km/h (3 Bft)
09.01.2021 10:10 23,4 °C 0,3 °C 43 % 92 % 1020,6 hPa 0,0 l/m² 8,1 km/h (2 Bft) NW 318 ° 0 min 23 W/m² -0,8 °C -1,4 °C 16,1 km/h (3 Bft)
09.01.2021 10:11 23,4 °C 0,3 °C 43 % 92 % 1020,7 hPa 0,0 l/m² 9,3 km/h (2 Bft) NW 319 ° 0 min 23 W/m² -0,8 °C -2,5 °C 14,5 km/h (3 Bft)
09.01.2021 10:12 23,4 °C 0,3 °C 43 % 92 % 1020,7 hPa 0,0 l/m² 8,2 km/h (2 Bft) NW 324 ° 0 min 23 W/m² -0,8 °C -1,5 °C 12,9 km/h (3 Bft)
09.01.2021 10:13 23,4 °C 0,3 °C 42 % 92 % 1020,7 hPa 0,0 l/m² 9,7 km/h (2 Bft) W-NW 283 ° 0 min 25 W/m² -0,8 °C -2,9 °C 16,1 km/h (3 Bft)
09.01.2021 10:14 23,4 °C 0,3 °C 42 % 92 % 1020,7 hPa 0,0 l/m² 8,4 km/h (2 Bft) N-NW 328 ° 0 min 23 W/m² -0,8 °C -1,7 °C 14,5 km/h (3 Bft)
09.01.2021 10:16 23,4 °C 0,3 °C 42 % 92 % 1020,7 hPa 0,0 l/m² 8,8 km/h (2 Bft) N-NW 331 ° 0 min 23 W/m² -0,8 °C -2,1 °C 16,1 km/h (3 Bft)
09.01.2021 10:18 23,3 °C 0,4 °C 42 % 92 % 1020,7 hPa 0,0 l/m² 8,0 km/h (2 Bft) NW 320 ° 0 min 23 W/m² -0,7 °C -1,2 °C 14,5 km/h (3 Bft)
09.01.2021 10:20 23,3 °C 0,4 °C 42 % 92 % 1020,6 hPa 0,0 l/m² 9,1 km/h (2 Bft) NW 325 ° 0 min 25 W/m² -0,7 °C -2,2 °C 16,1 km/h (3 Bft)
09.01.2021 10:21 23,3 °C 0,4 °C 42 % 92 % 1020,8 hPa 0,0 l/m² 7,0 km/h (2 Bft) W-NW 292 ° 0 min 26 W/m² -0,7 °C -0,2 °C 12,9 km/h (3 Bft)
09.01.2021 10:22 23,3 °C 0,4 °C 42 % 92 % 1020,8 hPa 0,0 l/m² 9,9 km/h (2 Bft) NW 317 ° 0 min 26 W/m² -0,7 °C -2,9 °C 14,5 km/h (3 Bft)
09.01.2021 10:23 23,3 °C 0,4 °C 43 % 92 % 1020,7 hPa 0,0 l/m² 10,7 km/h (2 Bft) NW 304 ° 0 min 28 W/m² -0,7 °C -3,6 °C 14,5 km/h (3 Bft)
09.01.2021 10:24 23,3 °C 0,4 °C 43 % 92 % 1020,8 hPa 0,0 l/m² 7,2 km/h (2 Bft) NW 326 ° 0 min 28 W/m² -0,7 °C -0,4 °C 12,9 km/h (3 Bft)
09.01.2021 10:26 23,3 °C 0,4 °C 43 % 92 % 1020,7 hPa 0,0 l/m² 7,4 km/h (2 Bft) NW 308 ° 0 min 30 W/m² -0,7 °C -0,6 °C 12,9 km/h (3 Bft)
09.01.2021 10:28 23,3 °C 0,4 °C 43 % 92 % 1020,7 hPa 0,0 l/m² 7,4 km/h (2 Bft) NW 317 ° 0 min 30 W/m² -0,7 °C -0,6 °C 14,5 km/h (3 Bft)
09.01.2021 10:30 23,3 °C 0,5 °C 43 % 92 % 1020,7 hPa 0,0 l/m² 8,5 km/h (2 Bft) NW 320 ° 0 min 28 W/m² -0,6 °C -1,6 °C 16,1 km/h (3 Bft)
09.01.2021 10:31 23,3 °C 0,4 °C 43 % 92 % 1020,8 hPa 0,0 l/m² 8,2 km/h (2 Bft) NW 316 ° 0 min 30 W/m² -0,7 °C -1,4 °C 12,9 km/h (3 Bft)
09.01.2021 10:32 23,3 °C 0,5 °C 43 % 92 % 1020,8 hPa 0,0 l/m² 7,2 km/h (2 Bft) NW 318 ° 0 min 30 W/m² -0,6 °C -0,3 °C 11,3 km/h (2 Bft)
09.01.2021 10:33 23,3 °C 0,5 °C 43 % 92 % 1020,7 hPa 0,0 l/m² 6,1 km/h (2 Bft) NW 321 ° 0 min 32 W/m² -0,6 °C 0,5 °C 11,3 km/h (2 Bft)
09.01.2021 10:34 23,3 °C 0,5 °C 43 % 92 % 1020,7 hPa 0,0 l/m² 6,5 km/h (2 Bft) W-NW 298 ° 0 min 35 W/m² -0,6 °C 0,4 °C 12,9 km/h (3 Bft)
09.01.2021 10:36 23,3 °C 0,5 °C 43 % 92 % 1020,7 hPa 0,0 l/m² 8,1 km/h (2 Bft) W-NW 300 ° 0 min 37 W/m² -0,6 °C -1,2 °C 14,5 km/h (3 Bft)
09.01.2021 10:38 23,3 °C 0,6 °C 43 % 92 % 1020,8 hPa 0,0 l/m² 8,9 km/h (2 Bft) NW 306 ° 0 min 37 W/m² -0,5 °C -1,8 °C 17,7 km/h (3 Bft)
09.01.2021 10:40 23,3 °C 0,6 °C 43 % 92 % 1020,8 hPa 0,0 l/m² 7,7 km/h (2 Bft) N-NW 342 ° 0 min 40 W/m² -0,5 °C -0,7 °C 17,7 km/h (3 Bft)
09.01.2021 10:41 23,3 °C 0,6 °C 43 % 92 % 1020,7 hPa 0,0 l/m² 7,7 km/h (2 Bft) NW 325 ° 0 min 40 W/m² -0,5 °C -0,7 °C 16,1 km/h (3 Bft)
09.01.2021 10:43 23,4 °C 0,6 °C 43 % 92 % 1020,8 hPa 0,0 l/m² 7,7 km/h (2 Bft) W 274 ° 0 min 42 W/m² -0,5 °C -0,7 °C 14,5 km/h (3 Bft)
09.01.2021 10:44 23,3 °C 0,6 °C 43 % 92 % 1020,8 hPa 0,0 l/m² 11,3 km/h (2 Bft) NW 320 ° 0 min 42 W/m² -0,5 °C -3,8 °C 17,7 km/h (3 Bft)
09.01.2021 10:46 23,3 °C 0,6 °C 43 % 92 % 1020,9 hPa 0,0 l/m² 8,4 km/h (2 Bft) NW 308 ° 0 min 42 W/m² -0,5 °C -1,4 °C 14,5 km/h (3 Bft)
09.01.2021 10:48 23,3 °C 0,6 °C 43 % 92 % 1020,8 hPa 0,0 l/m² 6,5 km/h (2 Bft) W-NW 300 ° 0 min 44 W/m² -0,5 °C 0,5 °C 12,9 km/h (3 Bft)
09.01.2021 10:50 23,3 °C 0,6 °C 43 % 92 % 1020,8 hPa 0,0 l/m² 8,6 km/h (2 Bft) W 278 ° 0 min 44 W/m² -0,5 °C -1,6 °C 16,1 km/h (3 Bft)
09.01.2021 10:51 23,3 °C 0,6 °C 43 % 92 % 1020,8 hPa 0,0 l/m² 6,4 km/h (2 Bft) N-NW 330 ° 1 min 53 W/m² -0,5 °C 0,6 °C 12,9 km/h (3 Bft)
09.01.2021 10:52 23,3 °C 0,6 °C 43 % 92 % 1020,8 hPa 0,0 l/m² 9,3 km/h (2 Bft) NW 308 ° 1 min 54 W/m² -0,5 °C -2,2 °C 16,1 km/h (3 Bft)
09.01.2021 10:53 23,3 °C 0,6 °C 43 % 92 % 1020,8 hPa 0,0 l/m² 5,9 km/h (2 Bft) NW 319 ° 1 min 58 W/m² -0,5 °C 0,6 °C 11,3 km/h (2 Bft)
09.01.2021 10:54 23,3 °C 0,6 °C 43 % 92 % 1020,8 hPa 0,0 l/m² 9,5 km/h (2 Bft) NW 315 ° 1 min 62 W/m² -0,5 °C -2,4 °C 16,1 km/h (3 Bft)
09.01.2021 10:56 23,4 °C 0,7 °C 43 % 92 % 1020,8 hPa 0,0 l/m² 10,4 km/h (2 Bft) NW 313 ° 2 min 67 W/m² -0,4 °C -3,0 °C 20,9 km/h (4 Bft)
09.01.2021 10:58 23,3 °C 0,6 °C 43 % 92 % 1020,8 hPa 0,0 l/m² 8,7 km/h (2 Bft) W-NW 298 ° 2 min 72 W/m² -0,5 °C -1,7 °C 14,5 km/h (3 Bft)
09.01.2021 11:00 23,3 °C 0,7 °C 43 % 92 % 1020,8 hPa 0,0 l/m² 8,9 km/h (2 Bft) NW 320 ° 2 min 76 W/m² -0,4 °C -1,7 °C 19,3 km/h (3 Bft)
09.01.2021 11:01 23,3 °C 0,7 °C 43 % 92 % 1020,8 hPa 0,0 l/m² 9,7 km/h (2 Bft) W-NW 292 ° 1 min 77 W/m² -0,4 °C -2,4 °C 19,3 km/h (3 Bft)
09.01.2021 11:03 23,4 °C 0,7 °C 43 % 92 % 1020,8 hPa 0,0 l/m² 8,4 km/h (2 Bft) W-NW 289 ° 2 min 81 W/m² -0,4 °C -1,3 °C 16,1 km/h (3 Bft)
09.01.2021 11:04 23,3 °C 0,7 °C 43 % 92 % 1020,8 hPa 0,0 l/m² 8,0 km/h (2 Bft) N 355 ° 1 min 84 W/m² -0,4 °C -0,9 °C 12,9 km/h (3 Bft)
09.01.2021 11:06 23,4 °C 0,7 °C 43 % 92 % 1020,8 hPa 0,0 l/m² 7,6 km/h (2 Bft) N-NW 342 ° 2 min 88 W/m² -0,4 °C -0,5 °C 16,1 km/h (3 Bft)
09.01.2021 11:08 23,3 °C 0,7 °C 43 % 92 % 1020,8 hPa 0,0 l/m² 12,0 km/h (2 Bft) NW 316 ° 2 min 90 W/m² -0,4 °C -4,2 °C 20,9 km/h (4 Bft)
09.01.2021 11:10 23,4 °C 0,7 °C 43 % 92 % 1020,8 hPa 0,0 l/m² 6,3 km/h (2 Bft) N-NW 340 ° 2 min 86 W/m² -0,4 °C 0,7 °C 12,9 km/h (3 Bft)
09.01.2021 11:11 23,3 °C 0,7 °C 43 % 92 % 1020,8 hPa 0,0 l/m² 4,0 km/h (1 Bft) NW 309 ° 1 min 84 W/m² -0,4 °C 0,7 °C 8,0 km/h (2 Bft)
09.01.2021 11:13 23,4 °C 0,7 °C 43 % 92 % 1020,9 hPa 0,0 l/m² 8,0 km/h (2 Bft) W-NW 300 ° 2 min 81 W/m² -0,4 °C -0,9 °C 16,1 km/h (3 Bft)
09.01.2021 11:14 23,4 °C 0,7 °C 43 % 92 % 1020,9 hPa 0,0 l/m² 7,7 km/h (2 Bft) W-NW 303 ° 1 min 79 W/m² -0,4 °C -0,6 °C 16,1 km/h (3 Bft)
09.01.2021 11:16 23,4 °C 0,7 °C 43 % 91 % 1020,8 hPa 0,0 l/m² 9,1 km/h (2 Bft) W-NW 301 ° 2 min 76 W/m² -0,6 °C -1,9 °C 19,3 km/h (3 Bft)
09.01.2021 11:18 23,4 °C 0,8 °C 43 % 92 % 1020,8 hPa 0,0 l/m² 8,7 km/h (2 Bft) W 275 ° 2 min 76 W/m² -0,3 °C -1,5 °C 14,5 km/h (3 Bft)
09.01.2021 11:20 23,4 °C 0,7 °C 43 % 91 % 1020,9 hPa 0,0 l/m² 7,8 km/h (2 Bft) NW 321 ° 2 min 70 W/m² -0,6 °C -0,7 °C 16,1 km/h (3 Bft)
09.01.2021 11:21 23,4 °C 0,7 °C 43 % 91 % 1020,9 hPa 0,0 l/m² 7,9 km/h (2 Bft) W-NW 298 ° 1 min 72 W/m² -0,6 °C -0,8 °C 20,9 km/h (4 Bft)
09.01.2021 11:23 23,4 °C 0,8 °C 43 % 91 % 1020,9 hPa 0,0 l/m² 6,3 km/h (2 Bft) W-NW 293 ° 2 min 72 W/m² -0,5 °C 0,8 °C 12,9 km/h (3 Bft)
09.01.2021 11:24 23,4 °C 0,7 °C 43 % 91 % 1020,9 hPa 0,0 l/m² 11,5 km/h (2 Bft) NW 319 ° 1 min 72 W/m² -0,6 °C -3,8 °C 17,7 km/h (3 Bft)
09.01.2021 11:26 23,4 °C 0,7 °C 43 % 91 % 1020,9 hPa 0,0 l/m² 8,5 km/h (2 Bft) W 281 ° 2 min 69 W/m² -0,6 °C -1,4 °C 16,1 km/h (3 Bft)
09.01.2021 11:28 23,4 °C 0,7 °C 44 % 91 % 1020,9 hPa 0,0 l/m² 10,6 km/h (2 Bft) W-NW 284 ° 2 min 62 W/m² -0,6 °C -3,2 °C 17,7 km/h (3 Bft)
09.01.2021 11:30 23,4 °C 0,8 °C 43 % 91 % 1020,9 hPa 0,0 l/m² 8,8 km/h (2 Bft) NW 315 ° 2 min 65 W/m² -0,5 °C -1,5 °C 20,9 km/h (4 Bft)
09.01.2021 11:31 23,4 °C 0,8 °C 44 % 91 % 1020,9 hPa 0,0 l/m² 11,8 km/h (2 Bft) W-NW 292 ° 1 min 67 W/m² -0,5 °C -3,9 °C 19,3 km/h (3 Bft)
09.01.2021 11:33 23,4 °C 0,7 °C 44 % 91 % 1021,0 hPa 0,0 l/m² 8,2 km/h (2 Bft) NW 311 ° 2 min 70 W/m² -0,6 °C -1,1 °C 16,1 km/h (3 Bft)
09.01.2021 11:34 23,4 °C 0,7 °C 44 % 91 % 1021,0 hPa 0,0 l/m² 5,7 km/h (2 Bft) W-NW 297 ° 1 min 72 W/m² -0,6 °C 0,7 °C 11,3 km/h (2 Bft)
09.01.2021 11:36 23,4 °C 0,8 °C 44 % 91 % 1021,0 hPa 0,0 l/m² 6,3 km/h (2 Bft) NW 307 ° 2 min 74 W/m² -0,5 °C 0,8 °C 16,1 km/h (3 Bft)
09.01.2021 11:38 23,4 °C 0,7 °C 44 % 91 % 1020,9 hPa 0,0 l/m² 8,9 km/h (2 Bft) W-NW 298 ° 2 min 81 W/m² -0,6 °C -1,7 °C 17,7 km/h (3 Bft)
09.01.2021 11:40 23,4 °C 0,7 °C 44 % 91 % 1020,9 hPa 0,0 l/m² 8,3 km/h (2 Bft) NW 307 ° 2 min 97 W/m² -0,6 °C -1,2 °C 14,5 km/h (3 Bft)
09.01.2021 11:41 23,4 °C 0,8 °C 44 % 91 % 1020,9 hPa 0,0 l/m² 9,8 km/h (2 Bft) NW 317 ° 1 min 97 W/m² -0,5 °C -2,4 °C 16,1 km/h (3 Bft)
09.01.2021 11:43 23,4 °C 0,8 °C 43 % 91 % 1020,9 hPa 0,0 l/m² 8,9 km/h (2 Bft) W 279 ° 2 min 97 W/m² -0,5 °C -1,6 °C 22,5 km/h (4 Bft)
09.01.2021 11:44 23,4 °C 0,8 °C 43 % 91 % 1021,0 hPa 0,0 l/m² 9,8 km/h (2 Bft) W 277 ° 1 min 97 W/m² -0,5 °C -2,4 °C 16,1 km/h (3 Bft)
09.01.2021 11:46 23,4 °C 0,8 °C 43 % 91 % 1020,9 hPa 0,0 l/m² 9,9 km/h (2 Bft) NW 304 ° 2 min 100 W/m² -0,5 °C -2,5 °C 19,3 km/h (3 Bft)
09.01.2021 11:48 23,4 °C 0,8 °C 43 % 91 % 1020,9 hPa 0,0 l/m² 11,1 km/h (2 Bft) W-NW 286 ° 2 min 104 W/m² -0,5 °C -3,4 °C 22,5 km/h (4 Bft)
09.01.2021 11:50 23,4 °C 0,8 °C 43 % 91 % 1020,9 hPa 0,0 l/m² 12,0 km/h (2 Bft) W-NW 284 ° 2 min 95 W/m² -0,5 °C -4,1 °C 17,7 km/h (3 Bft)
09.01.2021 11:51 23,4 °C 0,8 °C 43 % 91 % 1021,0 hPa 0,0 l/m² 12,4 km/h (2 Bft) W-NW 290 ° 1 min 91 W/m² -0,5 °C -4,4 °C 17,7 km/h (3 Bft)
09.01.2021 11:53 23,4 °C 0,8 °C 43 % 91 % 1020,9 hPa 0,0 l/m² 11,3 km/h (2 Bft) W-NW 284 ° 2 min 91 W/m² -0,5 °C -3,6 °C 16,1 km/h (3 Bft)
09.01.2021 11:54 23,4 °C 0,8 °C 43 % 91 % 1020,9 hPa 0,0 l/m² 8,9 km/h (2 Bft) W 275 ° 1 min 91 W/m² -0,5 °C -1,6 °C 11,3 km/h (2 Bft)
09.01.2021 11:56 23,4 °C 0,8 °C 43 % 91 % 1020,9 hPa 0,0 l/m² 11,5 km/h (2 Bft) W 273 ° 2 min 91 W/m² -0,5 °C -3,7 °C 19,3 km/h (3 Bft)
09.01.2021 11:58 23,4 °C 0,8 °C 44 % 91 % 1021,0 hPa 0,0 l/m² 10,9 km/h (2 Bft) W-NW 303 ° 2 min 88 W/m² -0,5 °C -3,3 °C 14,5 km/h (3 Bft)
09.01.2021 12:00 23,4 °C 0,8 °C 44 % 91 % 1020,7 hPa 0,0 l/m² 7,9 km/h (2 Bft) W-NW 299 ° 2 min 90 W/m² -0,5 °C -0,7 °C 12,9 km/h (3 Bft)
09.01.2021 12:01 23,4 °C 0,8 °C 44 % 91 % 1020,6 hPa 0,0 l/m² 11,3 km/h (2 Bft) W 269 ° 1 min 98 W/m² -0,5 °C -3,6 °C 16,1 km/h (3 Bft)
09.01.2021 12:03 23,4 °C 0,8 °C 44 % 91 % 1020,7 hPa 0,0 l/m² 11,9 km/h (2 Bft) W 273 ° 2 min 97 W/m² -0,5 °C -4,0 °C 17,7 km/h (3 Bft)
09.01.2021 12:05 23,4 °C 0,8 °C 44 % 91 % 1020,6 hPa 0,0 l/m² 9,5 km/h (2 Bft) W-NW 282 ° 2 min 91 W/m² -0,5 °C -2,2 °C 14,5 km/h (3 Bft)
09.01.2021 12:07 23,4 °C 0,8 °C 44 % 91 % 1020,8 hPa 0,0 l/m² 10,8 km/h (2 Bft) W-NW 298 ° 2 min 90 W/m² -0,5 °C -3,2 °C 16,1 km/h (3 Bft)
09.01.2021 12:09 23,4 °C 0,8 °C 44 % 91 % 1020,7 hPa 0,0 l/m² 10,6 km/h (2 Bft) W 281 ° 2 min 86 W/m² -0,5 °C -3,0 °C 17,7 km/h (3 Bft)
09.01.2021 12:11 23,4 °C 0,8 °C 44 % 91 % 1020,8 hPa 0,0 l/m² 9,4 km/h (2 Bft) W-NW 294 ° 2 min 86 W/m² -0,5 °C -2,1 °C 19,3 km/h (3 Bft)
09.01.2021 12:12 23,4 °C 0,8 °C 44 % 91 % 1020,8 hPa 0,0 l/m² 7,9 km/h (2 Bft) W-NW 286 ° 1 min 86 W/m² -0,5 °C -0,7 °C 17,7 km/h (3 Bft)
09.01.2021 12:13 23,4 °C 0,8 °C 44 % 91 % 1020,8 hPa 0,0 l/m² 8,4 km/h (2 Bft) W-NW 282 ° 1 min 84 W/m² -0,5 °C -1,2 °C 14,5 km/h (3 Bft)
09.01.2021 12:15 23,4 °C 0,8 °C 44 % 91 % 1020,8 hPa 0,0 l/m² 8,2 km/h (2 Bft) NW 313 ° 2 min 84 W/m² -0,5 °C -1,0 °C 14,5 km/h (3 Bft)
09.01.2021 12:16 23,4 °C 0,8 °C 44 % 91 % 1020,7 hPa 0,0 l/m² 9,0 km/h (2 Bft) W-NW 287 ° 1 min 86 W/m² -0,5 °C -1,7 °C 11,3 km/h (2 Bft)
09.01.2021 12:18 23,4 °C 0,8 °C 44 % 91 % 1021,0 hPa 0,0 l/m² 7,8 km/h (2 Bft) NW 308 ° 2 min 86 W/m² -0,5 °C -0,6 °C 12,9 km/h (3 Bft)
09.01.2021 12:20 23,4 °C 0,8 °C 44 % 91 % 1021,1 hPa 0,0 l/m² 6,3 km/h (2 Bft) NW 319 ° 2 min 84 W/m² -0,5 °C 0,8 °C 12,9 km/h (3 Bft)
09.01.2021 12:22 23,4 °C 0,8 °C 43 % 91 % 1021,0 hPa 0,0 l/m² 5,3 km/h (1 Bft) W-NW 296 ° 2 min 86 W/m² -0,5 °C 0,8 °C 11,3 km/h (2 Bft)
09.01.2021 12:23 23,4 °C 0,8 °C 43 % 91 % 1021,0 hPa 0,0 l/m² 6,0 km/h (2 Bft) NW 310 ° 1 min 86 W/m² -0,5 °C 0,8 °C 8,0 km/h (2 Bft)
09.01.2021 12:24 23,4 °C 0,8 °C 43 % 91 % 1021,1 hPa 0,0 l/m² 5,5 km/h (2 Bft) W-NW 294 ° 1 min 84 W/m² -0,5 °C 0,8 °C 8,0 km/h (2 Bft)
09.01.2021 12:26 23,4 °C 0,8 °C 44 % 91 % 1021,0 hPa 0,0 l/m² 6,7 km/h (2 Bft) W-NW 301 ° 2 min 84 W/m² -0,5 °C 0,5 °C 12,9 km/h (3 Bft)
09.01.2021 12:28 23,4 °C 0,8 °C 44 % 91 % 1021,0 hPa 0,0 l/m² 8,3 km/h (2 Bft) NW 306 ° 2 min 84 W/m² -0,5 °C -1,1 °C 19,3 km/h (3 Bft)
09.01.2021 12:30 23,4 °C 0,8 °C 44 % 91 % 1021,0 hPa 0,0 l/m² 5,4 km/h (2 Bft) NW 309 ° 2 min 86 W/m² -0,5 °C 0,8 °C 12,9 km/h (3 Bft)
09.01.2021 12:32 23,4 °C 0,8 °C 44 % 91 % 1021,0 hPa 0,0 l/m² 5,9 km/h (2 Bft) W-NW 291 ° 2 min 90 W/m² -0,5 °C 0,8 °C 16,1 km/h (3 Bft)
09.01.2021 12:33 23,4 °C 0,8 °C 44 % 91 % 1021,0 hPa 0,0 l/m² 8,0 km/h (2 Bft) W-NW 283 ° 1 min 91 W/m² -0,5 °C -0,8 °C 14,5 km/h (3 Bft)
09.01.2021 12:34 23,4 °C 0,9 °C 44 % 91 % 1021,0 hPa 0,0 l/m² 5,5 km/h (2 Bft) NW 308 ° 1 min 91 W/m² -0,4 °C 0,9 °C 11,3 km/h (2 Bft)
09.01.2021 12:36 23,4 °C 0,9 °C 45 % 91 % 1021,0 hPa 0,0 l/m² 8,3 km/h (2 Bft) W-NW 297 ° 2 min 97 W/m² -0,4 °C -1,0 °C 14,5 km/h (3 Bft)
09.01.2021 12:38 23,4 °C 0,9 °C 45 % 91 % 1021,0 hPa 0,0 l/m² 8,9 km/h (2 Bft) W-NW 291 ° 2 min 97 W/m² -0,4 °C -1,5 °C 17,7 km/h (3 Bft)
09.01.2021 12:40 23,4 °C 0,9 °C 45 % 91 % 1021,0 hPa 0,0 l/m² 6,5 km/h (2 Bft) W-NW 286 ° 2 min 93 W/m² -0,4 °C 0,8 °C 14,5 km/h (3 Bft)
09.01.2021 12:42 23,4 °C 0,9 °C 45 % 91 % 1021,0 hPa 0,0 l/m² 7,3 km/h (2 Bft) W 273 ° 2 min 90 W/m² -0,4 °C -0,0 °C 14,5 km/h (3 Bft)
09.01.2021 12:43 23,4 °C 0,9 °C 45 % 91 % 1021,0 hPa 0,0 l/m² 6,2 km/h (2 Bft) W 281 ° 1 min 95 W/m² -0,4 °C 0,9 °C 9,7 km/h (2 Bft)
09.01.2021 12:45 23,4 °C 0,9 °C 45 % 91 % 1021,0 hPa 0,0 l/m² 8,1 km/h (2 Bft) W-NW 297 ° 2 min 93 W/m² -0,4 °C -0,8 °C 16,1 km/h (3 Bft)
09.01.2021 12:47 23,4 °C 0,9 °C 45 % 91 % 1021,0 hPa 0,0 l/m² 8,9 km/h (2 Bft) W-NW 284 ° 2 min 98 W/m² -0,4 °C -1,5 °C 17,7 km/h (3 Bft)
09.01.2021 12:49 23,4 °C 0,9 °C 46 % 91 % 1021,1 hPa 0,0 l/m² 9,3 km/h (2 Bft) W-SW 250 ° 2 min 100 W/m² -0,4 °C -1,9 °C 19,3 km/h (3 Bft)
09.01.2021 12:51 23,4 °C 0,9 °C 46 % 91 % 1021,0 hPa 0,0 l/m² 7,6 km/h (2 Bft) W 276 ° 2 min 93 W/m² -0,4 °C -0,3 °C 16,1 km/h (3 Bft)
09.01.2021 12:52 23,4 °C 0,8 °C 46 % 91 % 1021,0 hPa 0,0 l/m² 7,5 km/h (2 Bft) W 267 ° 1 min 91 W/m² -0,5 °C -0,3 °C 11,3 km/h (2 Bft)
09.01.2021 12:54 23,4 °C 0,8 °C 46 % 91 % 1021,1 hPa 0,0 l/m² 7,0 km/h (2 Bft) NW 304 ° 2 min 88 W/m² -0,5 °C 0,2 °C 12,9 km/h (3 Bft)
09.01.2021 12:56 23,5 °C 0,9 °C 46 % 91 % 1021,0 hPa 0,0 l/m² 10,5 km/h (2 Bft) W 262 ° 2 min 79 W/m² -0,4 °C -2,9 °C 17,7 km/h (3 Bft)
09.01.2021 12:58 23,5 °C 0,8 °C 46 % 91 % 1021,0 hPa 0,0 l/m² 12,9 km/h (3 Bft) NW 323 ° 2 min 76 W/m² -0,5 °C -4,7 °C 20,9 km/h (4 Bft)
09.01.2021 13:00 23,4 °C 0,8 °C 46 % 91 % 1021,0 hPa 0,0 l/m² 6,5 km/h (2 Bft) NW 309 ° 2 min 74 W/m² -0,5 °C 0,7 °C 14,5 km/h (3 Bft)
09.01.2021 13:02 23,4 °C 0,8 °C 46 % 91 % 1021,1 hPa 0,0 l/m² 8,0 km/h (2 Bft) W 278 ° 2 min 76 W/m² -0,5 °C -0,8 °C 14,5 km/h (3 Bft)
09.01.2021 13:03 23,4 °C 0,8 °C 46 % 91 % 1021,1 hPa 0,0 l/m² 7,0 km/h (2 Bft) W-NW 294 ° 1 min 79 W/m² -0,5 °C 0,2 °C 11,3 km/h (2 Bft)
09.01.2021 13:04 23,5 °C 0,8 °C 46 % 91 % 1021,1 hPa 0,0 l/m² 8,0 km/h (2 Bft) W-NW 294 ° 1 min 79 W/m² -0,5 °C -0,8 °C 12,9 km/h (3 Bft)
09.01.2021 13:06 23,5 °C 0,8 °C 46 % 91 % 1021,0 hPa 0,0 l/m² 7,9 km/h (2 Bft) NW 309 ° 2 min 83 W/m² -0,5 °C -0,7 °C 17,7 km/h (3 Bft)
09.01.2021 13:08 23,5 °C 0,8 °C 46 % 91 % 1021,0 hPa 0,0 l/m² 7,9 km/h (2 Bft) W-NW 283 ° 2 min 79 W/m² -0,5 °C -0,7 °C 14,5 km/h (3 Bft)
09.01.2021 13:10 23,5 °C 0,8 °C 46 % 91 % 1021,1 hPa 0,0 l/m² 9,1 km/h (2 Bft) W 281 ° 2 min 76 W/m² -0,5 °C -1,8 °C 17,7 km/h (3 Bft)
09.01.2021 13:12 23,5 °C 0,8 °C 46 % 91 % 1021,1 hPa 0,0 l/m² 8,0 km/h (2 Bft) W 269 ° 2 min 74 W/m² -0,5 °C -0,8 °C 19,3 km/h (3 Bft)
09.01.2021 13:13 23,5 °C 0,8 °C 46 % 91 % 1021,1 hPa 0,0 l/m² 8,6 km/h (2 Bft) W 271 ° 1 min 74 W/m² -0,5 °C -1,4 °C 16,1 km/h (3 Bft)
09.01.2021 13:14 23,5 °C 0,8 °C 46 % 91 % 1021,0 hPa 0,0 l/m² 8,0 km/h (2 Bft) W 278 ° 1 min 74 W/m² -0,5 °C -0,8 °C 12,9 km/h (3 Bft)
09.01.2021 13:16 23,5 °C 0,8 °C 46 % 91 % 1021,1 hPa 0,0 l/m² 7,5 km/h (2 Bft) NW 317 ° 2 min 76 W/m² -0,5 °C -0,3 °C 14,5 km/h (3 Bft)
09.01.2021 13:18 23,5 °C 0,8 °C 46 % 91 % 1021,2 hPa 0,0 l/m² 5,8 km/h (2 Bft) W-NW 300 ° 2 min 74 W/m² -0,5 °C 0,8 °C 16,1 km/h (3 Bft)
09.01.2021 13:20 23,5 °C 0,8 °C 46 % 91 % 1021,1 hPa 0,0 l/m² 8,5 km/h (2 Bft) NW 304 ° 2 min 74 W/m² -0,5 °C -1,3 °C 14,5 km/h (3 Bft)
09.01.2021 13:22 23,5 °C 0,8 °C 46 % 91 % 1021,1 hPa 0,0 l/m² 5,7 km/h (2 Bft) N-NW 342 ° 2 min 70 W/m² -0,5 °C 0,8 °C 14,5 km/h (3 Bft)
09.01.2021 13:23 23,5 °C 0,8 °C 46 % 91 % 1021,1 hPa 0,0 l/m² 7,8 km/h (2 Bft) W-NW 294 ° 1 min 69 W/m² -0,5 °C -0,6 °C 14,5 km/h (3 Bft)
09.01.2021 13:24 23,5 °C 0,9 °C 46 % 91 % 1021,2 hPa 0,0 l/m² 8,0 km/h (2 Bft) W-NW 292 ° 1 min 70 W/m² -0,4 °C -0,7 °C 14,5 km/h (3 Bft)
09.01.2021 13:26 23,5 °C 0,9 °C 46 % 91 % 1021,1 hPa 0,0 l/m² 10,9 km/h (2 Bft) W 273 ° 2 min 69 W/m² -0,4 °C -3,2 °C 17,7 km/h (3 Bft)
09.01.2021 13:28 23,5 °C 0,8 °C 46 % 91 % 1021,1 hPa 0,0 l/m² 12,4 km/h (2 Bft) W-SW 250 ° 2 min 65 W/m² -0,5 °C -4,4 °C 19,3 km/h (3 Bft)
09.01.2021 13:30 23,5 °C 0,8 °C 46 % 91 % 1021,1 hPa 0,0 l/m² 11,4 km/h (2 Bft) W 276 ° 2 min 67 W/m² -0,5 °C -3,6 °C 17,7 km/h (3 Bft)
09.01.2021 13:32 23,5 °C 0,8 °C 46 % 91 % 1021,1 hPa 0,0 l/m² 10,8 km/h (2 Bft) W 275 ° 2 min 65 W/m² -0,5 °C -3,2 °C 19,3 km/h (3 Bft)
09.01.2021 13:33 23,5 °C 0,8 °C 46 % 91 % 1021,1 hPa 0,0 l/m² 13,7 km/h (3 Bft) W 274 ° 1 min 65 W/m² -0,5 °C -5,2 °C 19,3 km/h (3 Bft)
09.01.2021 13:34 23,5 °C 0,8 °C 45 % 91 % 1021,1 hPa 0,0 l/m² 15,4 km/h (3 Bft) W-NW 284 ° 1 min 63 W/m² -0,5 °C -6,2 °C 19,3 km/h (3 Bft)
09.01.2021 13:36 23,5 °C 0,8 °C 46 % 91 % 1021,2 hPa 0,0 l/m² 15,3 km/h (3 Bft) W 277 ° 2 min 65 W/m² -0,5 °C -6,2 °C 19,3 km/h (3 Bft)
09.01.2021 13:38 23,6 °C 0,8 °C 46 % 91 % 1021,2 hPa 0,0 l/m² 8,4 km/h (2 Bft) W-NW 286 ° 2 min 69 W/m² -0,5 °C -1,2 °C 17,7 km/h (3 Bft)
09.01.2021 13:40 23,5 °C 0,8 °C 46 % 91 % 1021,2 hPa 0,0 l/m² 8,2 km/h (2 Bft) W 275 ° 2 min 69 W/m² -0,5 °C -1,0 °C 12,9 km/h (3 Bft)
09.01.2021 13:42 23,6 °C 0,8 °C 46 % 91 % 1021,2 hPa 0,0 l/m² 9,1 km/h (2 Bft) W-NW 290 ° 2 min 72 W/m² -0,5 °C -1,8 °C 16,1 km/h (3 Bft)
09.01.2021 13:43 23,6 °C 0,8 °C 46 % 91 % 1021,2 hPa 0,0 l/m² 7,5 km/h (2 Bft) W-NW 300 ° 1 min 74 W/m² -0,5 °C -0,3 °C 16,1 km/h (3 Bft)
09.01.2021 13:44 23,6 °C 0,8 °C 45 % 91 % 1021,2 hPa 0,0 l/m² 10,1 km/h (2 Bft) N-NW 327 ° 1 min 74 W/m² -0,5 °C -2,6 °C 17,7 km/h (3 Bft)
09.01.2021 13:46 23,5 °C 0,8 °C 45 % 91 % 1021,1 hPa 0,0 l/m² 8,5 km/h (2 Bft) NW 314 ° 2 min 69 W/m² -0,5 °C -1,3 °C 16,1 km/h (3 Bft)
09.01.2021 13:48 23,6 °C 0,8 °C 45 % 91 % 1021,1 hPa 0,0 l/m² 9,9 km/h (2 Bft) W 281 ° 2 min 62 W/m² -0,5 °C -2,5 °C 16,1 km/h (3 Bft)
09.01.2021 13:50 23,5 °C 0,8 °C 45 % 91 % 1021,2 hPa 0,0 l/m² 9,1 km/h (2 Bft) W 278 ° 2 min 65 W/m² -0,5 °C -1,8 °C 17,7 km/h (3 Bft)
09.01.2021 13:52 23,6 °C 0,8 °C 45 % 91 % 1021,2 hPa 0,0 l/m² 9,9 km/h (2 Bft) NW 304 ° 2 min 67 W/m² -0,5 °C -2,5 °C 17,7 km/h (3 Bft)
09.01.2021 13:53 23,6 °C 0,8 °C 45 % 91 % 1021,2 hPa 0,0 l/m² 7,6 km/h (2 Bft) W-NW 303 ° 1 min 65 W/m² -0,5 °C -0,4 °C 11,3 km/h (2 Bft)
09.01.2021 13:54 23,6 °C 0,8 °C 45 % 91 % 1021,1 hPa 0,0 l/m² 11,7 km/h (2 Bft) W-NW 292 ° 1 min 67 W/m² -0,5 °C -3,9 °C 17,7 km/h (3 Bft)
09.01.2021 13:56 23,6 °C 0,8 °C 45 % 91 % 1021,1 hPa 0,0 l/m² 9,1 km/h (2 Bft) W-NW 288 ° 2 min 65 W/m² -0,5 °C -1,8 °C 14,5 km/h (3 Bft)
09.01.2021 13:58 23,6 °C 0,9 °C 45 % 91 % 1021,1 hPa 0,0 l/m² 8,6 km/h (2 Bft) W-NW 295 ° 2 min 63 W/m² -0,4 °C -1,3 °C 16,1 km/h (3 Bft)
09.01.2021 14:00 23,6 °C 0,8 °C 45 % 91 % 1021,2 hPa 0,0 l/m² 9,5 km/h (2 Bft) W-NW 292 ° 2 min 62 W/m² -0,5 °C -2,2 °C 17,7 km/h (3 Bft)
09.01.2021 14:02 23,6 °C 0,9 °C 45 % 91 % 1021,1 hPa 0,0 l/m² 6,4 km/h (2 Bft) W-NW 301 ° 2 min 62 W/m² -0,4 °C 0,9 °C 11,3 km/h (2 Bft)
09.01.2021 14:03 23,6 °C 0,9 °C 45 % 91 % 1021,1 hPa 0,0 l/m² 7,8 km/h (2 Bft) N-NW 328 ° 1 min 62 W/m² -0,4 °C -0,5 °C 11,3 km/h (2 Bft)
09.01.2021 14:04 23,6 °C 0,9 °C 45 % 91 % 1021,1 hPa 0,0 l/m² 7,9 km/h (2 Bft) W-NW 299 ° 1 min 62 W/m² -0,4 °C -0,6 °C 12,9 km/h (3 Bft)
09.01.2021 14:06 23,6 °C 0,9 °C 45 % 91 % 1021,1 hPa 0,0 l/m² 8,9 km/h (2 Bft) W-NW 289 ° 2 min 63 W/m² -0,4 °C -1,5 °C 16,1 km/h (3 Bft)
09.01.2021 14:08 23,6 °C 0,9 °C 45 % 91 % 1021,1 hPa 0,0 l/m² 9,6 km/h (2 Bft) W 278 ° 2 min 60 W/m² -0,4 °C -2,1 °C 14,5 km/h (3 Bft)
09.01.2021 14:10 23,6 °C 0,9 °C 45 % 90 % 1021,2 hPa 0,0 l/m² 8,3 km/h (2 Bft) NW 304 ° 2 min 58 W/m² -0,6 °C -1,0 °C 14,5 km/h (3 Bft)
09.01.2021 14:12 23,6 °C 0,9 °C 45 % 90 % 1021,2 hPa 0,0 l/m² 10,4 km/h (2 Bft) NW 321 ° 2 min 56 W/m² -0,6 °C -2,8 °C 17,7 km/h (3 Bft)
09.01.2021 14:13 23,6 °C 0,9 °C 45 % 90 % 1021,2 hPa 0,0 l/m² 8,8 km/h (2 Bft) NW 321 ° 1 min 56 W/m² -0,6 °C -1,4 °C 16,1 km/h (3 Bft)
09.01.2021 14:14 23,6 °C 0,9 °C 45 % 90 % 1021,2 hPa 0,0 l/m² 9,0 km/h (2 Bft) W-NW 300 ° 1 min 54 W/m² -0,6 °C -1,6 °C 16,1 km/h (3 Bft)
09.01.2021 14:16 23,6 °C 0,9 °C 45 % 91 % 1021,2 hPa 0,0 l/m² 8,7 km/h (2 Bft) NW 319 ° 2 min 53 W/m² -0,4 °C -1,3 °C 16,1 km/h (3 Bft)
09.01.2021 14:18 23,6 °C 0,9 °C 45 % 90 % 1021,3 hPa 0,0 l/m² 9,5 km/h (2 Bft) NW 304 ° 2 min 53 W/m² -0,6 °C -2,0 °C 17,7 km/h (3 Bft)
09.01.2021 14:20 23,6 °C 0,9 °C 45 % 90 % 1021,3 hPa 0,0 l/m² 7,7 km/h (2 Bft) W 277 ° 2 min 53 W/m² -0,6 °C -0,4 °C 14,5 km/h (3 Bft)
09.01.2021 14:22 23,6 °C 0,9 °C 45 % 90 % 1021,3 hPa 0,0 l/m² 7,8 km/h (2 Bft) W-NW 288 ° 0 min 49 W/m² -0,6 °C -0,5 °C 14,5 km/h (3 Bft)
09.01.2021 14:23 23,6 °C 0,9 °C 45 % 90 % 1021,3 hPa 0,0 l/m² 7,1 km/h (2 Bft) NW 305 ° 0 min 49 W/m² -0,6 °C 0,2 °C 14,5 km/h (3 Bft)
09.01.2021 14:24 23,6 °C 0,9 °C 45 % 90 % 1021,3 hPa 0,0 l/m² 7,2 km/h (2 Bft) NW 309 ° 0 min 47 W/m² -0,6 °C 0,1 °C 12,9 km/h (3 Bft)
09.01.2021 14:26 23,6 °C 0,9 °C 45 % 90 % 1021,3 hPa 0,0 l/m² 6,7 km/h (2 Bft) NW 319 ° 0 min 46 W/m² -0,6 °C 0,6 °C 12,9 km/h (3 Bft)
09.01.2021 14:28 23,6 °C 0,9 °C 45 % 90 % 1021,3 hPa 0,0 l/m² 7,8 km/h (2 Bft) NW 311 ° 0 min 46 W/m² -0,6 °C -0,5 °C 17,7 km/h (3 Bft)
09.01.2021 14:30 23,6 °C 0,9 °C 45 % 90 % 1021,3 hPa 0,0 l/m² 6,2 km/h (2 Bft) W-NW 284 ° 0 min 49 W/m² -0,6 °C 0,9 °C 16,1 km/h (3 Bft)
09.01.2021 14:32 23,6 °C 0,9 °C 45 % 90 % 1021,4 hPa 0,0 l/m² 6,6 km/h (2 Bft) W-NW 287 ° 0 min 49 W/m² -0,6 °C 0,7 °C 14,5 km/h (3 Bft)
09.01.2021 14:33 23,6 °C 1,0 °C 45 % 90 % 1021,4 hPa 0,0 l/m² 7,6 km/h (2 Bft) W-NW 291 ° 0 min 49 W/m² -0,5 °C -0,2 °C 16,1 km/h (3 Bft)
09.01.2021 14:34 23,6 °C 0,9 °C 45 % 90 % 1021,4 hPa 0,0 l/m² 7,0 km/h (2 Bft) N-NW 344 ° 0 min 47 W/m² -0,6 °C 0,3 °C 12,9 km/h (3 Bft)
09.01.2021 14:36 23,6 °C 0,9 °C 45 % 90 % 1021,4 hPa 0,0 l/m² 8,8 km/h (2 Bft) W-NW 296 ° 0 min 46 W/m² -0,6 °C -1,4 °C 16,1 km/h (3 Bft)
09.01.2021 14:38 23,6 °C 0,9 °C 45 % 90 % 1021,4 hPa 0,0 l/m² 8,0 km/h (2 Bft) NW 316 ° 0 min 46 W/m² -0,6 °C -0,7 °C 14,5 km/h (3 Bft)
09.01.2021 14:40 23,6 °C 0,9 °C 45 % 90 % 1021,4 hPa 0,0 l/m² 10,3 km/h (2 Bft) NW 318 ° 0 min 42 W/m² -0,6 °C -2,7 °C 16,1 km/h (3 Bft)
09.01.2021 14:42 23,6 °C 0,9 °C 45 % 90 % 1021,4 hPa 0,0 l/m² 8,4 km/h (2 Bft) NW 315 ° 0 min 40 W/m² -0,6 °C -1,1 °C 16,1 km/h (3 Bft)
09.01.2021 14:43 23,6 °C 1,0 °C 45 % 90 % 1021,4 hPa 0,0 l/m² 11,0 km/h (2 Bft) W-NW 282 ° 0 min 40 W/m² -0,5 °C -3,1 °C 16,1 km/h (3 Bft)
09.01.2021 14:44 23,6 °C 0,9 °C 45 % 90 % 1021,5 hPa 0,0 l/m² 7,9 km/h (2 Bft) NW 312 ° 0 min 42 W/m² -0,6 °C -0,6 °C 12,9 km/h (3 Bft)
09.01.2021 14:46 23,6 °C 0,9 °C 45 % 90 % 1021,5 hPa 0,0 l/m² 12,7 km/h (3 Bft) NW 321 ° 0 min 40 W/m² -0,6 °C -4,4 °C 19,3 km/h (3 Bft)
09.01.2021 14:48 23,6 °C 0,9 °C 45 % 90 % 1021,5 hPa 0,0 l/m² 8,2 km/h (2 Bft) NW 309 ° 0 min 37 W/m² -0,6 °C -0,9 °C 17,7 km/h (3 Bft)
09.01.2021 14:50 23,6 °C 1,0 °C 45 % 90 % 1021,6 hPa 0,0 l/m² 9,9 km/h (2 Bft) NW 315 ° 0 min 35 W/m² -0,5 °C -2,3 °C 16,1 km/h (3 Bft)
09.01.2021 14:52 23,6 °C 1,0 °C 45 % 90 % 1021,5 hPa 0,0 l/m² 7,6 km/h (2 Bft) NW 309 ° 0 min 33 W/m² -0,5 °C -0,2 °C 16,1 km/h (3 Bft)
09.01.2021 14:53 23,6 °C 0,9 °C 45 % 90 % 1021,5 hPa 0,0 l/m² 11,2 km/h (2 Bft) W 271 ° 0 min 32 W/m² -0,6 °C -3,4 °C 16,1 km/h (3 Bft)
09.01.2021 14:54 23,6 °C 0,9 °C 45 % 90 % 1021,5 hPa 0,0 l/m² 8,2 km/h (2 Bft) NW 312 ° 0 min 32 W/m² -0,6 °C -0,9 °C 16,1 km/h (3 Bft)
09.01.2021 14:56 23,6 °C 0,9 °C 45 % 90 % 1021,7 hPa 0,0 l/m² 4,9 km/h (1 Bft) NW 309 ° 0 min 30 W/m² -0,6 °C 0,9 °C 11,3 km/h (2 Bft)
09.01.2021 14:58 23,6 °C 1,0 °C 45 % 90 % 1021,7 hPa 0,0 l/m² 9,2 km/h (2 Bft) NW 319 ° 0 min 28 W/m² -0,5 °C -1,7 °C 14,5 km/h (3 Bft)
09.01.2021 15:00 23,6 °C 0,9 °C 45 % 90 % 1021,7 hPa 0,0 l/m² 7,1 km/h (2 Bft) W-NW 300 ° 0 min 28 W/m² -0,6 °C 0,2 °C 14,5 km/h (3 Bft)
09.01.2021 15:02 23,6 °C 0,9 °C 45 % 90 % 1021,7 hPa 0,0 l/m² 4,1 km/h (1 Bft) W 280 ° 0 min 28 W/m² -0,6 °C 0,9 °C 8,0 km/h (2 Bft)
09.01.2021 15:03 23,6 °C 0,9 °C 45 % 90 % 1021,7 hPa 0,0 l/m² 5,7 km/h (2 Bft) N-NW 334 ° 0 min 28 W/m² -0,6 °C 0,9 °C 12,9 km/h (3 Bft)
09.01.2021 15:04 23,6 °C 0,9 °C 45 % 90 % 1021,7 hPa 0,0 l/m² 5,9 km/h (2 Bft) NW 321 ° 0 min 28 W/m² -0,6 °C 0,9 °C 9,7 km/h (2 Bft)
09.01.2021 15:06 23,6 °C 0,9 °C 45 % 90 % 1021,8 hPa 0,0 l/m² 7,7 km/h (2 Bft) W 279 ° 0 min 28 W/m² -0,6 °C -0,4 °C 12,9 km/h (3 Bft)
09.01.2021 15:08 23,6 °C 1,0 °C 45 % 90 % 1021,8 hPa 0,0 l/m² 6,8 km/h (2 Bft) NW 306 ° 0 min 28 W/m² -0,5 °C 0,6 °C 11,3 km/h (2 Bft)
09.01.2021 15:10 23,6 °C 0,9 °C 45 % 90 % 1021,9 hPa 0,0 l/m² 4,6 km/h (1 Bft) NW 309 ° 0 min 28 W/m² -0,6 °C 0,9 °C 14,5 km/h (3 Bft)
09.01.2021 15:12 23,6 °C 0,9 °C 45 % 90 % 1021,9 hPa 0,2 l/m² 6,8 km/h (2 Bft) NW 322 ° 0 min 26 W/m² -0,6 °C 0,5 °C 14,5 km/h (3 Bft)
09.01.2021 15:13 23,6 °C 0,9 °C 45 % 90 % 1021,9 hPa 0,0 l/m² 5,3 km/h (1 Bft) NW 311 ° 0 min 26 W/m² -0,6 °C 0,9 °C 6,4 km/h (2 Bft)
09.01.2021 15:14 23,6 °C 0,9 °C 45 % 90 % 1021,9 hPa 0,0 l/m² 8,0 km/h (2 Bft) W-NW 297 ° 0 min 26 W/m² -0,6 °C -0,7 °C 14,5 km/h (3 Bft)
09.01.2021 15:16 23,5 °C 0,9 °C 45 % 90 % 1022,0 hPa 0,0 l/m² 6,0 km/h (2 Bft) W 275 ° 0 min 25 W/m² -0,6 °C 0,9 °C 14,5 km/h (3 Bft)
09.01.2021 15:18 23,5 °C 0,9 °C 45 % 90 % 1022,0 hPa 0,0 l/m² 8,9 km/h (2 Bft) NW 304 ° 0 min 25 W/m² -0,6 °C -1,5 °C 14,5 km/h (3 Bft)
09.01.2021 15:20 23,5 °C 0,9 °C 45 % 90 % 1022,1 hPa 0,0 l/m² 3,7 km/h (1 Bft) NW 306 ° 0 min 23 W/m² -0,6 °C 0,9 °C 8,0 km/h (2 Bft)
09.01.2021 15:22 23,5 °C 0,9 °C 43 % 90 % 1022,1 hPa 0,0 l/m² 4,2 km/h (1 Bft) W-NW 284 ° 0 min 23 W/m² -0,6 °C 0,9 °C 9,7 km/h (2 Bft)
09.01.2021 15:23 23,5 °C 0,9 °C 43 % 90 % 1022,1 hPa 0,0 l/m² 4,6 km/h (1 Bft) W-NW 288 ° 0 min 23 W/m² -0,6 °C 0,9 °C 11,3 km/h (2 Bft)
09.01.2021 15:24 23,4 °C 0,9 °C 44 % 90 % 1022,2 hPa 0,0 l/m² 7,4 km/h (2 Bft) NW 309 ° 0 min 23 W/m² -0,6 °C -0,1 °C 14,5 km/h (3 Bft)
09.01.2021 15:26 23,4 °C 0,9 °C 44 % 90 % 1022,0 hPa 0,0 l/m² 5,9 km/h (2 Bft) NW 323 ° 0 min 23 W/m² -0,6 °C 0,9 °C 12,9 km/h (3 Bft)
09.01.2021 15:28 23,4 °C 0,9 °C 44 % 90 % 1022,2 hPa 0,0 l/m² 5,3 km/h (1 Bft) NW 313 ° 0 min 21 W/m² -0,6 °C 0,9 °C 12,9 km/h (3 Bft)
09.01.2021 15:30 23,4 °C 0,9 °C 44 % 90 % 1022,1 hPa 0,0 l/m² 6,5 km/h (2 Bft) NW 308 ° 0 min 21 W/m² -0,6 °C 0,8 °C 14,5 km/h (3 Bft)
09.01.2021 15:32 23,4 °C 0,9 °C 44 % 90 % 1022,1 hPa 0,0 l/m² 4,7 km/h (1 Bft) W-NW 298 ° 0 min 19 W/m² -0,6 °C 0,9 °C 9,7 km/h (2 Bft)
09.01.2021 15:33 23,4 °C 0,9 °C 44 % 90 % 1022,1 hPa 0,0 l/m² 6,2 km/h (2 Bft) W-NW 286 ° 0 min 19 W/m² -0,6 °C 0,9 °C 11,3 km/h (2 Bft)
09.01.2021 15:34 23,4 °C 0,9 °C 44 % 90 % 1022,2 hPa 0,0 l/m² 2,0 km/h (1 Bft) W-NW 283 ° 0 min 18 W/m² -0,6 °C 0,9 °C 3,2 km/h (1 Bft)
09.01.2021 15:36 23,4 °C 0,9 °C 44 % 90 % 1022,2 hPa 0,0 l/m² 6,3 km/h (2 Bft) NW 317 ° 0 min 18 W/m² -0,6 °C 0,9 °C 12,9 km/h (3 Bft)
09.01.2021 15:38 23,4 °C 0,9 °C 45 % 90 % 1022,2 hPa 0,0 l/m² 6,5 km/h (2 Bft) W-NW 302 ° 0 min 16 W/m² -0,6 °C 0,8 °C 12,9 km/h (3 Bft)
09.01.2021 15:40 23,4 °C 0,9 °C 45 % 90 % 1022,2 hPa 0,0 l/m² 8,3 km/h (2 Bft) W-NW 283 ° 0 min 18 W/m² -0,6 °C -1,0 °C 14,5 km/h (3 Bft)
09.01.2021 15:42 23,4 °C 0,9 °C 45 % 90 % 1022,1 hPa 0,0 l/m² 5,1 km/h (1 Bft) W 275 ° 0 min 18 W/m² -0,6 °C 0,9 °C 9,7 km/h (2 Bft)
09.01.2021 15:43 23,4 °C 0,9 °C 45 % 90 % 1022,1 hPa 0,0 l/m² 6,1 km/h (2 Bft) NW 312 ° 0 min 18 W/m² -0,6 °C 0,9 °C 12,9 km/h (3 Bft)
09.01.2021 15:45 23,4 °C 0,9 °C 45 % 90 % 1022,1 hPa 0,2 l/m² 7,7 km/h (2 Bft) NW 311 ° 0 min 18 W/m² -0,6 °C -0,4 °C 14,5 km/h (3 Bft)
09.01.2021 15:47 23,4 °C 0,9 °C 46 % 90 % 1022,2 hPa 0,0 l/m² 9,4 km/h (2 Bft) W-NW 285 ° 0 min 18 W/m² -0,6 °C -2,0 °C 19,3 km/h (3 Bft)
09.01.2021 15:49 23,4 °C 0,9 °C 46 % 90 % 1022,2 hPa 0,0 l/m² 7,1 km/h (2 Bft) W-NW 283 ° 0 min 16 W/m² -0,6 °C 0,2 °C 19,3 km/h (3 Bft)
09.01.2021 15:51 23,5 °C 0,9 °C 46 % 90 % 1022,2 hPa 0,0 l/m² 7,5 km/h (2 Bft) NW 311 ° 0 min 12 W/m² -0,6 °C -0,2 °C 14,5 km/h (3 Bft)
09.01.2021 15:52 23,5 °C 0,9 °C 46 % 90 % 1022,2 hPa 0,0 l/m² 9,6 km/h (2 Bft) NW 309 ° 0 min 12 W/m² -0,6 °C -2,1 °C 16,1 km/h (3 Bft)
09.01.2021 15:53 23,5 °C 0,9 °C 46 % 90 % 1022,3 hPa 0,0 l/m² 6,2 km/h (2 Bft) NW 317 ° 0 min 12 W/m² -0,6 °C 0,9 °C 11,3 km/h (2 Bft)
09.01.2021 15:55 23,6 °C 0,9 °C 46 % 90 % 1022,3 hPa 0,0 l/m² 6,5 km/h (2 Bft) NW 323 ° 0 min 11 W/m² -0,6 °C 0,8 °C 12,9 km/h (3 Bft)
09.01.2021 15:57 23,6 °C 0,9 °C 46 % 90 % 1022,2 hPa 0,0 l/m² 7,6 km/h (2 Bft) W-NW 294 ° 0 min 11 W/m² -0,6 °C -0,3 °C 16,1 km/h (3 Bft)
09.01.2021 15:59 23,6 °C 0,9 °C 46 % 90 % 1022,2 hPa 0,0 l/m² 6,2 km/h (2 Bft) NW 314 ° 0 min 11 W/m² -0,6 °C 0,9 °C 11,3 km/h (2 Bft)
09.01.2021 16:01 23,6 °C 0,9 °C 46 % 90 % 1022,3 hPa 0,0 l/m² 7,3 km/h (2 Bft) W-NW 300 ° 0 min 9 W/m² -0,6 °C -0,0 °C 14,5 km/h (3 Bft)
09.01.2021 16:02 23,6 °C 0,9 °C 46 % 90 % 1022,3 hPa 0,0 l/m² 8,1 km/h (2 Bft) W 276 ° 0 min 9 W/m² -0,6 °C -0,8 °C 14,5 km/h (3 Bft)
09.01.2021 16:03 23,6 °C 0,9 °C 46 % 90 % 1022,3 hPa 0,0 l/m² 7,2 km/h (2 Bft) W 272 ° 0 min 9 W/m² -0,6 °C 0,1 °C 14,5 km/h (3 Bft)
09.01.2021 16:05 23,6 °C 0,9 °C 46 % 90 % 1022,3 hPa 0,0 l/m² 6,5 km/h (2 Bft) N-NW 327 ° 0 min 7 W/m² -0,6 °C 0,8 °C 14,5 km/h (3 Bft)
09.01.2021 16:07 23,7 °C 0,9 °C 46 % 90 % 1022,3 hPa 0,0 l/m² 8,7 km/h (2 Bft) NW 304 ° 0 min 7 W/m² -0,6 °C -1,3 °C 16,1 km/h (3 Bft)
09.01.2021 16:09 23,7 °C 0,9 °C 46 % 90 % 1022,4 hPa 0,0 l/m² 6,5 km/h (2 Bft) W-NW 292 ° 0 min 5 W/m² -0,6 °C 0,8 °C 14,5 km/h (3 Bft)
09.01.2021 16:11 23,7 °C 0,8 °C 46 % 90 % 1022,2 hPa 0,0 l/m² 6,9 km/h (2 Bft) W-NW 293 ° 0 min 5 W/m² -0,6 °C 0,3 °C 12,9 km/h (3 Bft)
09.01.2021 16:12 23,7 °C 0,8 °C 46 % 90 % 1022,2 hPa 0,0 l/m² 8,9 km/h (2 Bft) W 281 ° 0 min 5 W/m² -0,6 °C -1,6 °C 12,9 km/h (3 Bft)
09.01.2021 16:13 23,7 °C 0,9 °C 46 % 90 % 1022,2 hPa 0,0 l/m² 9,2 km/h (2 Bft) NW 319 ° 0 min 5 W/m² -0,6 °C -1,8 °C 14,5 km/h (3 Bft)
09.01.2021 16:15 23,7 °C 0,9 °C 46 % 90 % 1022,2 hPa 0,0 l/m² 10,6 km/h (2 Bft) W-NW 289 ° 0 min 0 W/m² -0,6 °C -2,9 °C 22,5 km/h (4 Bft)
09.01.2021 16:17 23,7 °C 0,8 °C 46 % 90 % 1022,4 hPa 0,0 l/m² 10,1 km/h (2 Bft) W 281 ° 0 min 0 W/m² -0,6 °C -2,6 °C 17,7 km/h (3 Bft)
09.01.2021 16:19 23,7 °C 0,9 °C 46 % 90 % 1022,3 hPa 0,0 l/m² 6,9 km/h (2 Bft) W-NW 292 ° 0 min 0 W/m² -0,6 °C 0,4 °C 17,7 km/h (3 Bft)
09.01.2021 16:21 23,7 °C 0,8 °C 46 % 90 % 1022,3 hPa 0,0 l/m² 11,7 km/h (2 Bft) N-NW 332 ° 0 min 0 W/m² -0,6 °C -3,9 °C 20,9 km/h (4 Bft)
09.01.2021 16:22 23,7 °C 0,8 °C 46 % 91 % 1022,3 hPa 0,0 l/m² 11,8 km/h (2 Bft) W-NW 296 ° 0 min 0 W/m² -0,5 °C -3,9 °C 17,7 km/h (3 Bft)
09.01.2021 16:23 23,7 °C 0,8 °C 46 % 91 % 1022,2 hPa 0,0 l/m² 13,1 km/h (3 Bft) W-NW 298 ° 0 min 0 W/m² -0,5 °C -4,8 °C 17,7 km/h (3 Bft)
09.01.2021 16:25 23,7 °C 0,8 °C 46 % 91 % 1022,4 hPa 0,0 l/m² 11,0 km/h (2 Bft) W-NW 289 ° 0 min 0 W/m² -0,5 °C -3,3 °C 24,1 km/h (4 Bft)
09.01.2021 16:27 23,8 °C 0,8 °C 46 % 91 % 1022,2 hPa 0,0 l/m² 11,9 km/h (2 Bft) N-NW 344 ° 0 min 0 W/m² -0,5 °C -4,0 °C 20,9 km/h (4 Bft)
09.01.2021 16:29 23,8 °C 0,8 °C 46 % 90 % 1022,3 hPa 0,0 l/m² 7,9 km/h (2 Bft) NW 323 ° 0 min 0 W/m² -0,6 °C -0,7 °C 19,3 km/h (3 Bft)
09.01.2021 16:31 23,8 °C 0,8 °C 46 % 90 % 1022,3 hPa 0,2 l/m² 10,8 km/h (2 Bft) W-NW 290 ° 0 min 0 W/m² -0,6 °C -3,2 °C 17,7 km/h (3 Bft)
09.01.2021 16:32 23,8 °C 0,8 °C 46 % 90 % 1022,3 hPa 0,0 l/m² 12,2 km/h (2 Bft) W-NW 296 ° 0 min 0 W/m² -0,6 °C -4,2 °C 16,1 km/h (3 Bft)
09.01.2021 16:33 23,8 °C 0,8 °C 46 % 90 % 1022,4 hPa 0,0 l/m² 9,5 km/h (2 Bft) W 259 ° 0 min 0 W/m² -0,6 °C -2,2 °C 14,5 km/h (3 Bft)
09.01.2021 16:35 23,8 °C 0,8 °C 46 % 90 % 1022,4 hPa 0,0 l/m² 8,2 km/h (2 Bft) W-NW 303 ° 0 min 0 W/m² -0,6 °C -1,0 °C 19,3 km/h (3 Bft)
09.01.2021 16:37 23,8 °C 0,8 °C 46 % 90 % 1022,4 hPa 0,0 l/m² 11,6 km/h (2 Bft) NW 319 ° 0 min 0 W/m² -0,6 °C -3,8 °C 17,7 km/h (3 Bft)
09.01.2021 16:39 23,8 °C 0,8 °C 46 % 90 % 1022,4 hPa 0,0 l/m² 6,7 km/h (2 Bft) N-NW 333 ° 0 min 0 W/m² -0,6 °C 0,5 °C 12,9 km/h (3 Bft)
09.01.2021 16:41 23,8 °C 0,8 °C 46 % 90 % 1022,4 hPa 0,0 l/m² 9,1 km/h (2 Bft) W 277 ° 0 min 0 W/m² -0,6 °C -1,8 °C 17,7 km/h (3 Bft)
09.01.2021 16:42 23,8 °C 0,8 °C 46 % 90 % 1022,4 hPa 0,0 l/m² 8,0 km/h (2 Bft) W-NW 297 ° 0 min 0 W/m² -0,6 °C -0,8 °C 12,9 km/h (3 Bft)
09.01.2021 16:43 23,8 °C 0,8 °C 46 % 90 % 1022,4 hPa 0,0 l/m² 8,1 km/h (2 Bft) W 281 ° 0 min 0 W/m² -0,6 °C -0,9 °C 14,5 km/h (3 Bft)
09.01.2021 16:45 23,8 °C 0,8 °C 46 % 90 % 1022,4 hPa 0,0 l/m² 7,8 km/h (2 Bft) NW 319 ° 0 min 0 W/m² -0,6 °C -0,6 °C 12,9 km/h (3 Bft)
09.01.2021 16:47 23,8 °C 0,8 °C 46 % 90 % 1022,4 hPa 0,0 l/m² 6,9 km/h (2 Bft) N-NW 327 ° 0 min 0 W/m² -0,6 °C 0,3 °C 16,1 km/h (3 Bft)
09.01.2021 16:49 23,8 °C 0,8 °C 44 % 90 % 1022,4 hPa 0,0 l/m² 9,2 km/h (2 Bft) N-NW 343 ° 0 min 0 W/m² -0,6 °C -1,9 °C 17,7 km/h (3 Bft)
09.01.2021 16:51 23,7 °C 0,8 °C 41 % 90 % 1022,4 hPa 0,0 l/m² 10,6 km/h (2 Bft) N-NW 336 ° 0 min 0 W/m² -0,6 °C -3,0 °C 17,7 km/h (3 Bft)
09.01.2021 16:52 23,7 °C 0,8 °C 41 % 90 % 1022,4 hPa 0,0 l/m² 11,3 km/h (2 Bft) N 355 ° 0 min 0 W/m² -0,6 °C -3,6 °C 20,9 km/h (4 Bft)
09.01.2021 16:53 23,7 °C 0,8 °C 41 % 90 % 1022,6 hPa 0,0 l/m² 10,9 km/h (2 Bft) NW 325 ° 0 min 0 W/m² -0,6 °C -3,3 °C 17,7 km/h (3 Bft)
09.01.2021 16:55 23,7 °C 0,8 °C 42 % 90 % 1022,6 hPa 0,0 l/m² 8,9 km/h (2 Bft) W-NW 286 ° 0 min 0 W/m² -0,6 °C -1,6 °C 17,7 km/h (3 Bft)
09.01.2021 16:57 23,7 °C 0,8 °C 43 % 90 % 1022,6 hPa 0,0 l/m² 8,7 km/h (2 Bft) N-NW 331 ° 0 min 0 W/m² -0,6 °C -1,5 °C 14,5 km/h (3 Bft)
09.01.2021 16:59 23,7 °C 0,8 °C 43 % 90 % 1022,6 hPa 0,0 l/m² 12,1 km/h (2 Bft) NW 304 ° 0 min 0 W/m² -0,6 °C -4,2 °C 19,3 km/h (3 Bft)
09.01.2021 17:01 23,7 °C 0,8 °C 43 % 90 % 1022,7 hPa 0,0 l/m² 8,6 km/h (2 Bft) W-NW 303 ° 0 min 0 W/m² -0,6 °C -1,4 °C 20,9 km/h (4 Bft)
09.01.2021 17:02 23,7 °C 0,8 °C 43 % 90 % 1022,7 hPa 0,0 l/m² 10,9 km/h (2 Bft) W-NW 289 ° 0 min 0 W/m² -0,6 °C -3,3 °C 17,7 km/h (3 Bft)
09.01.2021 17:03 23,7 °C 0,8 °C 43 % 90 % 1022,5 hPa 0,0 l/m² 11,5 km/h (2 Bft) NW 304 ° 0 min 0 W/m² -0,6 °C -3,7 °C 17,7 km/h (3 Bft)
09.01.2021 17:05 23,7 °C 0,8 °C 43 % 90 % 1022,7 hPa 0,0 l/m² 7,9 km/h (2 Bft) NW 309 ° 0 min 0 W/m² -0,6 °C -0,7 °C 16,1 km/h (3 Bft)
09.01.2021 17:07 23,7 °C 0,8 °C 44 % 91 % 1022,7 hPa 0,0 l/m² 10,0 km/h (2 Bft) N-NW 335 ° 0 min 0 W/m² -0,5 °C -2,6 °C 16,1 km/h (3 Bft)
09.01.2021 17:09 23,7 °C 0,8 °C 44 % 91 % 1022,7 hPa 0,0 l/m² 9,8 km/h (2 Bft) NW 314 ° 0 min 0 W/m² -0,5 °C -2,4 °C 17,7 km/h (3 Bft)
09.01.2021 17:11 23,7 °C 0,8 °C 44 % 90 % 1022,7 hPa 0,0 l/m² 8,5 km/h (2 Bft) NW 325 ° 0 min 0 W/m² -0,6 °C -1,3 °C 14,5 km/h (3 Bft)
09.01.2021 17:12 23,7 °C 0,8 °C 44 % 91 % 1022,7 hPa 0,0 l/m² 10,3 km/h (2 Bft) W-NW 297 ° 0 min 0 W/m² -0,5 °C -2,8 °C 16,1 km/h (3 Bft)
09.01.2021 17:13 23,7 °C 0,8 °C 44 % 91 % 1022,7 hPa 0,0 l/m² 10,3 km/h (2 Bft) W-NW 302 ° 0 min 0 W/m² -0,5 °C -2,8 °C 17,7 km/h (3 Bft)
09.01.2021 17:15 23,7 °C 0,8 °C 44 % 91 % 1022,7 hPa 0,0 l/m² 7,2 km/h (2 Bft) N-NW 340 ° 0 min 0 W/m² -0,5 °C -0,0 °C 16,1 km/h (3 Bft)
09.01.2021 17:17 23,6 °C 0,8 °C 44 % 91 % 1022,6 hPa 0,0 l/m² 8,2 km/h (2 Bft) W 281 ° 0 min 0 W/m² -0,5 °C -1,0 °C 14,5 km/h (3 Bft)
09.01.2021 17:19 23,6 °C 0,8 °C 44 % 91 % 1022,7 hPa 0,0 l/m² 8,9 km/h (2 Bft) W 281 ° 0 min 0 W/m² -0,5 °C -1,6 °C 16,1 km/h (3 Bft)
09.01.2021 17:21 23,7 °C 0,8 °C 44 % 90 % 1022,6 hPa 0,0 l/m² 9,6 km/h (2 Bft) W-NW 286 ° 0 min 0 W/m² -0,6 °C -2,2 °C 16,1 km/h (3 Bft)
09.01.2021 17:22 23,7 °C 0,8 °C 44 % 91 % 1022,6 hPa 0,0 l/m² 8,0 km/h (2 Bft) W-NW 284 ° 0 min 0 W/m² -0,5 °C -0,8 °C 14,5 km/h (3 Bft)
09.01.2021 17:23 23,6 °C 0,8 °C 44 % 91 % 1022,7 hPa 0,0 l/m² 6,2 km/h (2 Bft) NW 309 ° 0 min 0 W/m² -0,5 °C 0,8 °C 11,3 km/h (2 Bft)
09.01.2021 17:25 23,6 °C 0,8 °C 44 % 91 % 1022,7 hPa 0,0 l/m² 6,4 km/h (2 Bft) NW 319 ° 0 min 0 W/m² -0,5 °C 0,8 °C 14,5 km/h (3 Bft)
09.01.2021 17:27 23,6 °C 0,8 °C 45 % 91 % 1022,7 hPa 0,0 l/m² 7,1 km/h (2 Bft) W-NW 297 ° 0 min 0 W/m² -0,5 °C 0,1 °C 16,1 km/h (3 Bft)
09.01.2021 17:29 23,6 °C 0,8 °C 45 % 91 % 1022,7 hPa 0,0 l/m² 6,8 km/h (2 Bft) W-NW 290 ° 0 min 0 W/m² -0,5 °C 0,4 °C 17,7 km/h (3 Bft)
09.01.2021 17:31 23,6 °C 0,8 °C 45 % 91 % 1022,7 hPa 0,0 l/m² 6,5 km/h (2 Bft) W-NW 294 ° 0 min 0 W/m² -0,5 °C 0,7 °C 14,5 km/h (3 Bft)
09.01.2021 17:32 23,6 °C 0,8 °C 45 % 91 % 1022,7 hPa 0,0 l/m² 8,3 km/h (2 Bft) W 267 ° 0 min 0 W/m² -0,5 °C -1,1 °C 20,9 km/h (4 Bft)
09.01.2021 17:33 23,7 °C 0,8 °C 45 % 91 % 1022,7 hPa 0,0 l/m² 6,9 km/h (2 Bft) NW 323 ° 0 min 0 W/m² -0,5 °C 0,3 °C 9,7 km/h (2 Bft)
09.01.2021 17:35 23,6 °C 0,8 °C 45 % 91 % 1022,7 hPa 0,0 l/m² 6,4 km/h (2 Bft) W 281 ° 0 min 0 W/m² -0,5 °C 0,8 °C 11,3 km/h (2 Bft)
09.01.2021 17:37 23,6 °C 0,8 °C 45 % 91 % 1022,6 hPa 0,0 l/m² 5,5 km/h (2 Bft) W 275 ° 0 min 0 W/m² -0,5 °C 0,8 °C 9,7 km/h (2 Bft)
09.01.2021 17:39 23,6 °C 0,8 °C 45 % 91 % 1022,7 hPa 0,0 l/m² 9,4 km/h (2 Bft) W-NW 290 ° 0 min 0 W/m² -0,5 °C -2,1 °C 16,1 km/h (3 Bft)
09.01.2021 17:41 23,6 °C 0,8 °C 45 % 91 % 1022,7 hPa 0,0 l/m² 7,8 km/h (2 Bft) W 277 ° 0 min 0 W/m² -0,5 °C -0,6 °C 12,9 km/h (3 Bft)
09.01.2021 17:42 23,6 °C 0,8 °C 45 % 91 % 1022,7 hPa 0,0 l/m² 7,7 km/h (2 Bft) W-NW 293 ° 0 min 0 W/m² -0,5 °C -0,5 °C 11,3 km/h (2 Bft)
09.01.2021 17:43 23,6 °C 0,8 °C 45 % 91 % 1022,7 hPa 0,0 l/m² 5,6 km/h (2 Bft) W-NW 301 ° 0 min 0 W/m² -0,5 °C 0,8 °C 8,0 km/h (2 Bft)
09.01.2021 17:45 23,6 °C 0,8 °C 45 % 91 % 1022,8 hPa 0,0 l/m² 5,6 km/h (2 Bft) NW 308 ° 0 min 0 W/m² -0,5 °C 0,8 °C 12,9 km/h (3 Bft)
09.01.2021 17:47 23,6 °C 0,8 °C 45 % 91 % 1022,8 hPa 0,0 l/m² 4,8 km/h (1 Bft) W-NW 283 ° 0 min 0 W/m² -0,5 °C 0,8 °C 8,0 km/h (2 Bft)
09.01.2021 17:49 23,6 °C 0,8 °C 45 % 91 % 1022,8 hPa 0,0 l/m² 5,0 km/h (1 Bft) NW 304 ° 0 min 0 W/m² -0,5 °C 0,8 °C 8,0 km/h (2 Bft)
09.01.2021 17:51 23,7 °C 0,8 °C 45 % 91 % 1022,8 hPa 0,0 l/m² 5,6 km/h (2 Bft) NW 313 ° 0 min 0 W/m² -0,5 °C 0,8 °C 9,7 km/h (2 Bft)
09.01.2021 17:52 23,7 °C 0,8 °C 45 % 91 % 1022,8 hPa 0,0 l/m² 8,3 km/h (2 Bft) N-NW 327 ° 0 min 0 W/m² -0,5 °C -1,1 °C 12,9 km/h (3 Bft)
09.01.2021 17:53 23,6 °C 0,8 °C 45 % 91 % 1022,8 hPa 0,0 l/m² 9,0 km/h (2 Bft) W-NW 282 ° 0 min 0 W/m² -0,5 °C -1,7 °C 14,5 km/h (3 Bft)
09.01.2021 17:55 23,6 °C 0,8 °C 45 % 91 % 1022,8 hPa 0,0 l/m² 6,1 km/h (2 Bft) NW 315 ° 0 min 0 W/m² -0,5 °C 0,8 °C 11,3 km/h (2 Bft)
09.01.2021 17:57 23,6 °C 0,8 °C 45 % 91 % 1022,8 hPa 0,0 l/m² 5,7 km/h (2 Bft) W 279 ° 0 min 0 W/m² -0,5 °C 0,8 °C 9,7 km/h (2 Bft)
09.01.2021 17:59 23,6 °C 0,8 °C 45 % 91 % 1022,9 hPa 0,2 l/m² 5,7 km/h (2 Bft) NW 312 ° 0 min 0 W/m² -0,5 °C 0,8 °C 9,7 km/h (2 Bft)
09.01.2021 18:01 23,7 °C 0,8 °C 45 % 91 % 1022,9 hPa 0,0 l/m² 7,9 km/h (2 Bft) N-NW 327 ° 0 min 0 W/m² -0,5 °C -0,7 °C 12,9 km/h (3 Bft)
09.01.2021 18:02 23,7 °C 0,8 °C 45 % 91 % 1022,9 hPa 0,0 l/m² 4,8 km/h (1 Bft) W-NW 293 ° 0 min 0 W/m² -0,5 °C 0,8 °C 8,0 km/h (2 Bft)
09.01.2021 18:03 23,6 °C 0,8 °C 45 % 91 % 1022,9 hPa 0,0 l/m² 7,1 km/h (2 Bft) W-NW 298 ° 0 min 0 W/m² -0,5 °C 0,1 °C 12,9 km/h (3 Bft)
09.01.2021 18:05 23,6 °C 0,8 °C 45 % 91 % 1022,9 hPa 0,0 l/m² 5,1 km/h (1 Bft) W-NW 300 ° 0 min 0 W/m² -0,5 °C 0,8 °C 11,3 km/h (2 Bft)
09.01.2021 18:07 23,6 °C 0,8 °C 45 % 91 % 1022,9 hPa 0,0 l/m² 5,8 km/h (2 Bft) NW 311 ° 0 min 0 W/m² -0,5 °C 0,8 °C 12,9 km/h (3 Bft)
09.01.2021 18:09 23,6 °C 0,8 °C 45 % 91 % 1023,0 hPa 0,0 l/m² 5,8 km/h (2 Bft) W 274 ° 0 min 0 W/m² -0,5 °C 0,8 °C 14,5 km/h (3 Bft)
09.01.2021 18:11 23,6 °C 0,8 °C 45 % 91 % 1022,8 hPa 0,0 l/m² 5,5 km/h (2 Bft) W-NW 282 ° 0 min 0 W/m² -0,5 °C 0,8 °C 14,5 km/h (3 Bft)
09.01.2021 18:12 23,6 °C 0,8 °C 45 % 91 % 1022,8 hPa 0,0 l/m² 6,5 km/h (2 Bft) W-NW 301 ° 0 min 0 W/m² -0,5 °C 0,7 °C 11,3 km/h (2 Bft)
09.01.2021 18:13 23,6 °C 0,8 °C 45 % 91 % 1022,7 hPa 0,0 l/m² 5,2 km/h (1 Bft) NW 317 ° 0 min 0 W/m² -0,5 °C 0,8 °C 12,9 km/h (3 Bft)
09.01.2021 18:15 23,6 °C 0,8 °C 45 % 91 % 1022,9 hPa 0,0 l/m² 6,5 km/h (2 Bft) NW 319 ° 0 min 0 W/m² -0,5 °C 0,7 °C 12,9 km/h (3 Bft)
09.01.2021 18:17 23,6 °C 0,8 °C 45 % 91 % 1022,8 hPa 0,0 l/m² 5,6 km/h (2 Bft) W 261 ° 0 min 0 W/m² -0,5 °C 0,8 °C 11,3 km/h (2 Bft)
09.01.2021 18:19 23,6 °C 0,8 °C 45 % 91 % 1022,9 hPa 0,0 l/m² 4,5 km/h (1 Bft) W 273 ° 0 min 0 W/m² -0,5 °C 0,8 °C 9,7 km/h (2 Bft)
09.01.2021 18:21 23,6 °C 0,8 °C 45 % 91 % 1022,9 hPa 0,0 l/m² 6,8 km/h (2 Bft) W-NW 285 ° 0 min 0 W/m² -0,5 °C 0,4 °C 12,9 km/h (3 Bft)
09.01.2021 18:22 23,6 °C 0,8 °C 45 % 91 % 1022,9 hPa 0,0 l/m² 6,1 km/h (2 Bft) NW 307 ° 0 min 0 W/m² -0,5 °C 0,8 °C 11,3 km/h (2 Bft)
09.01.2021 18:23 23,6 °C 0,8 °C 45 % 91 % 1023,0 hPa 0,0 l/m² 8,0 km/h (2 Bft) NW 318 ° 0 min 0 W/m² -0,5 °C -0,8 °C 14,5 km/h (3 Bft)
09.01.2021 18:25 23,6 °C 0,8 °C 45 % 91 % 1022,9 hPa 0,0 l/m² 5,5 km/h (2 Bft) W-NW 302 ° 0 min 0 W/m² -0,5 °C 0,8 °C 11,3 km/h (2 Bft)
09.01.2021 18:27 23,6 °C 0,8 °C 45 % 91 % 1022,9 hPa 0,0 l/m² 4,8 km/h (1 Bft) W-NW 300 ° 0 min 0 W/m² -0,5 °C 0,8 °C 8,0 km/h (2 Bft)
09.01.2021 18:29 23,5 °C 0,8 °C 45 % 91 % 1023,0 hPa 0,0 l/m² 5,5 km/h (2 Bft) NW 314 ° 0 min 0 W/m² -0,5 °C 0,8 °C 11,3 km/h (2 Bft)
09.01.2021 18:31 23,5 °C 0,8 °C 45 % 91 % 1022,9 hPa 0,0 l/m² 6,6 km/h (2 Bft) NW 319 ° 0 min 0 W/m² -0,5 °C 0,6 °C 14,5 km/h (3 Bft)
09.01.2021 18:32 23,5 °C 0,8 °C 45 % 91 % 1022,9 hPa 0,0 l/m² 7,2 km/h (2 Bft) NW 312 ° 0 min 0 W/m² -0,5 °C -0,0 °C 9,7 km/h (2 Bft)
09.01.2021 18:33 23,5 °C 0,8 °C 45 % 91 % 1022,9 hPa 0,0 l/m² 6,8 km/h (2 Bft) NW 314 ° 0 min 0 W/m² -0,5 °C 0,4 °C 12,9 km/h (3 Bft)
09.01.2021 18:35 23,5 °C 0,8 °C 45 % 91 % 1022,9 hPa 0,0 l/m² 7,5 km/h (2 Bft) NW 309 ° 0 min 0 W/m² -0,5 °C -0,3 °C 12,9 km/h (3 Bft)
09.01.2021 18:37 23,5 °C 0,8 °C 45 % 91 % 1023,0 hPa 0,0 l/m² 5,7 km/h (2 Bft) NW 311 ° 0 min 0 W/m² -0,5 °C 0,8 °C 9,7 km/h (2 Bft)
09.01.2021 18:39 23,5 °C 0,8 °C 45 % 91 % 1022,9 hPa 0,0 l/m² 6,8 km/h (2 Bft) NW 310 ° 0 min 0 W/m² -0,5 °C 0,4 °C 12,9 km/h (3 Bft)
09.01.2021 18:41 23,5 °C 0,8 °C 45 % 91 % 1022,9 hPa 0,0 l/m² 3,4 km/h (1 Bft) NW 309 ° 0 min 0 W/m² -0,5 °C 0,8 °C 8,0 km/h (2 Bft)
09.01.2021 18:42 23,5 °C 0,8 °C 45 % 91 % 1022,9 hPa 0,0 l/m² 5,6 km/h (2 Bft) NW 322 ° 0 min 0 W/m² -0,5 °C 0,8 °C 14,5 km/h (3 Bft)
09.01.2021 18:43 23,5 °C 0,8 °C 45 % 91 % 1023,0 hPa 0,0 l/m² 10,3 km/h (2 Bft) NW 321 ° 0 min 0 W/m² -0,5 °C -2,8 °C 12,9 km/h (3 Bft)
09.01.2021 18:45 23,4 °C 0,8 °C 45 % 91 % 1022,9 hPa 0,0 l/m² 9,2 km/h (2 Bft) NW 307 ° 0 min 0 W/m² -0,5 °C -1,9 °C 12,9 km/h (3 Bft)
09.01.2021 18:47 23,5 °C 0,8 °C 44 % 91 % 1023,0 hPa 0,0 l/m² 6,1 km/h (2 Bft) NW 326 ° 0 min 0 W/m² -0,5 °C 0,8 °C 12,9 km/h (3 Bft)
09.01.2021 18:49 23,5 °C 0,8 °C 44 % 91 % 1023,0 hPa 0,0 l/m² 6,3 km/h (2 Bft) NW 325 ° 0 min 0 W/m² -0,5 °C 0,8 °C 12,9 km/h (3 Bft)
09.01.2021 18:51 23,4 °C 0,8 °C 44 % 91 % 1023,1 hPa 0,0 l/m² 9,3 km/h (2 Bft) NW 308 ° 0 min 0 W/m² -0,5 °C -2,0 °C 12,9 km/h (3 Bft)
09.01.2021 18:52 23,4 °C 0,8 °C 44 % 91 % 1023,1 hPa 0,0 l/m² 7,4 km/h (2 Bft) W 274 ° 0 min 0 W/m² -0,5 °C -0,2 °C 9,7 km/h (2 Bft)
09.01.2021 18:53 23,4 °C 0,8 °C 44 % 91 % 1023,0 hPa 0,0 l/m² 6,5 km/h (2 Bft) W-NW 303 ° 0 min 0 W/m² -0,5 °C 0,7 °C 12,9 km/h (3 Bft)
09.01.2021 18:55 23,4 °C 0,8 °C 44 % 91 % 1023,0 hPa 0,0 l/m² 9,1 km/h (2 Bft) N-NW 333 ° 0 min 0 W/m² -0,5 °C -1,8 °C 14,5 km/h (3 Bft)
09.01.2021 18:57 23,4 °C 0,7 °C 44 % 91 % 1023,0 hPa 0,0 l/m² 8,7 km/h (2 Bft) NW 324 ° 0 min 0 W/m² -0,6 °C -1,6 °C 14,5 km/h (3 Bft)
09.01.2021 18:59 23,4 °C 0,7 °C 44 % 91 % 1023,1 hPa 0,0 l/m² 10,0 km/h (2 Bft) N-NW 346 ° 0 min 0 W/m² -0,6 °C -2,7 °C 17,7 km/h (3 Bft)
09.01.2021 19:01 23,4 °C 0,8 °C 44 % 91 % 1023,1 hPa 0,0 l/m² 9,5 km/h (2 Bft) N-NW 335 ° 0 min 0 W/m² -0,5 °C -2,2 °C 14,5 km/h (3 Bft)
09.01.2021 19:02 23,4 °C 0,8 °C 44 % 91 % 1023,1 hPa 0,0 l/m² 10,6 km/h (2 Bft) W-NW 299 ° 0 min 0 W/m² -0,5 °C -3,0 °C 14,5 km/h (3 Bft)
09.01.2021 19:03 23,4 °C 0,7 °C 44 % 91 % 1023,1 hPa 0,0 l/m² 7,2 km/h (2 Bft) W-NW 291 ° 0 min 0 W/m² -0,6 °C -0,1 °C 16,1 km/h (3 Bft)
09.01.2021 19:05 23,4 °C 0,7 °C 44 % 91 % 1023,3 hPa 0,0 l/m² 9,2 km/h (2 Bft) NW 309 ° 0 min 0 W/m² -0,6 °C -2,0 °C 16,1 km/h (3 Bft)
09.01.2021 19:07 23,4 °C 0,7 °C 44 % 91 % 1023,3 hPa 0,0 l/m² 7,3 km/h (2 Bft) W-NW 285 ° 0 min 0 W/m² -0,6 °C -0,2 °C 14,5 km/h (3 Bft)
09.01.2021 19:09 23,4 °C 0,8 °C 44 % 91 % 1023,3 hPa 0,0 l/m² 10,9 km/h (2 Bft) W-NW 298 ° 0 min 0 W/m² -0,5 °C -3,3 °C 14,5 km/h (3 Bft)
09.01.2021 19:11 23,4 °C 0,7 °C 44 % 91 % 1023,5 hPa 0,0 l/m² 10,4 km/h (2 Bft) N-NW 328 ° 0 min 0 W/m² -0,6 °C -3,0 °C 16,1 km/h (3 Bft)
09.01.2021 19:12 23,4 °C 0,7 °C 44 % 91 % 1023,5 hPa 0,0 l/m² 8,5 km/h (2 Bft) NW 321 ° 0 min 0 W/m² -0,6 °C -1,4 °C 12,9 km/h (3 Bft)
09.01.2021 19:13 23,4 °C 0,7 °C 44 % 91 % 1023,3 hPa 0,0 l/m² 8,4 km/h (2 Bft) NW 313 ° 0 min 0 W/m² -0,6 °C -1,3 °C 16,1 km/h (3 Bft)
09.01.2021 19:15 23,4 °C 0,8 °C 45 % 91 % 1023,4 hPa 0,0 l/m² 9,0 km/h (2 Bft) NW 318 ° 0 min 0 W/m² -0,5 °C -1,7 °C 14,5 km/h (3 Bft)
09.01.2021 19:17 23,4 °C 0,8 °C 45 % 91 % 1023,4 hPa 0,0 l/m² 10,6 km/h (2 Bft) W-NW 291 ° 0 min 0 W/m² -0,5 °C -3,0 °C 14,5 km/h (3 Bft)
09.01.2021 19:19 23,4 °C 0,8 °C 45 % 91 % 1023,4 hPa 0,0 l/m² 11,0 km/h (2 Bft) NW 316 ° 0 min 0 W/m² -0,5 °C -3,3 °C 16,1 km/h (3 Bft)
09.01.2021 19:21 23,4 °C 0,8 °C 45 % 91 % 1023,4 hPa 0,0 l/m² 9,2 km/h (2 Bft) NW 306 ° 0 min 0 W/m² -0,5 °C -1,9 °C 14,5 km/h (3 Bft)
09.01.2021 19:22 23,4 °C 0,8 °C 45 % 91 % 1023,4 hPa 0,0 l/m² 6,8 km/h (2 Bft) NW 316 ° 0 min 0 W/m² -0,5 °C 0,4 °C 9,7 km/h (2 Bft)
09.01.2021 19:23 23,4 °C 0,8 °C 45 % 91 % 1023,4 hPa 0,0 l/m² 8,8 km/h (2 Bft) NW 322 ° 0 min 0 W/m² -0,5 °C -1,5 °C 16,1 km/h (3 Bft)
09.01.2021 19:25 23,4 °C 0,8 °C 45 % 91 % 1023,4 hPa 0,0 l/m² 11,6 km/h (2 Bft) W-NW 299 ° 0 min 0 W/m² -0,5 °C -3,8 °C 16,1 km/h (3 Bft)
09.01.2021 19:27 23,4 °C 0,8 °C 46 % 91 % 1023,4 hPa 0,0 l/m² 10,5 km/h (2 Bft) N-NW 336 ° 0 min 0 W/m² -0,5 °C -3,0 °C 17,7 km/h (3 Bft)
09.01.2021 19:29 23,4 °C 0,8 °C 46 % 91 % 1023,3 hPa 0,0 l/m² 11,3 km/h (2 Bft) W-NW 302 ° 0 min 0 W/m² -0,5 °C -3,6 °C 16,1 km/h (3 Bft)
09.01.2021 19:31 23,4 °C 0,8 °C 46 % 91 % 1023,4 hPa 0,0 l/m² 10,3 km/h (2 Bft) NW 304 ° 0 min 0 W/m² -0,5 °C -2,8 °C 19,3 km/h (3 Bft)
09.01.2021 19:32 23,4 °C 0,8 °C 46 % 91 % 1023,4 hPa 0,0 l/m² 9,9 km/h (2 Bft) N-NW 331 ° 0 min 0 W/m² -0,5 °C -2,5 °C 16,1 km/h (3 Bft)
09.01.2021 19:33 23,4 °C 0,8 °C 46 % 91 % 1023,4 hPa 0,0 l/m² 9,5 km/h (2 Bft) NW 310 ° 0 min 0 W/m² -0,5 °C -2,2 °C 16,1 km/h (3 Bft)
09.01.2021 19:35 23,4 °C 0,8 °C 46 % 91 % 1023,4 hPa 0,0 l/m² 9,7 km/h (2 Bft) NW 321 ° 0 min 0 W/m² -0,5 °C -2,3 °C 19,3 km/h (3 Bft)
09.01.2021 19:37 23,4 °C 0,8 °C 46 % 91 % 1023,4 hPa 0,0 l/m² 8,7 km/h (2 Bft) NW 304 ° 0 min 0 W/m² -0,5 °C -1,5 °C 14,5 km/h (3 Bft)
09.01.2021 19:39 23,4 °C 0,8 °C 46 % 91 % 1023,3 hPa 0,0 l/m² 9,4 km/h (2 Bft) NW 309 ° 0 min 0 W/m² -0,5 °C -2,1 °C 19,3 km/h (3 Bft)
09.01.2021 19:41 23,4 °C 0,8 °C 46 % 91 % 1023,4 hPa 0,0 l/m² 7,8 km/h (2 Bft) NW 310 ° 0 min 0 W/m² -0,5 °C -0,6 °C 17,7 km/h (3 Bft)
09.01.2021 19:42 23,4 °C 0,8 °C 46 % 91 % 1023,4 hPa 0,0 l/m² 11,2 km/h (2 Bft) NW 326 ° 0 min 0 W/m² -0,5 °C -3,5 °C 14,5 km/h (3 Bft)
09.01.2021 19:43 23,4 °C 0,8 °C 46 % 91 % 1023,4 hPa 0,0 l/m² 8,8 km/h (2 Bft) NW 317 ° 0 min 0 W/m² -0,5 °C -1,5 °C 12,9 km/h (3 Bft)
09.01.2021 19:45 23,4 °C 0,8 °C 46 % 91 % 1023,4 hPa 0,0 l/m² 8,7 km/h (2 Bft) NW 315 ° 0 min 0 W/m² -0,5 °C -1,5 °C 14,5 km/h (3 Bft)
09.01.2021 19:47 23,4 °C 0,8 °C 47 % 91 % 1023,4 hPa 0,0 l/m² 8,6 km/h (2 Bft) NW 312 ° 0 min 0 W/m² -0,5 °C -1,4 °C 14,5 km/h (3 Bft)
09.01.2021 19:49 23,4 °C 0,8 °C 47 % 91 % 1023,4 hPa 0,0 l/m² 4,6 km/h (1 Bft) NW 311 ° 0 min 0 W/m² -0,5 °C 0,8 °C 8,0 km/h (2 Bft)
09.01.2021 19:51 23,4 °C 0,8 °C 47 % 91 % 1023,4 hPa 0,0 l/m² 6,4 km/h (2 Bft) NW 307 ° 0 min 0 W/m² -0,5 °C 0,8 °C 12,9 km/h (3 Bft)
09.01.2021 19:52 23,4 °C 0,8 °C 47 % 91 % 1023,4 hPa 0,0 l/m² 4,1 km/h (1 Bft) NW 320 ° 0 min 0 W/m² -0,5 °C 0,8 °C 8,0 km/h (2 Bft)
09.01.2021 19:53 23,4 °C 0,8 °C 47 % 91 % 1023,4 hPa 0,0 l/m² 10,4 km/h (2 Bft) W 273 ° 0 min 0 W/m² -0,5 °C -2,9 °C 14,5 km/h (3 Bft)
09.01.2021 19:55 23,4 °C 0,7 °C 47 % 91 % 1023,5 hPa 0,0 l/m² 5,8 km/h (2 Bft) N-NW 327 ° 0 min 0 W/m² -0,6 °C 0,7 °C 12,9 km/h (3 Bft)
09.01.2021 19:57 23,4 °C 0,8 °C 47 % 91 % 1023,4 hPa 0,0 l/m² 4,6 km/h (1 Bft) W 275 ° 0 min 0 W/m² -0,5 °C 0,8 °C 9,7 km/h (2 Bft)
09.01.2021 19:59 23,4 °C 0,8 °C 47 % 91 % 1023,4 hPa 0,0 l/m² 3,7 km/h (1 Bft) W-NW 293 ° 0 min 0 W/m² -0,5 °C 0,8 °C 9,7 km/h (2 Bft)
09.01.2021 20:01 23,4 °C 0,7 °C 47 % 91 % 1023,5 hPa 0,0 l/m² 4,2 km/h (1 Bft) W-NW 299 ° 0 min 0 W/m² -0,6 °C 0,7 °C 11,3 km/h (2 Bft)
09.01.2021 20:02 23,4 °C 0,8 °C 47 % 91 % 1023,5 hPa 0,0 l/m² 3,2 km/h (1 Bft) NW 308 ° 0 min 0 W/m² -0,5 °C 0,8 °C 6,4 km/h (2 Bft)
09.01.2021 20:03 23,4 °C 0,8 °C 48 % 91 % 1023,5 hPa 0,0 l/m² 6,6 km/h (2 Bft) NW 317 ° 0 min 0 W/m² -0,5 °C 0,6 °C 14,5 km/h (3 Bft)
09.01.2021 20:05 23,4 °C 0,8 °C 48 % 91 % 1023,5 hPa 0,2 l/m² 8,2 km/h (2 Bft) NW 312 ° 0 min 0 W/m² -0,5 °C -1,0 °C 17,7 km/h (3 Bft)
09.01.2021 20:07 23,5 °C 0,8 °C 48 % 91 % 1023,5 hPa 0,0 l/m² 6,4 km/h (2 Bft) W 277 ° 0 min 0 W/m² -0,5 °C 0,8 °C 11,3 km/h (2 Bft)
09.01.2021 20:09 23,5 °C 0,8 °C 48 % 91 % 1023,5 hPa 0,0 l/m² 6,3 km/h (2 Bft) NW 313 ° 0 min 0 W/m² -0,5 °C 0,8 °C 11,3 km/h (2 Bft)
09.01.2021 20:11 23,5 °C 0,8 °C 48 % 91 % 1023,6 hPa 0,0 l/m² 3,8 km/h (1 Bft) W 281 ° 0 min 0 W/m² -0,5 °C 0,8 °C 6,4 km/h (2 Bft)
09.01.2021 20:12 23,5 °C 0,8 °C 48 % 91 % 1023,6 hPa 0,0 l/m² 3,6 km/h (1 Bft) NW 317 ° 0 min 0 W/m² -0,5 °C 0,8 °C 4,8 km/h (1 Bft)
09.01.2021 20:13 23,5 °C 0,8 °C 48 % 91 % 1023,6 hPa 0,0 l/m² 2,2 km/h (1 Bft) NW 310 ° 0 min 0 W/m² -0,5 °C 0,8 °C 3,2 km/h (1 Bft)
09.01.2021 20:15 23,5 °C 0,8 °C 49 % 91 % 1023,6 hPa 0,0 l/m² 4,9 km/h (1 Bft) NW 320 ° 0 min 0 W/m² -0,5 °C 0,8 °C 12,9 km/h (3 Bft)
09.01.2021 20:17 23,5 °C 0,8 °C 49 % 91 % 1023,6 hPa 0,0 l/m² 5,2 km/h (1 Bft) NW 307 ° 0 min 0 W/m² -0,5 °C 0,8 °C 9,7 km/h (2 Bft)
09.01.2021 20:19 23,5 °C 0,8 °C 49 % 91 % 1023,7 hPa 0,0 l/m² 4,7 km/h (1 Bft) NW 323 ° 0 min 0 W/m² -0,5 °C 0,8 °C 8,0 km/h (2 Bft)
09.01.2021 20:21 23,5 °C 0,8 °C 49 % 91 % 1023,8 hPa 0,0 l/m² 7,1 km/h (2 Bft) W 281 ° 0 min 0 W/m² -0,5 °C 0,1 °C 11,3 km/h (2 Bft)
09.01.2021 20:22 23,5 °C 0,8 °C 49 % 91 % 1023,8 hPa 0,0 l/m² 4,1 km/h (1 Bft) NW 313 ° 0 min 0 W/m² -0,5 °C 0,8 °C 4,8 km/h (1 Bft)
09.01.2021 20:23 23,5 °C 0,8 °C 48 % 91 % 1023,7 hPa 0,0 l/m² 4,6 km/h (1 Bft) W 276 ° 0 min 0 W/m² -0,5 °C 0,8 °C 9,7 km/h (2 Bft)
09.01.2021 20:25 23,5 °C 0,8 °C 48 % 91 % 1023,7 hPa 0,0 l/m² 6,8 km/h (2 Bft) W 277 ° 0 min 0 W/m² -0,5 °C 0,4 °C 11,3 km/h (2 Bft)
09.01.2021 20:27 23,5 °C 0,8 °C 48 % 91 % 1023,8 hPa 0,0 l/m² 3,4 km/h (1 Bft) NW 311 ° 0 min 0 W/m² -0,5 °C 0,8 °C 6,4 km/h (2 Bft)
09.01.2021 20:29 23,5 °C 0,8 °C 48 % 91 % 1023,8 hPa 0,0 l/m² 5,2 km/h (1 Bft) W 275 ° 0 min 0 W/m² -0,5 °C 0,8 °C 9,7 km/h (2 Bft)
09.01.2021 20:31 23,5 °C 0,8 °C 48 % 91 % 1023,9 hPa 0,0 l/m² 3,1 km/h (1 Bft) NW 310 ° 0 min 0 W/m² -0,5 °C 0,8 °C 6,4 km/h (2 Bft)
09.01.2021 20:32 23,5 °C 0,8 °C 48 % 91 % 1023,9 hPa 0,0 l/m² 2,9 km/h (1 Bft) W-NW 301 ° 0 min 0 W/m² -0,5 °C 0,8 °C 4,8 km/h (1 Bft)
09.01.2021 20:33 23,5 °C 0,8 °C 48 % 91 % 1023,9 hPa 0,0 l/m² 3,0 km/h (1 Bft) W-NW 301 ° 0 min 0 W/m² -0,5 °C 0,8 °C 4,8 km/h (1 Bft)
09.01.2021 20:35 23,6 °C 0,8 °C 48 % 91 % 1023,8 hPa 0,0 l/m² 5,0 km/h (1 Bft) NW 305 ° 0 min 0 W/m² -0,5 °C 0,8 °C 11,3 km/h (2 Bft)
09.01.2021 20:37 23,5 °C 0,8 °C 48 % 91 % 1023,9 hPa 0,0 l/m² 5,5 km/h (2 Bft) W 267 ° 0 min 0 W/m² -0,5 °C 0,8 °C 9,7 km/h (2 Bft)
09.01.2021 20:39 23,5 °C 0,8 °C 47 % 91 % 1023,9 hPa 0,0 l/m² 7,6 km/h (2 Bft) W 278 ° 0 min 0 W/m² -0,5 °C -0,4 °C 11,3 km/h (2 Bft)
09.01.2021 20:41 23,4 °C 0,8 °C 45 % 91 % 1023,9 hPa 0,0 l/m² 6,2 km/h (2 Bft) W 272 ° 0 min 0 W/m² -0,5 °C 0,8 °C 9,7 km/h (2 Bft)
09.01.2021 20:42 23,4 °C 0,8 °C 45 % 91 % 1023,9 hPa 0,0 l/m² 8,0 km/h (2 Bft) W-NW 292 ° 0 min 0 W/m² -0,5 °C -0,8 °C 11,3 km/h (2 Bft)
09.01.2021 20:43 23,5 °C 0,8 °C 45 % 91 % 1023,9 hPa 0,0 l/m² 8,8 km/h (2 Bft) W 275 ° 0 min 0 W/m² -0,5 °C -1,5 °C 11,3 km/h (2 Bft)
09.01.2021 20:45 23,4 °C 0,8 °C 44 % 91 % 1023,9 hPa 0,0 l/m² 7,2 km/h (2 Bft) W-SW 258 ° 0 min 0 W/m² -0,5 °C -0,0 °C 11,3 km/h (2 Bft)
09.01.2021 20:47 23,4 °C 0,8 °C 45 % 91 % 1023,9 hPa 0,0 l/m² 3,7 km/h (1 Bft) W 267 ° 0 min 0 W/m² -0,5 °C 0,8 °C 6,4 km/h (2 Bft)
09.01.2021 20:49 23,4 °C 0,8 °C 45 % 91 % 1023,9 hPa 0,0 l/m² 4,1 km/h (1 Bft) W 263 ° 0 min 0 W/m² -0,5 °C 0,8 °C 9,7 km/h (2 Bft)
09.01.2021 20:51 23,4 °C 0,7 °C 45 % 91 % 1024,0 hPa 0,0 l/m² 4,3 km/h (1 Bft) W 279 ° 0 min 0 W/m² -0,6 °C 0,7 °C 9,7 km/h (2 Bft)
09.01.2021 20:52 23,4 °C 0,8 °C 45 % 91 % 1024,0 hPa 0,0 l/m² 4,7 km/h (1 Bft) W 279 ° 0 min 0 W/m² -0,5 °C 0,8 °C 6,4 km/h (2 Bft)
09.01.2021 20:53 23,4 °C 0,8 °C 45 % 91 % 1024,0 hPa 0,0 l/m² 2,1 km/h (1 Bft) W 279 ° 0 min 0 W/m² -0,5 °C 0,8 °C 4,8 km/h (1 Bft)
09.01.2021 20:55 23,4 °C 0,8 °C 46 % 91 % 1024,0 hPa 0,0 l/m² 2,3 km/h (1 Bft) W 279 ° 0 min 0 W/m² -0,5 °C 0,8 °C 4,8 km/h (1 Bft)
09.01.2021 20:57 23,4 °C 0,8 °C 46 % 91 % 1024,0 hPa 0,0 l/m² 4,3 km/h (1 Bft) W 277 ° 0 min 0 W/m² -0,5 °C 0,8 °C 9,7 km/h (2 Bft)
09.01.2021 20:59 23,4 °C 0,8 °C 47 % 91 % 1023,9 hPa 0,0 l/m² 5,5 km/h (2 Bft) W 280 ° 0 min 0 W/m² -0,5 °C 0,8 °C 9,7 km/h (2 Bft)
09.01.2021 21:01 23,5 °C 0,7 °C 47 % 91 % 1024,0 hPa 0,0 l/m² 3,8 km/h (1 Bft) W 275 ° 0 min 0 W/m² -0,6 °C 0,7 °C 8,0 km/h (2 Bft)
09.01.2021 21:02 23,5 °C 0,8 °C 47 % 91 % 1024,0 hPa 0,0 l/m² 5,2 km/h (1 Bft) W 264 ° 0 min 0 W/m² -0,5 °C 0,8 °C 6,4 km/h (2 Bft)
09.01.2021 21:03 23,5 °C 0,7 °C 46 % 91 % 1024,0 hPa 0,0 l/m² 5,5 km/h (2 Bft) W 279 ° 0 min 0 W/m² -0,6 °C 0,7 °C 6,4 km/h (2 Bft)
09.01.2021 21:05 23,6 °C 0,8 °C 46 % 91 % 1024,0 hPa 0,0 l/m² 3,9 km/h (1 Bft) W-NW 295 ° 0 min 0 W/m² -0,5 °C 0,8 °C 8,0 km/h (2 Bft)
09.01.2021 21:07 23,6 °C 0,8 °C 46 % 91 % 1024,0 hPa 0,0 l/m² 4,2 km/h (1 Bft) N-NW 333 ° 0 min 0 W/m² -0,5 °C 0,8 °C 6,4 km/h (2 Bft)
09.01.2021 21:09 23,6 °C 0,8 °C 46 % 91 % 1024,0 hPa 0,0 l/m² 5,3 km/h (1 Bft) NW 304 ° 0 min 0 W/m² -0,5 °C 0,8 °C 8,0 km/h (2 Bft)
09.01.2021 21:11 23,6 °C 0,8 °C 46 % 91 % 1024,0 hPa 0,0 l/m² 3,5 km/h (1 Bft) W-NW 295 ° 0 min 0 W/m² -0,5 °C 0,8 °C 8,0 km/h (2 Bft)
09.01.2021 21:12 23,6 °C 0,7 °C 46 % 91 % 1024,0 hPa 0,0 l/m² 1,4 km/h (1 Bft) W-NW 293 ° 0 min 0 W/m² -0,6 °C 0,7 °C 4,8 km/h (1 Bft)
09.01.2021 21:13 23,6 °C 0,7 °C 46 % 91 % 1024,0 hPa 0,0 l/m² 7,4 km/h (2 Bft) W-NW 286 ° 0 min 0 W/m² -0,6 °C -0,3 °C 9,7 km/h (2 Bft)
09.01.2021 21:15 23,6 °C 0,8 °C 46 % 91 % 1024,0 hPa 0,0 l/m² 5,1 km/h (1 Bft) W 262 ° 0 min 0 W/m² -0,5 °C 0,8 °C 9,7 km/h (2 Bft)
09.01.2021 21:17 23,6 °C 0,8 °C 46 % 91 % 1024,0 hPa 0,0 l/m² 7,7 km/h (2 Bft) NW 316 ° 0 min 0 W/m² -0,5 °C -0,5 °C 12,9 km/h (3 Bft)
09.01.2021 21:19 23,7 °C 0,7 °C 46 % 91 % 1024,0 hPa 0,0 l/m² 7,7 km/h (2 Bft) W-NW 285 ° 0 min 0 W/m² -0,6 °C -0,6 °C 12,9 km/h (3 Bft)
09.01.2021 21:21 23,7 °C 0,7 °C 47 % 91 % 1024,0 hPa 0,0 l/m² 6,8 km/h (2 Bft) W 271 ° 0 min 0 W/m² -0,6 °C 0,3 °C 11,3 km/h (2 Bft)
09.01.2021 21:22 23,7 °C 0,8 °C 47 % 91 % 1024,0 hPa 0,0 l/m² 5,9 km/h (2 Bft) W 271 ° 0 min 0 W/m² -0,5 °C 0,8 °C 9,7 km/h (2 Bft)
09.01.2021 21:23 23,7 °C 0,7 °C 47 % 91 % 1024,0 hPa 0,0 l/m² 5,6 km/h (2 Bft) W 260 ° 0 min 0 W/m² -0,6 °C 0,7 °C 8,0 km/h (2 Bft)
09.01.2021 21:25 23,7 °C 0,7 °C 47 % 91 % 1024,0 hPa 0,0 l/m² 6,4 km/h (2 Bft) W 268 ° 0 min 0 W/m² -0,6 °C 0,7 °C 12,9 km/h (3 Bft)
09.01.2021 21:27 23,7 °C 0,7 °C 47 % 91 % 1024,0 hPa 0,0 l/m² 9,0 km/h (2 Bft) W-SW 257 ° 0 min 0 W/m² -0,6 °C -1,8 °C 16,1 km/h (3 Bft)
09.01.2021 21:29 23,7 °C 0,7 °C 47 % 91 % 1024,0 hPa 0,0 l/m² 5,1 km/h (1 Bft) W-SW 252 ° 0 min 0 W/m² -0,6 °C 0,7 °C 6,4 km/h (2 Bft)
09.01.2021 21:31 23,7 °C 0,7 °C 47 % 91 % 1023,9 hPa 0,0 l/m² 4,7 km/h (1 Bft) W-SW 252 ° 0 min 0 W/m² -0,6 °C 0,7 °C 6,4 km/h (2 Bft)
09.01.2021 21:32 23,7 °C 0,7 °C 47 % 91 % 1023,9 hPa 0,0 l/m² 3,6 km/h (1 Bft) W-SW 252 ° 0 min 0 W/m² -0,6 °C 0,7 °C 4,8 km/h (1 Bft)
09.01.2021 21:33 23,7 °C 0,7 °C 47 % 91 % 1024,0 hPa 0,0 l/m² 3,6 km/h (1 Bft) W-SW 252 ° 0 min 0 W/m² -0,6 °C 0,7 °C 4,8 km/h (1 Bft)
09.01.2021 21:35 23,7 °C 0,7 °C 47 % 91 % 1024,0 hPa 0,0 l/m² 4,0 km/h (1 Bft) W-SW 257 ° 0 min 0 W/m² -0,6 °C 0,7 °C 6,4 km/h (2 Bft)
09.01.2021 21:37 23,8 °C 0,7 °C 47 % 91 % 1024,1 hPa 0,0 l/m² 3,2 km/h (1 Bft) W-SW 257 ° 0 min 0 W/m² -0,6 °C 0,7 °C 4,8 km/h (1 Bft)
09.01.2021 21:39 23,8 °C 0,7 °C 47 % 91 % 1024,1 hPa 0,0 l/m² 2,9 km/h (1 Bft) W-SW 257 ° 0 min 0 W/m² -0,6 °C 0,7 °C 4,8 km/h (1 Bft)
09.01.2021 21:41 23,8 °C 0,7 °C 47 % 91 % 1024,2 hPa 0,0 l/m² 2,2 km/h (1 Bft) W-SW 257 ° 0 min 0 W/m² -0,6 °C 0,7 °C 4,8 km/h (1 Bft)
09.01.2021 21:42 23,8 °C 0,7 °C 47 % 91 % 1024,2 hPa 0,0 l/m² 3,3 km/h (1 Bft) W-SW 257 ° 0 min 0 W/m² -0,6 °C 0,7 °C 4,8 km/h (1 Bft)
09.01.2021 21:43 23,8 °C 0,7 °C 47 % 91 % 1024,1 hPa 0,0 l/m² 4,2 km/h (1 Bft) W-SW 240 ° 0 min 0 W/m² -0,6 °C 0,7 °C 6,4 km/h (2 Bft)
09.01.2021 21:45 23,8 °C 0,7 °C 47 % 91 % 1024,2 hPa 0,0 l/m² 5,0 km/h (1 Bft) SW 232 ° 0 min 0 W/m² -0,6 °C 0,7 °C 6,4 km/h (2 Bft)
09.01.2021 21:47 23,8 °C 0,7 °C 47 % 91 % 1024,2 hPa 0,0 l/m² 3,3 km/h (1 Bft) SW 232 ° 0 min 0 W/m² -0,6 °C 0,7 °C 4,8 km/h (1 Bft)
09.01.2021 21:49 23,9 °C 0,7 °C 47 % 91 % 1024,1 hPa 0,0 l/m² 4,0 km/h (1 Bft) SW 236 ° 0 min 0 W/m² -0,6 °C 0,7 °C 6,4 km/h (2 Bft)
09.01.2021 21:51 23,9 °C 0,7 °C 47 % 91 % 1024,2 hPa 0,0 l/m² 3,7 km/h (1 Bft) W 261 ° 0 min 0 W/m² -0,6 °C 0,7 °C 6,4 km/h (2 Bft)
09.01.2021 21:52 23,9 °C 0,7 °C 47 % 91 % 1024,2 hPa 0,0 l/m² 5,9 km/h (2 Bft) W 263 ° 0 min 0 W/m² -0,6 °C 0,7 °C 6,4 km/h (2 Bft)
09.01.2021 21:53 23,9 °C 0,7 °C 47 % 91 % 1024,2 hPa 0,0 l/m² 4,8 km/h (1 Bft) W 273 ° 0 min 0 W/m² -0,6 °C 0,7 °C 6,4 km/h (2 Bft)
09.01.2021 21:55 23,9 °C 0,7 °C 47 % 91 % 1024,2 hPa 0,0 l/m² 4,5 km/h (1 Bft) W 275 ° 0 min 0 W/m² -0,6 °C 0,7 °C 6,4 km/h (2 Bft)
09.01.2021 21:57 23,9 °C 0,7 °C 47 % 91 % 1024,3 hPa 0,0 l/m² 3,4 km/h (1 Bft) W 276 ° 0 min 0 W/m² -0,6 °C 0,7 °C 4,8 km/h (1 Bft)
09.01.2021 21:59 23,9 °C 0,7 °C 47 % 91 % 1024,4 hPa 0,0 l/m² 3,3 km/h (1 Bft) W 276 ° 0 min 0 W/m² -0,6 °C 0,7 °C 6,4 km/h (2 Bft)
09.01.2021 22:01 23,9 °C 0,7 °C 47 % 91 % 1024,3 hPa 0,0 l/m² 2,2 km/h (1 Bft) W 276 ° 0 min 0 W/m² -0,6 °C 0,7 °C 3,2 km/h (1 Bft)
09.01.2021 22:02 23,9 °C 0,7 °C 47 % 91 % 1024,3 hPa 0,0 l/m² 2,0 km/h (1 Bft) W 276 ° 0 min 0 W/m² -0,6 °C 0,7 °C 3,2 km/h (1 Bft)
09.01.2021 22:03 23,9 °C 0,6 °C 47 % 91 % 1024,3 hPa 0,0 l/m² 1,7 km/h (1 Bft) W 277 ° 0 min 0 W/m² -0,7 °C 0,6 °C 3,2 km/h (1 Bft)
09.01.2021 22:05 23,9 °C 0,6 °C 47 % 91 % 1024,4 hPa 0,0 l/m² 2,3 km/h (1 Bft) W 277 ° 0 min 0 W/m² -0,7 °C 0,6 °C 4,8 km/h (1 Bft)
09.01.2021 22:07 24,0 °C 0,7 °C 47 % 91 % 1024,4 hPa 0,0 l/m² 1,6 km/h (1 Bft) W 277 ° 0 min 0 W/m² -0,6 °C 0,7 °C 3,2 km/h (1 Bft)
09.01.2021 22:09 24,0 °C 0,6 °C 47 % 91 % 1024,4 hPa 0,0 l/m² 1,0 km/h (0 Bft) W 277 ° 0 min 0 W/m² -0,7 °C 0,6 °C 3,2 km/h (1 Bft)
09.01.2021 22:11 24,0 °C 0,6 °C 47 % 91 % 1024,4 hPa 0,0 l/m² 1,0 km/h (0 Bft) W 277 ° 0 min 0 W/m² -0,7 °C 0,6 °C 1,6 km/h (1 Bft)
09.01.2021 22:12 24,0 °C 0,6 °C 47 % 91 % 1024,4 hPa 0,0 l/m² 1,3 km/h (1 Bft) W 277 ° 0 min 0 W/m² -0,7 °C 0,6 °C 1,6 km/h (1 Bft)
09.01.2021 22:13 24,0 °C 0,6 °C 47 % 91 % 1024,3 hPa 0,0 l/m² 1,0 km/h (0 Bft) W 277 ° 0 min 0 W/m² -0,7 °C 0,6 °C 3,2 km/h (1 Bft)
09.01.2021 22:15 24,0 °C 0,6 °C 47 % 91 % 1024,3 hPa 0,0 l/m² 3,1 km/h (1 Bft) W-NW 288 ° 0 min 0 W/m² -0,7 °C 0,6 °C 4,8 km/h (1 Bft)
09.01.2021 22:17 24,1 °C 0,6 °C 47 % 91 % 1024,3 hPa 0,0 l/m² 6,0 km/h (2 Bft) N-NW 329 ° 0 min 0 W/m² -0,7 °C 0,6 °C 9,7 km/h (2 Bft)
09.01.2021 22:19 24,1 °C 0,6 °C 47 % 91 % 1024,4 hPa 0,0 l/m² 6,2 km/h (2 Bft) NW 319 ° 0 min 0 W/m² -0,7 °C 0,6 °C 11,3 km/h (2 Bft)
09.01.2021 22:21 24,1 °C 0,6 °C 47 % 91 % 1024,4 hPa 0,0 l/m² 3,3 km/h (1 Bft) NW 316 ° 0 min 0 W/m² -0,7 °C 0,6 °C 4,8 km/h (1 Bft)
09.01.2021 22:22 24,1 °C 0,6 °C 47 % 91 % 1024,4 hPa 0,0 l/m² 1,5 km/h (1 Bft) NW 316 ° 0 min 0 W/m² -0,7 °C 0,6 °C 3,2 km/h (1 Bft)
09.01.2021 22:23 24,1 °C 0,6 °C 47 % 91 % 1024,3 hPa 0,0 l/m² 1,8 km/h (1 Bft) NW 316 ° 0 min 0 W/m² -0,7 °C 0,6 °C 3,2 km/h (1 Bft)
09.01.2021 22:25 24,1 °C 0,6 °C 47 % 91 % 1024,3 hPa 0,0 l/m² 3,7 km/h (1 Bft) NW 306 ° 0 min 0 W/m² -0,7 °C 0,6 °C 8,0 km/h (2 Bft)
09.01.2021 22:27 24,1 °C 0,6 °C 47 % 91 % 1024,3 hPa 0,0 l/m² 3,7 km/h (1 Bft) W-NW 296 ° 0 min 0 W/m² -0,7 °C 0,6 °C 6,4 km/h (2 Bft)
09.01.2021 22:29 24,1 °C 0,6 °C 47 % 91 % 1024,4 hPa 0,0 l/m² 4,1 km/h (1 Bft) W-NW 292 ° 0 min 0 W/m² -0,7 °C 0,6 °C 9,7 km/h (2 Bft)
09.01.2021 22:31 24,1 °C 0,6 °C 47 % 91 % 1024,4 hPa 0,0 l/m² 5,2 km/h (1 Bft) W-NW 286 ° 0 min 0 W/m² -0,7 °C 0,6 °C 6,4 km/h (2 Bft)
09.01.2021 22:32 24,1 °C 0,6 °C 47 % 91 % 1024,4 hPa 0,0 l/m² 3,8 km/h (1 Bft) W-NW 286 ° 0 min 0 W/m² -0,7 °C 0,6 °C 6,4 km/h (2 Bft)
09.01.2021 22:33 24,1 °C 0,6 °C 48 % 91 % 1024,4 hPa 0,0 l/m² 2,8 km/h (1 Bft) W-NW 286 ° 0 min 0 W/m² -0,7 °C 0,6 °C 4,8 km/h (1 Bft)
09.01.2021 22:35 24,1 °C 0,6 °C 48 % 91 % 1024,3 hPa 0,0 l/m² 1,5 km/h (1 Bft) W-NW 286 ° 0 min 0 W/m² -0,7 °C 0,6 °C 3,2 km/h (1 Bft)
09.01.2021 22:37 24,2 °C 0,5 °C 48 % 91 % 1024,5 hPa 0,0 l/m² 1,3 km/h (1 Bft) W-NW 286 ° 0 min 0 W/m² -0,8 °C 0,5 °C 3,2 km/h (1 Bft)
09.01.2021 22:39 24,2 °C 0,5 °C 48 % 91 % 1024,5 hPa 0,0 l/m² 1,6 km/h (1 Bft) W-NW 286 ° 0 min 0 W/m² -0,8 °C 0,5 °C 3,2 km/h (1 Bft)
09.01.2021 22:41 24,2 °C 0,5 °C 48 % 91 % 1024,4 hPa 0,0 l/m² 0,5 km/h (0 Bft) W-NW 286 ° 0 min 0 W/m² -0,8 °C 0,5 °C 1,6 km/h (1 Bft)
09.01.2021 22:42 24,2 °C 0,5 °C 48 % 91 % 1024,4 hPa 0,0 l/m² 0,0 km/h (0 Bft) W-NW 286 ° 0 min 0 W/m² -0,8 °C 0,5 °C 0,0 km/h (0 Bft)
09.01.2021 22:43 24,2 °C 0,5 °C 48 % 91 % 1024,4 hPa 0,0 l/m² 1,0 km/h (0 Bft) W-NW 286 ° 0 min 0 W/m² -0,8 °C 0,5 °C 3,2 km/h (1 Bft)
09.01.2021 22:45 24,2 °C 0,5 °C 48 % 91 % 1024,4 hPa 0,0 l/m² 1,6 km/h (1 Bft) W-NW 286 ° 0 min 0 W/m² -0,8 °C 0,5 °C 1,6 km/h (1 Bft)
09.01.2021 22:47 24,2 °C 0,5 °C 48 % 91 % 1024,4 hPa 0,0 l/m² 1,7 km/h (1 Bft) W-NW 286 ° 0 min 0 W/m² -0,8 °C 0,5 °C 3,2 km/h (1 Bft)
09.01.2021 22:49 24,2 °C 0,5 °C 48 % 91 % 1024,4 hPa 0,0 l/m² 2,8 km/h (1 Bft) W-NW 286 ° 0 min 0 W/m² -0,8 °C 0,5 °C 3,2 km/h (1 Bft)
09.01.2021 22:51 24,2 °C 0,5 °C 48 % 91 % 1024,3 hPa 0,0 l/m² 2,7 km/h (1 Bft) W-NW 286 ° 0 min 0 W/m² -0,8 °C 0,5 °C 3,2 km/h (1 Bft)
09.01.2021 22:52 24,2 °C 0,4 °C 48 % 91 % 1024,3 hPa 0,0 l/m² 2,7 km/h (1 Bft) W-NW 286 ° 0 min 0 W/m² -0,9 °C 0,4 °C 3,2 km/h (1 Bft)
09.01.2021 22:53 24,2 °C 0,5 °C 48 % 91 % 1024,5 hPa 0,0 l/m² 2,4 km/h (1 Bft) W-NW 286 ° 0 min 0 W/m² -0,8 °C 0,5 °C 3,2 km/h (1 Bft)
09.01.2021 22:55 24,2 °C 0,5 °C 47 % 91 % 1024,4 hPa 0,0 l/m² 2,6 km/h (1 Bft) W-NW 286 ° 0 min 0 W/m² -0,8 °C 0,5 °C 3,2 km/h (1 Bft)
09.01.2021 22:57 24,2 °C 0,4 °C 48 % 91 % 1024,4 hPa 0,0 l/m² 2,1 km/h (1 Bft) W-NW 286 ° 0 min 0 W/m² -0,9 °C 0,4 °C 3,2 km/h (1 Bft)
09.01.2021 22:59 24,2 °C 0,4 °C 48 % 91 % 1024,4 hPa 0,0 l/m² 1,0 km/h (0 Bft) W-NW 286 ° 0 min 0 W/m² -0,9 °C 0,4 °C 3,2 km/h (1 Bft)
09.01.2021 23:01 24,2 °C 0,4 °C 47 % 91 % 1024,4 hPa 0,0 l/m² 0,5 km/h (0 Bft) W-NW 286 ° 0 min 0 W/m² -0,9 °C 0,4 °C 1,6 km/h (1 Bft)
09.01.2021 23:02 24,2 °C 0,4 °C 47 % 91 % 1024,4 hPa 0,0 l/m² 0,5 km/h (0 Bft) W-NW 286 ° 0 min 0 W/m² -0,9 °C 0,4 °C 1,6 km/h (1 Bft)
09.01.2021 23:03 24,2 °C 0,4 °C 47 % 91 % 1024,5 hPa 0,0 l/m² 0,5 km/h (0 Bft) W-NW 286 ° 0 min 0 W/m² -0,9 °C 0,4 °C 1,6 km/h (1 Bft)
09.01.2021 23:05 24,2 °C 0,4 °C 47 % 91 % 1024,4 hPa 0,0 l/m² 0,2 km/h (0 Bft) W-NW 286 ° 0 min 0 W/m² -0,9 °C 0,4 °C 3,2 km/h (1 Bft)
09.01.2021 23:07 24,2 °C 0,4 °C 47 % 91 % 1024,4 hPa 0,0 l/m² 1,4 km/h (1 Bft) W-NW 286 ° 0 min 0 W/m² -0,9 °C 0,4 °C 3,2 km/h (1 Bft)
09.01.2021 23:09 24,1 °C 0,4 °C 47 % 91 % 1024,5 hPa 0,0 l/m² 0,3 km/h (0 Bft) W-NW 286 ° 0 min 0 W/m² -0,9 °C 0,4 °C 1,6 km/h (1 Bft)
09.01.2021 23:11 24,1 °C 0,4 °C 47 % 91 % 1024,4 hPa 0,0 l/m² 1,9 km/h (1 Bft) W-NW 288 ° 0 min 0 W/m² -0,9 °C 0,4 °C 4,8 km/h (1 Bft)
09.01.2021 23:12 24,1 °C 0,4 °C 47 % 91 % 1024,4 hPa 0,0 l/m² 4,0 km/h (1 Bft) W 279 ° 0 min 0 W/m² -0,9 °C 0,4 °C 4,8 km/h (1 Bft)
09.01.2021 23:13 24,1 °C 0,4 °C 47 % 91 % 1024,5 hPa 0,0 l/m² 4,3 km/h (1 Bft) NW 324 ° 0 min 0 W/m² -0,9 °C 0,4 °C 6,4 km/h (2 Bft)
09.01.2021 23:15 24,1 °C 0,4 °C 47 % 91 % 1024,4 hPa 0,0 l/m² 3,2 km/h (1 Bft) NW 325 ° 0 min 0 W/m² -0,9 °C 0,4 °C 6,4 km/h (2 Bft)
09.01.2021 23:16 24,1 °C 0,4 °C 47 % 91 % 1024,4 hPa 0,0 l/m² 4,8 km/h (1 Bft) W-NW 292 ° 0 min 0 W/m² -0,9 °C 0,4 °C 4,8 km/h (1 Bft)
09.01.2021 23:22 24,1 °C 0,4 °C 47 % 91 % 1024,5 hPa 0,0 l/m² 6,1 km/h (2 Bft) W 269 ° 0 min 0 W/m² -0,9 °C 0,4 °C 9,7 km/h (2 Bft)
09.01.2021 23:23 24,0 °C 0,4 °C 47 % 91 % 1024,5 hPa 0,0 l/m² 4,2 km/h (1 Bft) W 273 ° 0 min 0 W/m² -0,9 °C 0,4 °C 6,4 km/h (2 Bft)
09.01.2021 23:24 24,0 °C 0,4 °C 47 % 91 % 1024,5 hPa 0,0 l/m² 4,1 km/h (1 Bft) W 277 ° 0 min 0 W/m² -0,9 °C 0,4 °C 6,4 km/h (2 Bft)
09.01.2021 23:25 24,0 °C 0,4 °C 47 % 91 % 1024,5 hPa 0,0 l/m² 4,2 km/h (1 Bft) W 269 ° 0 min 0 W/m² -0,9 °C 0,4 °C 6,4 km/h (2 Bft)
09.01.2021 23:26 24,0 °C 0,4 °C 47 % 92 % 1024,4 hPa 0,0 l/m² 3,7 km/h (1 Bft) W 269 ° 0 min 0 W/m² -0,7 °C 0,4 °C 4,8 km/h (1 Bft)
09.01.2021 23:28 24,1 °C 0,4 °C 47 % 91 % 1024,4 hPa 0,0 l/m² 3,4 km/h (1 Bft) W 269 ° 0 min 0 W/m² -0,9 °C 0,4 °C 4,8 km/h (1 Bft)
09.01.2021 23:30 24,0 °C 0,4 °C 47 % 92 % 1024,5 hPa 0,0 l/m² 3,3 km/h (1 Bft) W 269 ° 0 min 0 W/m² -0,7 °C 0,4 °C 4,8 km/h (1 Bft)
09.01.2021 23:31 24,0 °C 0,4 °C 47 % 91 % 1024,5 hPa 0,0 l/m² 4,1 km/h (1 Bft) W 269 ° 0 min 0 W/m² -0,9 °C 0,4 °C 4,8 km/h (1 Bft)
09.01.2021 23:32 24,0 °C 0,4 °C 47 % 91 % 1024,5 hPa 0,0 l/m² 4,8 km/h (1 Bft) W 269 ° 0 min 0 W/m² -0,9 °C 0,4 °C 6,4 km/h (2 Bft)
09.01.2021 23:34 24,0 °C 0,4 °C 47 % 91 % 1024,4 hPa 0,0 l/m² 4,3 km/h (1 Bft) W 274 ° 0 min 0 W/m² -0,9 °C 0,4 °C 6,4 km/h (2 Bft)
09.01.2021 23:35 24,0 °C 0,4 °C 47 % 92 % 1024,5 hPa 0,0 l/m² 3,9 km/h (1 Bft) W 273 ° 0 min 0 W/m² -0,7 °C 0,4 °C 6,4 km/h (2 Bft)
09.01.2021 23:37 24,0 °C 0,4 °C 47 % 92 % 1024,5 hPa 0,0 l/m² 5,3 km/h (1 Bft) W 277 ° 0 min 0 W/m² -0,7 °C 0,4 °C 6,4 km/h (2 Bft)
09.01.2021 23:39 24,0 °C 0,4 °C 47 % 92 % 1024,5 hPa 0,0 l/m² 4,1 km/h (1 Bft) W 277 ° 0 min 0 W/m² -0,7 °C 0,4 °C 6,4 km/h (2 Bft)
09.01.2021 23:40 23,9 °C 0,4 °C 47 % 92 % 1024,4 hPa 0,0 l/m² 3,5 km/h (1 Bft) W 277 ° 0 min 0 W/m² -0,7 °C 0,4 °C 4,8 km/h (1 Bft)
09.01.2021 23:42 23,9 °C 0,4 °C 47 % 92 % 1024,4 hPa 0,0 l/m² 2,1 km/h (1 Bft) W 277 ° 0 min 0 W/m² -0,7 °C 0,4 °C 4,8 km/h (1 Bft)
09.01.2021 23:43 23,9 °C 0,4 °C 47 % 92 % 1024,4 hPa 0,0 l/m² 0,8 km/h (0 Bft) W 277 ° 0 min 0 W/m² -0,7 °C 0,4 °C 1,6 km/h (1 Bft)
09.01.2021 23:44 23,9 °C 0,4 °C 47 % 92 % 1024,4 hPa 0,0 l/m² 1,6 km/h (1 Bft) W 277 ° 0 min 0 W/m² -0,7 °C 0,4 °C 3,2 km/h (1 Bft)
09.01.2021 23:46 23,9 °C 0,4 °C 47 % 92 % 1024,4 hPa 0,0 l/m² 1,6 km/h (1 Bft) W 277 ° 0 min 0 W/m² -0,7 °C 0,4 °C 4,8 km/h (1 Bft)
09.01.2021 23:48 23,9 °C 0,4 °C 47 % 92 % 1024,4 hPa 0,0 l/m² 2,9 km/h (1 Bft) W 277 ° 0 min 0 W/m² -0,7 °C 0,4 °C 4,8 km/h (1 Bft)
09.01.2021 23:50 23,9 °C 0,4 °C 47 % 92 % 1024,3 hPa 0,0 l/m² 3,5 km/h (1 Bft) W 279 ° 0 min 0 W/m² -0,7 °C 0,4 °C 4,8 km/h (1 Bft)
09.01.2021 23:51 23,9 °C 0,4 °C 47 % 92 % 1024,4 hPa 0,0 l/m² 2,3 km/h (1 Bft) W 279 ° 0 min 0 W/m² -0,7 °C 0,4 °C 3,2 km/h (1 Bft)
09.01.2021 23:52 23,9 °C 0,4 °C 47 % 92 % 1024,4 hPa 0,0 l/m² 0,8 km/h (0 Bft) W 279 ° 0 min 0 W/m² -0,7 °C 0,4 °C 1,6 km/h (1 Bft)
09.01.2021 23:53 23,9 °C 0,3 °C 47 % 92 % 1024,3 hPa 0,0 l/m² 0,3 km/h (0 Bft) W 279 ° 0 min 0 W/m² -0,8 °C 0,3 °C 1,6 km/h (1 Bft)
09.01.2021 23:54 23,9 °C 0,4 °C 47 % 92 % 1024,4 hPa 0,0 l/m² 0,3 km/h (0 Bft) W 279 ° 0 min 0 W/m² -0,7 °C 0,4 °C 1,6 km/h (1 Bft)
09.01.2021 23:56 23,9 °C 0,4 °C 47 % 92 % 1024,3 hPa 0,0 l/m² 0,7 km/h (0 Bft) W 279 ° 0 min 0 W/m² -0,7 °C 0,4 °C 1,6 km/h (1 Bft)
09.01.2021 23:58 23,9 °C 0,4 °C 47 % 92 % 1024,3 hPa 0,0 l/m² 1,4 km/h (1 Bft) W 279 ° 0 min 0 W/m² -0,7 °C 0,4 °C 3,2 km/h (1 Bft)
09.01.2021 23:59 23,9 °C 0,4 °C 47 % 92 % 1024,3 hPa 0,0 l/m² 1,1 km/h (1 Bft) W 279 ° 0 min 0 W/m² -0,7 °C 0,4 °C 1,6 km/h (1 Bft)
_ Min-Zeit 11:11 01:59 16:53 01:42 01:17 - 22:42 - - - - 01:42 06:51 22:42
Minimum _ 23,3 °C -0,4 °C 41 % 88 % 1017,3 hPa - 0,0 km/h (0 Bft) - - - - -2,1 °C -7,9 °C 0,0 km/h (0 Bft)
_ Max-Zeit 23:07 15:08 20:22 10:04 23:39 20:05 06:51 - - 14:20 11:48 11:18 14:02 16:25
Maximum _ 24,2 °C 1,0 °C 49 % 93 % 1024,5 hPa 0,2 l/m² 16,2 km/h
W (3 Bft)
- - 2 min 104 W/m² -0,3 °C 0,9 °C 24,1 km/h
NW (4 Bft)
Durchschnitt _ 23,6 °C 0,3 °C 46 % 91 % 1020,9 hPa #1,0 l/m² 6,8 km/h (2 Bft) W-NW - #3:30 h 15 W/m² -0,9 °C -0,8 °C 11,6 km/h (2 Bft)
© 2009 Mathias Hoßbach